[[{"header":{"parameterUnit":"m.s-1","parameterCategory":1,"la1":30.6,"la2":28.766,"lo1":-90.7593,"lo2":-88.6598,"dy":0.0162,"dx":0.0183,"nx":116,"ny":114,"refTime":"2023-05-10T00:00:00:Z","depth":0,"parameterNumber":2,"parameterNumberName":"U-component_of_WINDS"},"data":[0.0,0.0,0.0,0.0,0.0,0.0,0.0,0.0,0.0,0.0,0.0,0.0,0.0,0.0,0.0,0.0,0.0,0.0,0.0,0.0,0.0,0.0,0.0,0.0,0.0,0.0,0.0,0.0,0.0,0.0,0.0,0.0,0.0,0.0,0.0,0.0,0.0,0.0,0.0,0.0,0.0,0.0,0.0,0.0,0.0,0.0,0.0,0.0,0.0,0.0,0.0,0.0,0.0,0.0,0.0,0.0,0.0,0.0,0.0,0.0,0.0,0.0,0.0,0.0,0.0,0.0,0.0,0.0,0.0,0.0,0.0,0.0,0.0,0.0,0.0,0.0,0.0,0.0,0.0,0.0,0.0,0.0,0.0,0.0,0.0,0.0,0.0,0.0,0.0,0.0,0.0,0.0,0.0,0.0,0.0,0.0,0.0,0.0,0.0,0.0,0.0,0.0,0.0,0.0,0.0,0.0,0.0,0.0,0.0,0.0,0.0,0.0,0.0,0.0,0.0,0.0,0.0,0.0,0.0,0.0,0.0,0.0,0.0,0.0,0.0,0.0,0.0,0.0,0.0,0.0,0.0,0.0,0.0,0.0,0.0,0.0,0.0,0.0,0.0,0.0,0.0,0.0,0.0,0.0,0.0,0.0,0.0,0.0,0.0,0.0,0.0,0.0,0.0,0.0,0.0,0.0,0.0,0.0,0.0,0.0,0.0,0.0,0.0,0.0,0.0,0.0,0.0,0.0,0.0,0.0,0.0,0.0,0.0,0.0,0.0,0.0,0.0,0.0,0.0,0.0,0.0,0.0,0.0,0.0,0.0,0.0,0.0,0.0,0.0,0.0,0.0,0.0,0.0,0.0,0.0,0.0,0.0,0.0,0.0,0.0,0.0,0.0,0.0,0.0,0.0,0.0,0.0,0.0,0.0,0.0,0.0,0.0,0.0,0.0,0.0,0.0,0.0,0.0,0.0,0.0,0.0,0.0,0.0,0.0,0.0,0.0,0.0,0.0,0.0,0.0,0.0,0.0,0.0,0.0,0.0,0.0,0.0,0.0,0.0,0.0,0.0,0.0,0.0,0.0,0.0,0.0,0.0,0.0,0.0,0.0,0.0,0.0,0.0,0.0,0.0,0.0,0.0,0.0,0.0,0.0,0.0,0.0,0.0,0.0,0.0,0.0,0.0,0.0,0.0,0.0,0.0,0.0,0.0,0.0,0.0,0.0,0.0,0.0,0.0,0.0,0.0,0.0,0.0,0.0,0.0,0.0,0.0,0.0,0.0,0.0,0.0,0.0,0.0,0.0,0.0,0.0,0.0,0.0,0.0,0.0,0.0,0.0,0.0,0.0,0.0,0.0,0.0,0.0,0.0,0.0,0.0,0.0,0.0,0.0,0.0,0.0,0.0,0.0,0.0,0.0,0.0,0.0,0.0,0.0,0.0,0.0,0.0,0.0,0.0,0.0,0.0,0.0,0.0,0.0,0.0,0.0,0.0,0.0,0.0,0.0,0.0,0.0,0.0,0.0,0.0,0.0,0.0,0.0,0.0,0.0,0.0,0.0,0.0,0.0,0.0,0.0,0.0,0.0,0.0,0.0,0.0,0.0,0.0,0.0,0.0,0.0,0.0,0.0,0.0,0.0,0.0,0.0,0.0,0.0,0.0,0.0,0.0,0.0,0.0,0.0,0.0,0.0,0.0,0.0,0.0,0.0,0.0,0.0,0.0,0.0,0.0,0.0,0.0,0.0,0.0,0.0,0.0,0.0,0.0,0.0,0.0,0.0,0.0,0.0,0.0,0.0,0.0,0.0,0.0,0.0,0.0,0.0,0.0,0.0,0.0,0.0,0.0,0.0,0.0,0.0,0.0,0.0,0.0,0.0,0.0,0.0,0.0,0.0,0.0,0.0,0.0,0.0,0.0,0.0,0.0,0.0,0.0,0.0,0.0,0.0,0.0,0.0,0.0,0.0,0.0,0.0,0.0,0.0,0.0,0.0,0.0,0.0,0.0,0.0,0.0,0.0,0.0,0.0,0.0,0.0,0.0,0.0,0.0,0.0,0.0,0.0,0.0,0.0,0.0,0.0,0.0,0.0,0.0,0.0,0.0,0.0,0.0,0.0,0.0,0.0,0.0,0.0,0.0,0.0,0.0,0.0,0.0,0.0,0.0,0.0,0.0,0.0,0.0,0.0,0.0,0.0,0.0,0.0,0.0,0.0,0.0,0.0,0.0,0.0,0.0,0.0,0.0,0.0,0.0,0.0,0.0,0.0,0.0,0.0,0.0,0.0,0.0,0.0,0.0,0.0,0.0,0.0,0.0,0.0,0.0,0.0,0.0,0.0,0.0,0.0,0.0,0.0,0.0,0.0,0.0,0.0,0.0,0.0,0.0,0.0,0.0,0.0,0.0,0.0,0.0,0.0,0.0,0.0,0.0,0.0,0.0,0.0,0.0,0.0,0.0,0.0,0.0,0.0,0.0,0.0,0.0,0.0,0.0,0.0,0.0,0.0,0.0,0.0,0.0,0.0,0.0,0.0,0.0,0.0,0.0,0.0,0.0,0.0,0.0,0.0,0.0,0.0,0.0,0.0,0.0,0.0,0.0,0.0,0.0,0.0,0.0,0.0,0.0,0.0,0.0,0.0,0.0,0.0,0.0,0.0,0.0,0.0,0.0,0.0,0.0,0.0,0.0,0.0,0.0,0.0,0.0,0.0,0.0,0.0,0.0,0.0,0.0,0.0,0.0,0.0,0.0,0.0,0.0,0.0,0.0,0.0,0.0,0.0,0.0,0.0,0.0,0.0,0.0,0.0,0.0,0.0,0.0,0.0,0.0,0.0,0.0,0.0,0.0,0.0,0.0,0.0,0.0,0.0,0.0,0.0,0.0,0.0,0.0,0.0,0.0,0.0,0.0,0.0,0.0,0.0,0.0,0.0,0.0,0.0,0.0,0.0,0.0,0.0,0.0,0.0,0.0,0.0,0.0,0.0,0.0,0.0,0.0,0.0,0.0,0.0,0.0,0.0,0.0,0.0,0.0,0.0,0.0,0.0,0.0,0.0,0.0,0.0,0.0,0.0,0.0,0.0,0.0,0.0,0.0,0.0,0.0,0.0,0.0,0.0,0.0,0.0,0.0,0.0,0.0,0.0,0.0,0.0,0.0,0.0,0.0,0.0,0.0,0.0,0.0,0.0,0.0,0.0,0.0,0.0,0.0,0.0,0.0,0.0,0.0,0.0,0.0,0.0,0.0,0.0,0.0,0.0,0.0,0.0,0.0,0.0,0.0,0.0,0.0,0.0,0.0,0.0,0.0,0.0,0.0,0.0,0.0,0.0,0.0,0.0,0.0,0.0,0.0,0.0,0.0,0.0,0.0,0.0,0.0,0.0,0.0,0.0,0.0,0.0,0.0,0.0,0.0,0.0,0.0,0.0,0.0,0.0,0.0,0.0,0.0,0.0,0.0,0.0,0.0,0.0,0.0,0.0,0.0,0.0,0.0,0.0,0.0,0.0,0.0,0.0,0.0,0.0,0.0,0.0,0.0,0.0,0.0,0.0,0.0,0.0,0.0,0.0,0.0,0.0,0.0,0.0,0.0,0.0,0.0,0.0,0.0,0.0,0.0,0.0,0.0,0.0,0.0,0.0,0.0,0.0,0.0,0.0,0.0,0.0,0.0,0.0,0.0,0.0,0.0,0.0,0.0,0.0,0.0,0.0,0.0,0.0,0.0,0.0,0.0,0.0,0.0,0.0,0.0,0.0,0.0,0.0,0.0,0.0,0.0,0.0,0.0,0.0,0.0,0.0,0.0,0.0,0.0,0.0,0.0,0.0,0.0,0.0,0.0,0.0,0.0,0.0,0.0,0.0,0.0,0.0,0.0,0.0,0.0,0.0,0.0,0.0,0.0,0.0,0.0,0.0,0.0,0.0,0.0,0.0,0.0,0.0,0.0,0.0,0.0,0.0,0.0,0.0,0.0,0.0,0.0,0.0,0.0,0.0,0.0,0.0,0.0,0.0,0.0,0.0,0.0,0.0,0.0,0.0,0.0,0.0,0.0,0.0,0.0,0.0,0.0,0.0,0.0,0.0,0.0,0.0,0.0,0.0,0.0,0.0,0.0,0.0,0.0,0.0,0.0,0.0,0.0,0.0,0.0,0.0,0.0,0.0,0.0,0.0,0.0,0.0,0.0,0.0,0.0,0.0,0.0,0.0,0.0,0.0,0.0,0.0,0.0,0.0,0.0,0.0,0.0,0.0,0.0,0.0,0.0,0.0,0.0,0.0,0.0,0.0,0.0,0.0,0.0,0.0,0.0,0.0,0.0,0.0,0.0,0.0,0.0,0.0,0.0,0.0,0.0,0.0,0.0,0.0,0.0,0.0,0.0,0.0,0.0,0.0,0.0,0.0,0.0,0.0,0.0,0.0,0.0,0.0,0.0,0.0,0.0,0.0,0.0,0.0,0.0,0.0,0.0,0.0,0.0,0.0,0.0,0.0,0.0,0.0,0.0,0.0,0.0,0.0,0.0,0.0,0.0,0.0,0.0,0.0,0.0,0.0,0.0,0.0,0.0,0.0,0.0,0.0,0.0,0.0,0.0,0.0,0.0,0.0,0.0,0.0,0.0,0.0,0.0,0.0,0.0,0.0,0.0,0.0,0.0,0.0,0.0,0.0,0.0,0.0,0.0,0.0,0.0,0.0,0.0,0.0,0.0,0.0,0.0,0.0,0.0,0.0,0.0,0.0,0.0,0.0,0.0,0.0,0.0,0.0,0.0,0.0,0.0,0.0,0.0,0.0,0.0,0.0,0.0,0.0,0.0,0.0,0.0,0.0,0.0,0.0,0.0,0.0,0.0,0.0,0.0,0.0,0.0,0.0,0.0,0.0,0.0,0.0,0.0,0.0,0.0,0.0,0.0,0.0,0.0,0.0,0.0,0.0,0.0,0.0,0.0,0.0,0.0,0.0,0.0,0.0,0.0,0.0,0.0,0.0,0.0,0.0,0.0,0.0,0.0,0.0,0.0,0.0,0.0,0.0,0.0,0.0,0.0,0.0,0.0,0.0,0.0,0.0,0.0,0.0,0.0,0.0,0.0,0.0,0.0,0.0,0.0,0.0,0.0,0.0,0.0,0.0,0.0,0.0,0.0,0.0,0.0,0.0,0.0,0.0,0.0,0.0,0.0,0.0,0.0,0.0,0.0,0.0,0.0,0.0,0.0,0.0,0.0,0.0,0.0,0.0,0.0,0.0,0.0,0.0,0.0,0.0,0.0,0.0,0.0,0.0,0.0,0.0,0.0,0.0,0.0,0.0,0.0,0.0,0.0,0.0,0.0,0.0,0.0,0.0,0.0,0.0,0.0,0.0,0.0,0.0,0.0,0.0,0.0,0.0,0.0,0.0,0.0,0.0,0.0,0.0,0.0,0.0,0.0,0.0,0.0,0.0,0.0,0.0,0.0,0.0,0.0,0.0,0.0,0.0,0.0,0.0,0.0,0.0,0.0,0.0,0.0,0.0,0.0,0.0,0.0,0.0,0.0,0.0,0.0,0.0,0.0,0.0,0.0,0.0,0.0,0.0,0.0,0.0,0.0,0.0,0.0,0.0,0.0,0.0,0.0,0.0,0.0,0.0,0.0,0.0,0.0,0.0,0.0,0.0,0.0,0.0,0.0,0.0,0.0,0.0,0.0,0.0,0.0,0.0,0.0,0.0,0.0,0.0,0.0,0.0,0.0,0.0,0.0,0.0,0.0,0.0,0.0,0.0,0.0,0.0,0.0,0.0,0.0,0.0,0.0,0.0,0.0,0.0,0.0,0.0,0.0,0.0,0.0,0.0,0.0,0.0,0.0,0.0,0.0,0.0,0.0,0.0,0.0,0.0,0.0,0.0,0.0,0.0,0.0,0.0,0.0,0.0,0.0,0.0,0.0,0.0,0.0,0.0,0.0,0.0,0.0,0.0,0.0,0.0,0.0,0.0,0.0,0.0,0.0,0.0,0.0,0.0,0.0,0.0,0.0,0.0,0.0,0.0,0.0,0.0,0.0,0.0,0.0,0.0,0.0,0.0,0.0,0.0,0.0,0.0,0.0,0.0,0.0,0.0,0.0,0.0,0.0,0.0,-3.2973,-3.2632,0.0,0.0,0.0,0.0,0.0,0.0,0.0,0.0,0.0,0.0,0.0,0.0,0.0,0.0,0.0,0.0,0.0,0.0,0.0,0.0,0.0,0.0,0.0,0.0,0.0,0.0,0.0,0.0,0.0,0.0,0.0,0.0,0.0,0.0,0.0,0.0,0.0,-2.8235,-2.8851,-2.9591,-3.0427,-3.1085,-3.1092,-3.0583,0.0,0.0,0.0,0.0,0.0,0.0,0.0,0.0,0.0,0.0,0.0,0.0,0.0,0.0,0.0,0.0,0.0,0.0,0.0,0.0,0.0,0.0,0.0,0.0,0.0,0.0,0.0,0.0,0.0,0.0,0.0,0.0,0.0,0.0,0.0,0.0,0.0,0.0,0.0,0.0,0.0,0.0,0.0,0.0,0.0,0.0,0.0,0.0,0.0,0.0,0.0,0.0,0.0,0.0,0.0,0.0,0.0,0.0,0.0,0.0,0.0,0.0,0.0,0.0,0.0,0.0,0.0,0.0,0.0,0.0,-3.3022,-3.2796,0.0,0.0,0.0,0.0,0.0,0.0,0.0,0.0,0.0,0.0,0.0,0.0,0.0,0.0,0.0,0.0,0.0,0.0,0.0,0.0,0.0,0.0,0.0,-2.6284,-2.6909,-2.6854,-2.6854,-2.6854,0.0,0.0,0.0,0.0,0.0,0.0,0.0,-2.7329,-2.7646,-2.7748,-2.9031,-3.019,-3.1237,-3.1709,-3.1358,-3.033,-3.0954,0.0,0.0,0.0,0.0,0.0,0.0,0.0,0.0,0.0,0.0,0.0,0.0,0.0,0.0,0.0,0.0,0.0,0.0,0.0,0.0,0.0,0.0,0.0,0.0,0.0,0.0,0.0,0.0,0.0,0.0,0.0,0.0,0.0,0.0,0.0,0.0,0.0,0.0,0.0,0.0,0.0,0.0,0.0,0.0,0.0,0.0,0.0,0.0,0.0,0.0,0.0,0.0,0.0,0.0,0.0,0.0,0.0,0.0,0.0,0.0,0.0,0.0,0.0,-3.3302,-3.3273,-3.3246,-3.3044,-3.3086,-3.3319,-3.3537,-3.345,-3.3093,-3.2551,0.0,0.0,0.0,0.0,0.0,0.0,0.0,0.0,0.0,0.0,0.0,0.0,0.0,0.0,0.0,0.0,0.0,0.0,0.0,0.0,0.0,-2.6164,-2.6499,-2.6305,-2.6317,-2.6236,-2.605,0.0,0.0,0.0,0.0,0.0,-2.605,-2.6581,-2.7075,-2.7557,-2.9321,-3.0603,-3.1367,-3.1618,-3.1665,-3.1479,-3.1474,-3.1588,-3.1765,0.0,0.0,0.0,0.0,0.0,0.0,0.0,0.0,0.0,0.0,0.0,0.0,0.0,0.0,0.0,0.0,0.0,0.0,0.0,0.0,0.0,0.0,0.0,0.0,0.0,0.0,0.0,0.0,0.0,0.0,0.0,0.0,0.0,0.0,0.0,0.0,0.0,0.0,0.0,0.0,0.0,-3.1422,-3.1872,0.0,0.0,0.0,0.0,0.0,0.0,0.0,0.0,0.0,0.0,0.0,0.0,0.0,-3.3158,-3.3617,-3.4122,-3.4354,-3.4311,-3.4607,-3.4704,-3.4704,-3.4426,-3.4254,-3.415,-3.4197,0.0,-3.2888,-3.2296,0.0,0.0,0.0,0.0,0.0,0.0,0.0,0.0,0.0,0.0,0.0,0.0,0.0,0.0,0.0,0.0,0.0,0.0,0.0,0.0,0.0,-2.5875,-2.6084,-2.5875,-2.5863,-2.5793,-2.5571,-2.5571,0.0,0.0,0.0,-2.5681,-2.5996,-2.6554,-2.7417,-2.8678,-2.9945,-3.0885,-3.1447,-3.1896,-3.2129,-3.2231,-3.1874,-3.1809,-3.19,-3.1837,0.0,0.0,0.0,0.0,0.0,0.0,0.0,0.0,0.0,0.0,0.0,0.0,0.0,0.0,0.0,0.0,0.0,0.0,0.0,0.0,0.0,0.0,0.0,0.0,0.0,0.0,0.0,0.0,0.0,0.0,0.0,0.0,0.0,0.0,0.0,0.0,0.0,0.0,0.0,-3.1452,-3.1841,-3.1683,-3.1734,-3.1618,0.0,0.0,0.0,0.0,0.0,0.0,0.0,0.0,0.0,-3.3421,-3.3745,-3.417,-3.4719,-3.4944,-3.5057,-3.5069,-3.5226,-3.5292,-3.5245,-3.5024,-3.4836,-3.4789,-3.4271,-3.3873,-3.3464,-3.2548,-3.1967,-3.1622,0.0,0.0,0.0,0.0,-2.9719,-2.9691,0.0,0.0,0.0,0.0,0.0,0.0,0.0,0.0,0.0,0.0,0.0,0.0,-2.5385,-2.5718,-2.586,-2.5599,-2.5684,-2.5601,-2.523,-2.5182,-2.5123,-2.504,-2.5028,-2.5254,-2.5788,-2.6548,-2.7809,-2.9555,-3.0276,-3.0937,-3.1547,-3.2017,-3.2332,-3.2513,-3.2105,-3.1959,-3.2049,-3.1949,-3.1763,-3.1551,0.0,0.0,0.0,0.0,0.0,0.0,0.0,0.0,0.0,0.0,0.0,0.0,0.0,0.0,0.0,0.0,0.0,0.0,0.0,0.0,0.0,0.0,0.0,0.0,0.0,0.0,0.0,0.0,0.0,0.0,0.0,0.0,0.0,0.0,0.0,0.0,0.0,-3.2088,-3.2646,-3.2297,-3.2591,-3.2585,0.0,0.0,0.0,0.0,0.0,0.0,-3.2893,-3.3296,-3.382,-3.4491,-3.4905,-3.5368,-3.5905,-3.5917,-3.5832,-3.5698,-3.5649,-3.5551,-3.5502,-3.5232,-3.5096,-3.5048,-3.4267,-3.3944,-3.3922,-3.2947,-3.2418,-3.2135,-3.1332,-3.0816,-3.0489,-3.0139,-2.9916,-2.9682,0.0,0.0,0.0,0.0,0.0,0.0,0.0,0.0,0.0,0.0,0.0,-2.5227,-2.5556,-2.5889,-2.5911,-2.5532,-2.5904,-2.5823,-2.4975,-2.4915,-2.4708,-2.4284,-2.4261,-2.4492,-2.4949,-2.6358,-2.7828,-2.9393,-2.9887,-3.068,-3.1669,-3.1737,-3.1825,-3.2021,-3.2008,-3.2081,-3.2181,-3.183,-3.1724,-3.1648,-3.134,0.0,0.0,0.0,0.0,0.0,0.0,0.0,0.0,0.0,0.0,0.0,0.0,0.0,0.0,0.0,0.0,0.0,0.0,0.0,0.0,0.0,0.0,0.0,0.0,0.0,0.0,0.0,0.0,0.0,0.0,0.0,0.0,0.0,0.0,0.0,0.0,0.0,0.0,-3.4453,-3.4554,0.0,0.0,0.0,0.0,-3.3383,-3.3656,-3.403,-3.4558,-3.4606,-3.5086,-3.6168,-3.624,-3.6504,-3.702,-3.7032,-3.6756,-3.624,-3.6009,-3.5766,-3.5509,-3.52,-3.4941,-3.4711,-3.4193,-3.3975,-3.3961,-3.3399,-3.2691,-3.2009,-3.195,-3.1187,-3.0138,-3.0082,-2.9647,-2.9056,0.0,0.0,0.0,0.0,0.0,0.0,0.0,0.0,-2.5999,-2.6002,-2.5448,-2.5025,-2.5028,-2.5201,-2.5233,-2.4946,-2.5241,-2.5118,-2.4355,-2.4207,-2.392,-2.3431,-2.372,-2.4447,-2.5704,-2.6719,-2.7887,-2.9194,-2.9498,-3.0022,-3.0713,-3.0713,-3.0937,-3.1294,-3.1294,-3.1573,-3.2087,-3.2256,-3.2139,-3.1843,-3.1836,-3.1413,0.0,0.0,0.0,0.0,0.0,0.0,0.0,0.0,0.0,0.0,0.0,0.0,0.0,0.0,0.0,0.0,0.0,0.0,0.0,0.0,0.0,0.0,0.0,0.0,0.0,0.0,0.0,0.0,0.0,0.0,0.0,0.0,0.0,0.0,0.0,0.0,0.0,-3.5138,-3.5778,0.0,-3.4932,-3.4797,-3.4628,-3.4375,-3.4406,-3.4624,-3.4929,-3.4964,-3.5272,-3.6011,-3.6022,-3.6317,-3.6821,-3.6555,-3.6303,-3.6108,-3.5745,-3.5554,-3.5446,-3.5111,-3.4726,-3.4381,-3.3977,-3.3437,-3.2879,-3.2701,-3.2487,-3.2226,-3.1913,-3.153,-3.1113,-3.0928,-3.0581,-3.0201,0.0,0.0,0.0,0.0,0.0,0.0,0.0,0.0,-2.5812,-2.5558,-2.5156,-2.4791,-2.4479,-2.4688,-2.472,-2.4436,-2.4858,-2.4838,-2.3978,-2.3818,-2.3459,-2.2799,-2.3394,-2.4415,-2.5821,-2.6657,-2.759,-2.8611,-2.8914,-2.9297,-2.9703,-2.9806,-3.0125,-3.0663,-3.0754,-3.1244,-3.2076,-3.2265,-3.2283,-3.2164,-3.2134,-3.1705,-3.111,0.0,0.0,0.0,0.0,0.0,0.0,0.0,0.0,0.0,0.0,0.0,0.0,0.0,0.0,0.0,0.0,0.0,0.0,0.0,0.0,0.0,0.0,0.0,0.0,0.0,0.0,0.0,0.0,0.0,0.0,0.0,0.0,0.0,0.0,-3.4769,-3.6082,-3.5986,-3.6883,-3.7154,-3.6125,-3.6131,-3.5963,-3.5558,-3.5491,-3.5499,-3.5659,-3.5509,-3.5594,-3.6027,-3.6038,-3.6114,-3.6326,-3.6008,-3.5736,-3.5395,-3.5143,-3.4856,-3.4636,-3.4402,-3.4072,-3.3658,-3.3114,-3.2566,-3.1923,-3.1665,-3.1563,-3.1584,-3.1629,-3.1551,-3.1393,-3.1211,-3.0818,-3.0312,0.0,0.0,0.0,0.0,0.0,0.0,0.0,-2.5074,-2.5188,-2.4837,-2.473,-2.4468,-2.3922,-2.4341,-2.4478,-2.4115,-2.4915,-2.4972,-2.386,-2.3767,-2.3352,-2.245,-2.3321,-2.4255,-2.5221,-2.6158,-2.695,-2.7694,-2.8168,-2.8477,-2.8699,-2.8954,-2.9498,-3.0211,-3.0447,-3.1131,-3.2029,-3.1774,-3.2088,-3.2624,-3.2109,-3.203,-3.2102,0.0,0.0,0.0,0.0,0.0,0.0,0.0,0.0,0.0,0.0,0.0,0.0,0.0,0.0,0.0,0.0,0.0,0.0,0.0,0.0,0.0,0.0,0.0,0.0,0.0,0.0,0.0,0.0,0.0,0.0,0.0,0.0,0.0,-3.3315,-3.5218,-3.6702,-3.7087,-3.8033,-3.826,-3.7414,-3.7597,-3.7506,-3.6963,-3.6805,-3.6678,-3.6667,-3.63,-3.6116,-3.6249,-3.63,-3.6006,-3.5611,-3.5579,-3.5092,-3.4169,-3.4159,-3.3732,-3.3063,-3.3063,-3.2892,-3.2613,-3.1712,-3.1254,-3.1161,-3.0367,-3.0015,-3.0099,-3.1116,-3.1284,-3.0869,-3.0869,-3.0227,-2.9162,0.0,0.0,0.0,0.0,0.0,0.0,-2.4757,-2.4988,-2.5019,-2.4633,-2.4425,-2.4105,-2.3519,-2.3623,-2.3647,-2.3385,-2.378,-2.3784,-2.3113,-2.2924,-2.2877,-2.296,-2.3846,-2.4849,-2.599,-2.6602,-2.7222,-2.79,-2.8028,-2.831,-2.8689,-2.8795,-2.9197,-2.9856,-2.9894,-3.0407,-3.1205,-3.1165,-3.1633,-3.2444,-3.2103,-3.1982,-3.195,0.0,0.0,0.0,0.0,0.0,0.0,0.0,0.0,0.0,0.0,0.0,0.0,0.0,0.0,0.0,0.0,0.0,0.0,0.0,0.0,0.0,0.0,0.0,0.0,0.0,0.0,0.0,0.0,0.0,0.0,0.0,-3.1742,-3.3092,-3.4182,-3.6025,-3.7451,-3.7765,-3.8649,-3.899,-3.822,-3.8219,-3.7909,-3.6999,-3.6889,-3.6614,-3.6019,-3.5881,-3.5817,-3.5881,-3.5575,-3.535,-3.5228,-3.4636,-3.3962,-3.3381,-3.3054,-3.2656,-3.218,-3.218,-3.194,-3.1511,-3.1258,-3.0792,-3.0174,-2.9931,-2.9647,-2.9396,-3.0141,-3.0369,-3.0264,-3.0264,-2.9912,-2.9374,0.0,0.0,0.0,0.0,0.0,0.0,-2.4067,-2.4273,-2.4398,-2.4304,-2.412,-2.3851,-2.346,-2.34,-2.3309,-2.2999,-2.3234,-2.3188,-2.2718,-2.2569,-2.2873,-2.3722,-2.4218,-2.5101,-2.6382,-2.6873,-2.7416,-2.7952,-2.8151,-2.8383,-2.8656,-2.8754,-2.9155,-2.97,-2.981,-3.0316,-3.1037,-3.0948,-3.1326,-3.2068,-3.1947,-3.2163,-3.2604,-3.2457,-3.2196,-3.1939,-3.1701,-3.1505,-3.1348,-3.1047,0.0,0.0,0.0,0.0,0.0,0.0,0.0,0.0,0.0,0.0,0.0,0.0,0.0,0.0,0.0,0.0,0.0,0.0,0.0,0.0,0.0,0.0,0.0,0.0,-3.254,-3.3992,-3.5212,-3.6572,-3.7667,-3.8096,-3.8786,-3.9036,-3.8516,-3.8459,-3.821,-3.755,-3.7223,-3.68,-3.634,-3.6017,-3.5762,-3.5583,-3.5146,-3.4829,-3.4714,-3.3955,-3.3309,-3.2693,-3.2435,-3.1988,-3.145,-3.1251,-3.0956,-3.0697,-3.033,-2.9883,-2.9406,-2.9227,-2.8999,-2.8814,0.0,0.0,0.0,0.0,-2.9232,-2.8802,0.0,0.0,0.0,0.0,0.0,0.0,-2.3168,-2.335,-2.3629,-2.3867,-2.3808,-2.3721,-2.3579,-2.3464,-2.3223,-2.2808,-2.295,-2.2913,-2.2522,-2.2635,-2.3267,-2.4445,-2.4642,-2.5357,-2.6667,-2.7143,-2.7552,-2.7997,-2.8411,-2.8638,-2.869,-2.8901,-2.9302,-2.9721,-2.9986,-3.0485,-3.1094,-3.094,-3.1096,-3.1577,-3.1689,-3.2453,-3.3431,-3.3219,-3.2965,-3.2748,-3.2308,-3.195,-3.168,-3.1605,0.0,0.0,0.0,0.0,0.0,0.0,0.0,0.0,0.0,0.0,0.0,0.0,0.0,0.0,0.0,0.0,0.0,0.0,0.0,0.0,0.0,0.0,0.0,0.0,-3.3548,-3.4966,-3.6286,-3.7009,-3.7591,-3.8194,-3.8623,-3.8767,-3.8447,-3.8447,-3.8427,-3.8377,-3.7609,-3.7203,-3.7154,-3.6397,0.0,0.0,0.0,-3.4521,-3.415,-3.3613,-3.2949,-3.2229,-3.2119,-3.167,-3.0869,-3.041,-3.0166,-3.0078,-2.9268,-2.8887,-2.8818,-2.8447,-2.8262,-2.8276,-2.8794,-2.9026,-2.8973,-2.8668,-2.8358,-2.7942,0.0,0.0,0.0,0.0,0.0,0.0,-2.3403,-2.3535,-2.3577,-2.3388,-2.3795,-2.3863,-2.3249,-2.3264,-2.3106,-2.2541,-2.2397,-2.2384,-2.248,-2.3495,-2.4218,-2.4487,-2.5595,-2.6521,-2.7164,-2.7562,-2.8017,-2.8483,-2.8566,-2.8804,-2.9177,-2.9227,-2.9476,-2.9964,-3.0016,-3.0214,-3.0536,-3.0504,-3.0781,-3.1334,-3.1783,-3.221,-3.2676,-3.3035,-3.3262,-3.3439,-3.3568,-3.3547,-3.3432,-3.2931,-3.2771,-3.2623,-3.1748,-3.1403,0.0,0.0,0.0,0.0,0.0,0.0,0.0,0.0,0.0,0.0,0.0,0.0,0.0,0.0,0.0,0.0,0.0,0.0,0.0,-3.3341,-3.4507,-3.567,-3.6956,-3.7498,-3.7985,-3.8375,-3.8865,-3.899,-3.8619,-3.8547,-3.84,-3.8046,-3.7553,-3.7171,-3.6828,-3.626,-3.5976,-3.5898,-3.5117,-3.4658,-3.458,-3.3476,-3.2666,-3.2229,-3.1816,0.0,-3.0869,-3.041,-3.001,-2.9658,-2.9141,-2.873,-2.8408,-2.833,-2.8096,-2.7875,-2.827,-2.8451,-2.8412,-2.8015,-2.7839,-2.7653,0.0,0.0,0.0,0.0,0.0,0.0,-2.3463,-2.3658,-2.386,-2.3833,-2.4126,-2.4269,-2.4072,-2.3775,-2.3409,-2.2889,-2.2691,-2.2773,-2.3129,-2.4106,-2.4909,-2.5324,-2.6401,-2.7127,-2.7583,-2.8266,-2.8731,-2.8959,-2.9197,-2.9425,-2.9653,-2.9653,-2.9777,-2.9994,-2.9994,-3.0223,-3.0537,-3.0695,-3.1043,-3.1572,-3.2088,-3.2469,-3.2739,-3.3075,-3.3303,-3.3409,-3.3551,-3.3617,-3.3536,-3.3256,-3.3159,-3.3074,-3.254,-3.2131,-3.176,0.0,0.0,0.0,0.0,0.0,0.0,0.0,0.0,0.0,0.0,0.0,0.0,0.0,0.0,-3.0504,-3.0561,0.0,-3.3332,-3.4442,-3.5642,-3.6641,-3.749,-3.7978,-3.8324,-3.855,-3.8747,-3.8802,-3.8647,-3.8574,-3.8486,-3.8271,-3.7656,-3.7207,-3.6992,-3.6367,-3.6016,-3.6016,-3.5156,-3.4697,-3.4697,-3.3437,-3.2588,-3.2158,-3.1728,-3.1172,-3.0527,-3.0088,-2.9648,-2.9219,-2.8789,-2.8369,-2.7959,-2.7744,-2.7529,-2.7363,-2.7568,-2.7656,-2.7627,-2.7422,-2.7207,-2.6963,0.0,0.0,0.0,0.0,0.0,0.0,0.0,-2.3824,-2.4123,-2.4357,-2.4536,-2.4721,-2.4885,-2.4433,-2.3922,-2.3409,-2.3307,-2.3484,-2.3964,-2.4787,-2.563,-2.6511,-2.7223,-2.7779,-2.8222,-2.8968,-2.9393,-2.9435,-2.9808,-3.0046,-3.0129,-3.0129,-3.018,-3.0263,-3.0263,-3.047,-3.0876,-3.108,-3.1397,-3.1743,-3.2231,-3.2491,-3.264,-3.284,-3.3032,-3.3266,-3.321,-3.3207,-3.3173,-3.3173,-3.3173,-3.3161,-3.3101,-3.2721,-3.2153,-3.1187,-3.0503,0.0,0.0,0.0,0.0,0.0,0.0,0.0,0.0,-2.9504,-3.0005,-2.9884,-3.1254,-3.2335,-3.2172,-3.3476,-3.4834,-3.5635,-3.6699,-3.7568,-3.7988,-3.8359,-3.8574,-3.8574,-3.8574,-3.8574,-3.8574,-3.8574,-3.8574,-3.8574,-3.7783,-3.7295,-3.7295,-3.6484,-3.5976,-3.5898,-3.5117,-3.4658,-3.458,-3.331,-3.25,-3.2158,-3.165,-3.0976,-3.0185,-2.9766,-2.9336,-2.8887,-2.8389,-2.7978,-2.7679,-2.7109,-2.6894,-2.6885,-2.6797,-2.6768,-2.6777,-2.6865,-2.668,-2.6377,0.0,0.0,0.0,0.0,0.0,0.0,0.0,0.0,-2.4141,-2.4079,-2.4723,-2.5031,-2.4602,-2.4743,-2.4515,-2.3629,-2.3804,-2.4175,-2.4667,-2.5786,-2.6836,-2.7817,-2.8301,-2.8845,-2.9459,-2.9585,-2.9744,-2.9922,-2.9973,-3.0212,-3.0605,-3.0605,-3.0833,-3.1215,-3.1215,-3.1247,-3.1298,-3.1353,-3.1384,-3.148,-3.1743,-3.1653,-3.1317,-3.1561,-3.249,-3.3521,-3.3277,-3.317,-3.3174,-3.3174,-3.3174,-3.3154,-3.2693,-3.2557,-3.2266,-3.1215,-3.04,-2.9614,-2.8667,-2.8185,-2.8237,-2.92,-2.9476,-2.9731,0.0,-3.1436,-3.1927,-3.2529,-3.3708,-3.4549,-3.4397,-3.5459,-3.6533,-3.7012,-3.7519,-3.7998,-3.8437,-3.8545,-3.8574,-3.8574,-3.8574,-3.8574,-3.8574,-3.8574,-3.8574,-3.8574,-3.7783,-3.7295,-3.7295,-3.6484,-3.585,-3.5478,-3.4961,-3.4521,-3.415,-3.2881,-3.2217,-3.2219,-3.1348,-3.0693,-3.0185,-2.9766,-2.9336,-2.8877,-2.8086,-2.7767,-2.766,-2.6797,-2.6455,-2.6426,-2.6035,-2.583,-2.5879,-2.6318,-2.6426,-2.6338,0.0,0.0,0.0,0.0,0.0,0.0,0.0,0.0,0.0,-2.5365,-2.5698,-2.5837,-2.5632,-2.5226,-2.4767,-2.4189,-2.4664,-2.5043,-2.5125,-2.6567,-2.7545,-2.7826,-2.8804,-2.9481,-2.9728,-3.013,-3.0368,-3.0464,-3.0727,-3.0948,-3.1147,-3.1485,-3.1727,-3.1916,-3.1916,-3.2064,-3.2251,-3.2251,-3.2364,-3.2448,-3.2549,-3.2322,-3.1881,-3.176,-3.1847,-3.1973,-3.1732,-3.1706,0.0,-3.1582,-3.1482,-3.1497,-3.1296,-3.1229,-3.1035,-3.013,-2.9645,-2.9258,-2.8545,-2.8679,-2.9192,-3.0057,-3.0484,-3.1108,-3.2628,-3.3296,-3.3819,-3.4421,-3.5244,-3.5726,-3.5435,-3.6279,-3.709,-3.7266,-3.7861,-3.8369,-3.8555,-3.8359,-3.8193,-3.8193,-3.7978,-3.8027,-3.8525,-3.8574,-3.8467,-3.8213,-3.7637,-3.7187,-3.6943,-3.6123,-3.5576,-3.54,-3.4707,-3.4131,-3.3701,-3.2676,-3.2041,-3.1777,-3.0908,-3.0254,-2.9814,-2.9385,-2.8828,-2.8154,-2.7549,-2.7148,-2.6875,-2.626,-2.6006,-2.5986,-2.5762,-2.5693,-2.5713,-2.5947,-2.6006,-2.5986,0.0,0.0,0.0,0.0,0.0,0.0,0.0,0.0,0.0,0.0,-2.6647,-2.6598,-2.6427,-2.5721,-2.5135,-2.4849,-2.5366,-2.5727,-2.586,-2.7239,-2.817,-2.8332,-2.9407,-3.01,-3.0264,-3.073,-3.0957,-3.1023,-3.1355,-3.158,-3.172,-3.2266,-3.2566,-3.2695,-3.2824,-3.3015,-3.3226,-3.3226,-3.3186,-3.3106,-3.305,-3.2637,-3.206,-3.1479,-3.0884,-3.0278,-3.0242,-3.0288,-3.0242,-2.9824,-2.9709,-2.9709,-2.9709,-2.9709,-2.9585,-2.8987,-2.8833,-2.885,-2.8698,-2.9304,-3.0162,-3.1052,-3.1681,-3.253,-3.4082,-3.49,-3.548,-3.5873,-3.6425,-3.6643,-3.6308,-3.6858,-3.7295,-3.7295,-3.7822,-3.8223,-3.8223,-3.7949,-3.7754,-3.7754,-3.749,-3.7539,-3.8164,-3.8223,-3.8096,-3.7773,-3.7363,-3.6992,-3.6689,-3.5859,-3.5332,-3.5205,-3.4473,-3.3809,-3.3252,-3.2529,-3.1953,-3.1504,-3.0625,-2.9971,-2.9551,-2.9004,-2.835,-2.7689,-2.7207,-2.6777,-2.6357,-2.5869,-2.5693,-2.5693,-2.5693,-2.5693,-2.5693,-2.5693,-2.5693,-2.5693,0.0,0.0,0.0,0.0,0.0,0.0,0.0,0.0,0.0,0.0,0.0,0.0,0.0,-2.6094,-2.5793,-2.5571,-2.566,-2.604,-2.6909,-2.7731,-2.8749,-2.9988,-3.0363,-3.0875,-3.1538,-3.1368,-3.1372,-3.1578,-3.1589,-3.1829,-3.2309,-3.2842,-3.3257,-3.365,-3.4229,-3.4302,-3.4065,-3.4065,-3.3639,-3.2889,-3.2622,-3.1955,-3.1084,-3.0307,-2.9466,-2.8759,-2.9307,-2.9266,-2.8796,-2.8316,-2.8156,-2.8156,-2.8156,-2.8156,-2.8156,-2.8145,-2.8216,-2.8533,-2.9396,-3.0162,-3.0967,-3.2333,-3.3327,-3.4227,-3.5169,-3.609,-3.6738,-3.6875,-3.727,-3.7555,-3.7242,-3.7211,-3.7295,-3.7295,-3.7324,-3.7334,-3.7334,-3.7324,-3.7314,-3.7314,-3.7305,-3.7305,-3.7334,-3.7334,-3.7334,-3.7324,-3.6924,-3.668,-3.667,-3.5859,-3.5185,-3.4736,-3.4297,-3.3672,-3.2822,-3.2383,-3.1953,-3.1504,-3.0625,-2.9971,-2.9597,-2.8701,-2.8076,-2.7689,-2.7207,-2.6777,-2.6357,-2.5869,-2.5693,-2.5693,-2.5693,-2.5693,-2.5693,-2.5693,-2.5693,-2.5693,0.0,0.0,0.0,0.0,0.0,0.0,0.0,0.0,0.0,0.0,0.0,0.0,0.0,0.0,0.0,0.0,-2.639,-2.6603,-2.6722,-2.784,-2.8655,-2.897,-3.0085,-3.0835,-3.1078,-3.1401,-3.1592,-3.1653,-3.2318,-3.2724,-3.2915,-3.3738,-3.4212,-3.4381,-3.455,-3.4575,-3.4479,-3.4318,-3.395,-3.344,-3.2641,-3.188,-3.1018,-2.9793,-2.8763,-2.7875,0.0,-2.7191,-2.729,-2.6773,-2.6616,-2.6616,-2.6616,-2.6616,-2.6741,-2.7406,-2.8213,-2.9154,-3.013,-3.1177,-3.2375,-3.3741,-3.4527,-3.5283,-3.6515,-3.7032,-3.7236,-3.7326,-3.7055,-3.661,-3.5906,-3.5939,-3.5937,-3.5625,-3.6309,-3.6885,-3.6885,-3.6885,-3.6885,-3.6885,-3.6377,-3.6035,-3.6035,-3.6797,-3.7187,-3.6904,-3.6748,-3.6426,-3.585,-3.5254,-3.4736,-3.4297,-3.3867,-3.3232,-3.2383,-3.2297,-3.165,-3.0635,-2.9766,-2.9131,-2.8701,-2.8135,-2.7646,-2.7207,-2.6787,-2.6357,-2.5947,-2.5752,-2.5693,-2.5693,-2.5693,-2.5693,-2.5693,-2.5693,-2.5693,-2.5693,0.0,0.0,0.0,0.0,0.0,0.0,0.0,0.0,0.0,0.0,0.0,0.0,0.0,0.0,0.0,0.0,0.0,-2.6709,-2.6532,-2.7742,-2.8421,-2.8382,-2.9648,-3.0434,-3.0624,-3.1129,-3.1472,-3.1646,-3.2449,-3.2868,-3.288,-3.3915,-3.4392,-3.4404,-3.4602,-3.4581,-3.4376,-3.4234,-3.3811,-3.3247,-3.2409,-3.1494,-3.0589,-2.926,-2.8041,0.0,-2.6087,-2.582,-2.5792,-2.5502,-2.5399,-2.5399,-2.5399,-2.574,-2.6324,-2.7081,-2.8349,-2.9756,-3.0677,-3.2043,-3.3492,-3.4693,-3.5583,-3.6401,-3.7291,-3.7498,-3.7446,-3.7281,-3.652,-3.5711,-3.4986,-3.4759,-3.4639,-3.4502,-3.5185,-3.585,-3.6172,-3.6211,-3.6269,-3.6426,-3.582,-3.5391,-3.5391,-3.6133,-3.6504,-3.623,-3.6357,-3.6133,-3.543,-3.4951,-3.4512,-3.4082,-3.3506,-3.2871,-3.2238,-3.2012,-3.1279,-2.9961,-2.9258,-2.8701,-2.8281,-2.7861,-2.7432,-2.6992,-2.6572,-2.6143,-2.5693,-2.5693,-2.5693,-2.5693,-2.5693,-2.5693,-2.5693,-2.5693,-2.5693,-2.5693,0.0,0.0,0.0,0.0,0.0,0.0,0.0,0.0,0.0,0.0,0.0,0.0,0.0,0.0,0.0,0.0,0.0,0.0,-2.6424,-2.7371,-2.8051,-2.8259,-2.9041,-2.9682,-3.0191,-3.0525,-3.0913,-3.1392,-3.1944,-3.222,-3.2244,-3.3346,-3.3838,-3.3862,-3.4342,-3.4278,-3.3838,-3.3789,-3.3264,-3.2325,-3.1743,-3.0842,-2.9678,-2.8647,-2.7419,-2.6186,-2.5734,-2.5119,-2.4497,-2.4497,-2.4528,-2.4569,-2.459,-2.5575,-2.6812,-2.7278,-2.8659,-3.0305,-3.1257,-3.2799,-3.4362,-3.5293,-3.6504,-3.7467,-3.7488,-3.7457,-3.7291,-3.6794,-3.582,-3.4835,-3.4342,-3.373,-3.3457,-3.3877,-3.4014,-3.4375,-3.5234,-3.54,-3.5576,-3.5976,-3.5644,-3.5391,-3.5391,-3.5391,-3.5391,-3.5391,-3.5781,-3.583,-3.5381,-3.4941,-3.4492,-3.4053,-3.3232,-3.2598,-3.2178,-3.167,-3.0801,-2.956,-2.9101,-2.8682,-2.8281,-2.7832,-2.7402,-2.6992,-2.6543,-2.6123,-2.5693,-2.5693,-2.5693,-2.5693,-2.5693,-2.5693,-2.5693,-2.5693,-2.5693,-2.5693,0.0,0.0,0.0,0.0,0.0,0.0,0.0,0.0,0.0,0.0,0.0,0.0,0.0,0.0,0.0,0.0,0.0,0.0,-2.653,-2.6956,-2.7351,-2.7767,-2.8437,-2.8889,-2.9024,-2.9355,-2.9577,-2.9699,-3.0638,-3.1101,-3.1126,-3.2198,-3.2698,-3.2711,-3.2845,-3.2828,-3.2681,-3.25,-3.2156,-3.1741,-3.0842,-3.0078,-2.9353,-2.8054,-2.7129,-2.6401,-2.5594,-2.5094,-2.4786,-2.4583,-2.4941,-2.5595,-2.5937,-2.6993,-2.8183,-2.8649,-3.0087,-3.1795,-3.3047,-3.4207,-3.5387,-3.6649,-3.697,-3.7063,-3.7415,-3.696,-3.6246,-3.5449,-3.4605,-3.3578,-3.216,-3.2147,-3.2263,-3.2148,-3.3242,-3.4258,-3.4805,-3.5449,-3.5898,-3.6006,-3.5644,-3.5391,-3.5391,-3.5391,-3.5391,-3.5391,-3.5781,-3.5684,-3.4922,-3.4766,-3.4355,-3.3613,-3.3066,-3.2598,-3.2178,-3.0771,-2.9902,-2.9616,-2.8809,-2.8398,-2.8271,-2.7519,-2.7119,-2.6973,-2.6181,-2.5791,-2.5693,-2.5693,-2.5693,-2.5693,-2.5693,-2.5693,-2.5693,-2.5693,-2.5693,-2.5693,0.0,0.0,0.0,0.0,0.0,0.0,0.0,0.0,0.0,0.0,0.0,0.0,0.0,0.0,0.0,0.0,0.0,0.0,0.0,-2.6355,-2.6677,-2.7067,-2.7619,-2.8008,-2.8234,-2.86,-2.8773,-2.8773,-2.9541,-2.9923,-2.9935,-3.0803,-3.1212,-3.1212,-3.1212,-3.1158,-3.1033,-3.0866,-3.0699,0.0,0.0,-2.9435,-2.8754,-2.8134,-2.7313,-2.6488,-2.5877,-2.5455,-2.5291,-2.5796,-2.6227,-2.6646,-2.7251,-2.8411,-2.9611,-3.0077,-3.1505,-3.3141,-3.4113,-3.518,-3.6266,-3.725,-3.7301,-3.7125,-3.7177,-3.6328,-3.52,-3.4093,-3.3104,-3.2058,-3.0944,-3.099,-3.1353,-3.1653,-3.2655,-3.3764,-3.456,-3.5127,-3.5586,-3.5976,-3.5644,-3.5391,-3.5391,-3.5391,-3.5391,-3.5391,-3.5615,-3.5439,-3.4736,-3.4521,-3.4121,-3.3447,-3.2832,-3.2226,-3.1611,-3.0311,-2.9626,-2.9616,-2.8701,-2.8291,-2.8271,-2.7607,-2.7197,-2.6982,-2.6309,-2.5869,-2.5693,-2.5693,-2.5693,-2.5693,-2.5693,-2.5693,-2.5693,-2.5693,-2.5693,-2.5693,0.0,0.0,0.0,0.0,0.0,0.0,0.0,0.0,0.0,0.0,0.0,0.0,0.0,0.0,0.0,0.0,0.0,0.0,0.0,0.0,-2.6112,-2.6349,-2.669,-2.7105,-2.761,-2.7959,-2.8157,-2.8198,-2.8596,-2.8737,-2.8749,-2.934,-2.9604,-2.9604,-2.9578,-2.945,-2.9245,-2.9245,-2.9128,-2.8959,-2.9187,-2.8807,-2.8136,0.0,-2.7724,-2.6652,-2.6388,-2.6065,-2.5975,-2.743,-2.7755,-2.7662,-2.8659,-2.9891,-3.106,-3.1578,-3.2923,-3.4362,-3.4951,-3.5945,-3.6991,-3.7394,-3.7405,-3.7177,-3.6649,-3.5428,-3.4031,-3.2727,-3.1491,-3.0547,-3.001,-3.011,-3.0579,-3.1503,-3.2167,-3.3095,-3.445,-3.4717,-3.5098,-3.5918,-3.5703,-3.5478,-3.5478,-3.5478,-3.5459,-3.54,-3.5332,-3.5127,-3.4717,-3.4297,-3.3818,-3.3271,-3.249,-3.1699,-3.0898,-3.001,-2.9626,-2.9616,-2.8701,-2.8291,-2.8281,-2.7861,-2.7432,-2.6992,-2.6572,-2.6143,-2.5693,-2.5693,-2.5693,-2.5693,-2.5693,-2.5693,-2.5693,-2.5693,-2.5693,-2.5693,0.0,0.0,0.0,0.0,0.0,0.0,0.0,0.0,0.0,0.0,-2.9629,-2.8423,0.0,0.0,0.0,0.0,0.0,0.0,0.0,0.0,0.0,-2.6241,-2.6185,-2.6322,-2.6646,-2.6716,-2.6912,-2.7237,-2.7739,-2.7994,-2.8007,-2.8439,-2.8644,-2.8644,-2.8484,-2.8361,-2.8324,-2.8324,-2.8213,-2.8052,-2.8076,-2.8071,-2.8031,-2.7906,0.0,0.0,-2.6976,-2.665,-2.6631,-2.783,-2.8278,-2.8669,-3.0367,-3.1578,-3.254,-3.3358,-3.4352,-3.5366,-3.6215,-3.6898,-3.7394,-3.7477,-3.6918,-3.6132,-3.5304,-3.3762,-3.223,-3.1247,-3.0252,-2.9363,-2.8666,-2.9143,-2.9793,-3.027,-3.1642,-3.2986,-3.4048,-3.4814,-3.5459,-3.5957,-3.5957,-3.5908,-3.5908,-3.5908,-3.5771,-3.542,-3.5039,-3.4785,-3.4707,-3.4297,-3.3555,-3.2422,-3.1894,-3.1396,-3.0898,-3.001,-2.9626,-2.9616,-2.8701,-2.8291,-2.8281,-2.7861,-2.7432,-2.6992,-2.6572,-2.6143,-2.5693,-2.5693,-2.5693,-2.5693,-2.5693,-2.5693,-2.5693,-2.5693,-2.5693,-2.5693,0.0,0.0,0.0,0.0,0.0,0.0,0.0,-3.0731,-3.0627,-3.0956,-2.954,-2.858,-2.8815,-2.7865,-2.7093,0.0,0.0,0.0,0.0,0.0,0.0,0.0,-2.6172,-2.6421,-2.7173,-2.7027,-2.7111,-2.7523,0.0,-2.7725,-2.7533,-2.776,-2.7783,-2.7656,-2.7468,-2.7384,-2.7384,-2.7278,-2.722,-2.7139,-2.7426,-2.768,-2.7901,0.0,0.0,0.0,-2.7719,-2.7425,-2.7352,-2.8758,-2.9205,-2.9464,-3.1197,-3.2499,-3.3555,-3.4287,-3.5242,-3.6235,-3.668,-3.7322,-3.7798,-3.756,-3.6794,-3.5811,-3.4662,-3.2985,-3.1295,-3.0201,-2.9228,-2.8475,-2.8109,-2.8562,-2.9237,-2.9763,-3.0987,-3.2207,-3.3256,-3.415,-3.4951,-3.5615,-3.5889,-3.6016,-3.6016,-3.6016,-3.584,-3.543,-3.4961,-3.46,-3.4385,-3.376,-3.3027,-3.2258,-3.1738,-3.1201,-3.0537,-2.9893,-2.9453,-2.9219,-2.8594,-2.8291,-2.8281,-2.8086,-2.7637,-2.7002,-2.6807,-2.6348,-2.5693,-2.5693,-2.5693,-2.5693,-2.5693,-2.5693,-2.5693,-2.5693,-2.5693,-2.5693,0.0,0.0,0.0,0.0,0.0,0.0,0.0,-3.1047,-3.0717,-3.0717,-2.9729,-2.9179,-2.9605,-2.8315,-2.7409,0.0,0.0,0.0,0.0,0.0,0.0,0.0,0.0,0.0,-2.7783,0.0,0.0,-2.8157,-2.8072,0.0,0.0,0.0,0.0,0.0,-2.693,-2.6782,-2.6748,-2.6624,-2.6521,0.0,0.0,-2.7512,0.0,0.0,0.0,0.0,0.0,-2.8047,-2.7866,-2.9316,-2.9717,-2.9785,-3.1304,-3.2732,-3.3927,-3.4743,-3.5738,-3.6701,-3.6898,-3.756,-3.8046,-3.7488,-3.6649,-3.5583,-3.4113,-3.2375,-3.0644,-2.9425,-2.8421,-2.7779,-2.7779,-2.8152,-2.8674,-2.9399,-3.0248,-3.1217,-3.2458,-3.3315,-3.4131,-3.501,-3.5566,-3.5879,-3.5879,-3.5879,-3.5703,-3.5273,-3.4658,-3.415,-3.3818,-3.3076,-3.2471,-3.2041,-3.1611,-3.0996,-3.0205,-2.9785,-2.9346,-2.8916,-2.8496,-2.8291,-2.8291,-2.8203,-2.7744,-2.7012,-2.6914,-2.6445,-2.5693,-2.5693,-2.5693,-2.5693,-2.5693,-2.5693,-2.5693,-2.5693,-2.5693,-2.5693,0.0,0.0,0.0,0.0,0.0,0.0,0.0,-3.1451,-3.1406,-3.1406,-3.0791,-3.0357,-3.0374,-2.8712,-2.7778,0.0,0.0,0.0,0.0,0.0,0.0,0.0,0.0,0.0,0.0,0.0,0.0,-2.8739,-2.8707,0.0,0.0,0.0,0.0,0.0,0.0,-2.7154,-2.6973,-2.6748,0.0,0.0,0.0,0.0,0.0,0.0,0.0,0.0,0.0,-2.8279,-2.7977,-2.8593,-2.893,-2.9291,-3.0642,-3.1889,-3.3182,-3.4869,-3.5749,-3.6359,-3.7208,-3.7798,-3.7974,-3.7084,-3.6173,-3.5024,-3.3254,-3.1433,-2.9839,-2.8876,-2.7955,-2.7372,-2.7372,-2.7686,-2.8159,-2.8757,-2.9429,-3.0354,-3.1781,-3.2546,-3.3232,-3.4092,-3.4941,-3.5449,-3.5449,-3.5449,-3.5264,-3.4795,-3.3652,-3.2949,-3.292,-3.248,-3.2021,-3.1592,-3.1172,-3.0703,-3.0205,-2.9785,-2.9346,-2.8916,-2.8496,-2.8291,-2.8281,-2.79,-2.7461,-2.6992,-2.6611,-2.6172,-2.5693,-2.5693,-2.5693,-2.5693,-2.5693,-2.5693,-2.5693,-2.5693,-2.5693,-2.5693,0.0,0.0,0.0,0.0,0.0,0.0,-3.1539,-3.1152,-3.0883,-3.0883,-3.0357,-3.0088,-3.0462,-2.9475,-2.8891,-2.9107,0.0,0.0,0.0,0.0,0.0,0.0,0.0,0.0,0.0,0.0,-2.8532,-2.9591,-2.9467,0.0,0.0,0.0,0.0,0.0,0.0,-2.7643,-2.7443,-2.704,0.0,0.0,0.0,0.0,0.0,0.0,0.0,0.0,0.0,0.0,-2.8832,-2.9416,-2.9361,-2.921,-2.997,-3.0631,-3.1495,-3.3575,-3.4714,-3.55,-3.6411,-3.7001,-3.726,-3.6898,-3.5904,-3.4621,-3.3089,-3.1309,-2.9735,-2.8804,-2.7893,-2.7309,-2.7309,-2.7455,-2.7641,-2.7982,-2.8462,-2.9185,-3.0194,-3.121,-3.2232,-3.3227,-3.4072,-3.4697,-3.4951,-3.498,-3.4795,-3.4355,-3.3369,-3.2685,-3.2432,-3.2012,-3.1699,-3.1523,-3.084,-3.0264,-2.9824,-2.9394,-2.8965,-2.8535,-2.8369,-2.8291,-2.8281,-2.7861,-2.7432,-2.6992,-2.6572,-2.6143,-2.5693,-2.5693,-2.5693,-2.5693,-2.5693,-2.5693,-2.5693,-2.5693,-2.5693,-2.5693,0.0,0.0,0.0,0.0,0.0,-3.1813,-3.1626,-3.1149,-3.0806,-3.0806,-3.0432,-3.0328,-3.0761,-3.0417,-3.0163,-3.0163,-2.9831,0.0,0.0,0.0,0.0,0.0,0.0,0.0,0.0,0.0,-2.9348,-3.0312,-3.0129,-2.9901,0.0,0.0,-2.9212,-2.9008,0.0,0.0,0.0,0.0,0.0,0.0,0.0,0.0,0.0,0.0,0.0,0.0,0.0,0.0,0.0,0.0,0.0,-2.9041,-2.9317,-2.944,-2.9943,-3.2172,-3.3592,-3.4608,-3.5459,-3.6142,-3.6566,-3.6432,-3.5469,-3.4196,-3.283,-3.1102,-2.957,-2.8773,-2.7893,-2.7309,-2.7309,-2.7309,-2.7359,-2.757,-2.7819,-2.8299,-2.921,-3.025,-3.1268,-3.2262,-3.3266,-3.3994,-3.4297,-3.4443,-3.4287,-3.374,-3.3018,-3.2422,-3.2002,-3.1572,-3.1328,-3.1328,-3.0596,-3.0,-2.957,-2.9141,-2.8711,-2.8291,-2.8291,-2.8232,-2.8096,-2.7666,-2.7236,-2.6807,-2.6377,-2.6025,-2.5693,-2.5693,-2.5693,-2.5693,-2.5693,-2.5693,-2.5693,-2.5693,-2.5693,-2.5693,0.0,0.0,0.0,0.0,0.0,0.0,-3.1813,-3.1626,-3.1496,-3.1496,-3.1481,-3.1481,-3.1496,-3.1481,-3.1481,-3.1481,-3.0328,0.0,0.0,0.0,0.0,0.0,0.0,0.0,0.0,0.0,-3.0337,-3.0791,-3.0672,-3.0477,-3.0282,-2.9931,-2.9699,-2.9571,0.0,0.0,0.0,0.0,0.0,0.0,0.0,0.0,0.0,0.0,0.0,0.0,0.0,0.0,0.0,0.0,0.0,0.0,0.0,-2.8538,-2.8718,-3.0826,-3.2344,-3.3596,-3.4577,-3.5428,-3.6008,-3.5552,-3.4755,-3.372,-3.2354,-3.0626,-2.9177,-2.8711,-2.7893,-2.7309,-2.7309,-2.7309,-2.7455,-2.7852,-2.7701,-2.7983,-2.9338,-2.9818,-3.0363,-3.1187,-3.2566,-3.3428,-3.3428,-3.3828,-3.3721,-3.2871,-3.2412,-3.1982,-3.1543,-3.1123,-3.0898,-3.0898,-3.0439,-3.0,-2.957,-2.9141,-2.8711,-2.8291,-2.8291,-2.8076,-2.7708,-2.7217,-2.6797,-2.6367,-2.5937,-2.5693,-2.5693,-2.5693,-2.5693,-2.5693,-2.5693,-2.5693,-2.5693,-2.5693,-2.5693,-2.5693,0.0,0.0,0.0,0.0,0.0,0.0,0.0,-3.1626,-3.1511,-3.1511,-3.1511,-3.1511,-3.1511,-3.1511,-3.1511,-3.1511,-3.1122,0.0,0.0,0.0,0.0,0.0,0.0,0.0,0.0,-3.0165,-3.0538,-3.1146,-3.1014,-3.0925,-3.0821,-3.0507,-3.0326,-3.028,-2.962,-2.9117,0.0,0.0,0.0,0.0,0.0,0.0,-2.9792,0.0,0.0,0.0,0.0,0.0,0.0,0.0,0.0,0.0,0.0,0.0,0.0,-2.9065,-3.038,-3.1733,-3.2654,-3.3337,-3.3834,-3.3989,-3.3348,-3.2406,-3.135,-3.017,-2.9083,-2.8297,-2.7676,-2.7309,-2.7309,-2.7309,-2.7351,-2.7448,-2.7421,-2.7657,-2.8513,-2.9221,-3.0063,-3.1156,-3.2556,-3.3418,-3.3418,-3.3545,-3.3398,-3.2832,-3.2412,-3.1982,-3.1543,-3.1123,-3.0742,-3.043,-2.999,-2.956,-2.9131,-2.8701,-2.8428,-2.8291,-2.8291,-2.8066,-2.7699,-2.7217,-2.6787,-2.6367,-2.5879,-2.5693,-2.5693,-2.5693,-2.5693,-2.5693,-2.5693,-2.5693,-2.5693,-2.5693,-2.5693,-2.5693,0.0,0.0,0.0,0.0,0.0,0.0,0.0,-3.1727,-3.1597,-3.1511,-3.1511,-3.1511,-3.1511,-3.1511,-3.1511,-3.1511,-3.1511,0.0,0.0,0.0,0.0,0.0,0.0,0.0,-3.0507,-3.0663,-3.0978,-3.138,-3.1234,-3.119,-3.1161,-3.091,-3.0732,-3.0568,-3.0083,-2.962,0.0,0.0,0.0,0.0,0.0,0.0,-2.9792,0.0,0.0,0.0,0.0,0.0,0.0,0.0,0.0,0.0,0.0,0.0,0.0,0.0,-2.8817,-2.988,-3.0967,-3.1733,-3.224,-3.2333,-3.194,-3.1288,-3.0377,-2.9446,-2.8618,-2.8038,-2.7572,-2.7309,-2.7309,-2.7309,-2.7309,-2.7309,-2.7444,-2.772,-2.8275,-2.9156,-3.0281,-3.1651,-3.2615,-3.3242,-3.3408,-3.3418,-3.3184,-3.2607,-3.2314,-3.1914,-3.1318,-3.0869,-3.042,-2.9971,-2.9707,-2.9365,-2.8926,-2.8506,-2.8291,-2.8291,-2.8135,-2.7832,-2.7402,-2.6973,-2.6543,-2.6133,-2.581,-2.5693,0.0,-2.5693,-2.5693,-2.5693,-2.5693,-2.5693,-2.5693,-2.5693,-2.5693,-2.5693,0.0,0.0,0.0,0.0,0.0,0.0,0.0,-3.1898,-3.1727,-3.1539,-3.1511,-3.1511,-3.1511,-3.1511,-3.1511,-3.1511,0.0,0.0,0.0,0.0,0.0,0.0,0.0,0.0,-3.0597,-3.1182,-3.1511,-3.1511,-3.138,-3.1336,-3.1381,-3.1264,-3.1043,-3.0773,-3.0547,-3.0074,0.0,0.0,0.0,0.0,0.0,0.0,0.0,0.0,0.0,0.0,0.0,0.0,0.0,0.0,0.0,0.0,0.0,0.0,0.0,0.0,0.0,0.0,0.0,-3.047,-3.1081,-3.0646,-3.0543,-3.0305,-2.9415,-2.8545,0.0,-2.7883,-2.7552,-2.7309,-2.7309,-2.7309,-2.732,-2.7351,-2.7655,-2.811,-2.8638,-2.9701,-3.0939,-3.2505,-3.2794,-3.306,-3.3379,-3.3418,-3.3076,-3.2226,-3.2229,-3.1797,-3.0937,-3.0449,-3.0,-2.9636,-2.9597,-2.9316,-2.8877,-2.8486,-2.8281,-2.8242,-2.7851,-2.7422,-2.6953,-2.6562,-2.6152,-2.5693,-2.5693,-2.5693,-2.5693,-2.5693,-2.5693,-2.5693,-2.5693,-2.5693,-2.5693,-2.5693,-2.5693,-2.5693,0.0,0.0,0.0,0.0,0.0,0.0,0.0,0.0,0.0,0.0,-3.1511,-3.1511,-3.1511,-3.1511,-3.1511,0.0,0.0,0.0,0.0,0.0,0.0,0.0,0.0,0.0,-3.1271,-3.1421,-3.1511,-3.1511,-3.1467,-3.1735,-3.2228,-3.2095,-3.2181,-3.2423,-3.2128,-3.1433,0.0,0.0,0.0,0.0,0.0,0.0,0.0,0.0,0.0,0.0,-2.9891,-3.003,0.0,0.0,0.0,0.0,0.0,0.0,0.0,0.0,-2.7704,-2.7537,-2.7859,0.0,-2.9239,-2.9125,-2.9104,-2.8949,0.0,-2.8079,-2.7821,-2.7479,-2.7382,-2.7309,-2.7309,-2.7309,-2.7413,-2.7717,-2.7852,-2.8328,-2.9508,-3.1168,-3.2547,-3.3304,-3.3544,-3.3687,-3.3786,-3.3544,-3.3076,-3.2226,-3.2229,-3.1797,-3.0937,-3.0449,-3.0,-2.9636,-2.9248,-2.8867,-2.8447,-2.834,-2.8135,-2.7812,-2.7767,-2.7266,-2.6533,-2.6435,-2.6152,-2.5693,-2.5693,-2.5693,-2.5693,-2.5693,-2.5693,-2.5693,-2.5693,-2.5693,-2.5693,-2.5693,-2.5693,-2.5693,0.0,0.0,0.0,0.0,0.0,0.0,0.0,0.0,0.0,0.0,0.0,-3.1511,-3.1511,-3.1511,0.0,0.0,0.0,0.0,0.0,0.0,0.0,0.0,0.0,-3.1511,-3.1511,-3.1511,-3.1511,-3.1511,-3.1511,-3.1839,-3.2512,-3.2437,-3.2674,-3.3112,-3.2706,-3.2209,0.0,0.0,0.0,0.0,-3.0442,0.0,0.0,0.0,0.0,0.0,-2.9792,-2.9961,0.0,-3.0163,-3.0145,-3.0045,0.0,0.0,0.0,0.0,-2.7678,-2.7309,-2.7309,-2.7769,-2.8245,-2.8048,-2.8142,-2.8173,-2.7717,-2.7624,-2.7552,-2.7351,-2.7309,-2.7309,-2.7309,-2.7427,-2.7645,-2.7834,-2.8276,-2.9042,-3.0429,-3.1938,-3.3074,-3.3534,-3.389,-3.411,-3.411,-3.3859,-3.3326,-3.247,-3.2289,-3.1797,-3.0937,-3.0264,-2.9805,-2.9636,-2.8965,-2.8525,-2.8291,-2.8096,-2.7943,-2.7718,-2.7266,-2.6836,-2.6387,-2.6182,-2.5967,-2.5693,-2.5693,-2.5693,-2.5693,-2.5693,-2.5693,-2.5693,-2.5693,-2.5693,-2.5693,-2.5693,-2.5693,-2.5693,0.0,0.0,0.0,0.0,0.0,0.0,0.0,0.0,0.0,0.0,0.0,0.0,0.0,0.0,0.0,0.0,0.0,0.0,0.0,0.0,0.0,0.0,-3.1511,-3.1511,-3.1511,-3.1511,-3.1511,-3.1511,-3.16,-3.1989,-3.2662,-3.2766,-3.3079,-3.3502,-3.303,-3.277,-3.2715,-3.2187,-3.1809,-3.1556,-3.0949,0.0,0.0,0.0,0.0,0.0,0.0,0.0,0.0,-2.9945,-2.9923,-2.9863,-2.9408,0.0,0.0,0.0,0.0,0.0,-2.7289,-2.7541,-2.7728,-2.7403,-2.7541,-2.7728,-2.7392,-2.7309,-2.7309,-2.7309,-2.7309,-2.733,-2.7392,-2.7665,-2.7997,-2.8204,-2.9073,-3.016,-3.1412,-3.2446,-3.3246,-3.3755,-3.4166,-3.4485,-3.4485,-3.405,-3.3495,-3.2773,-3.2342,-3.1689,-3.083,-3.001,-2.9597,-2.9473,-2.8701,-2.8262,-2.8193,-2.7894,-2.765,-2.7513,-2.6738,-2.6357,-2.6279,-2.5908,-2.5693,-2.5693,-2.5693,-2.5693,-2.5693,-2.5693,-2.5693,-2.5693,-2.5693,-2.5693,-2.5693,-2.5693,-2.5693,-2.5693,0.0,0.0,0.0,0.0,0.0,0.0,0.0,0.0,0.0,0.0,0.0,0.0,0.0,0.0,0.0,0.0,0.0,0.0,0.0,0.0,0.0,-3.1511,-3.1511,-3.1511,-3.1511,-3.1511,-3.1511,-3.1511,-3.2064,-3.2706,-3.3365,-3.3918,-3.4373,-3.464,-3.4276,-3.3863,-3.3429,-3.2813,-3.2191,-3.1556,-3.0949,0.0,0.0,0.0,0.0,0.0,0.0,0.0,0.0,-2.9902,-2.9675,-2.9302,-2.8935,0.0,0.0,0.0,0.0,0.0,-2.7195,-2.7361,-2.7392,-2.733,-2.7361,-2.7392,-2.732,-2.7309,-2.7309,-2.7309,-2.7309,-2.7423,-2.7759,-2.7872,-2.8307,-2.9487,-3.077,-3.1771,-3.238,-3.33,-3.4075,-3.4539,-3.4739,-3.4797,-3.4797,-3.3967,-3.3178,-3.2743,-3.2006,-3.123,-3.0351,-2.9834,-2.9404,-2.9033,-2.8545,-2.8125,-2.7816,-2.7748,-2.7356,-2.6582,-2.6455,-2.6191,-2.5791,-2.5713,-2.5693,-2.5693,-2.5693,-2.5693,-2.5693,-2.5693,-2.5693,-2.5693,-2.5693,-2.5693,-2.5693,-2.5693,-2.5693,-2.5693,0.0,0.0,0.0,0.0,0.0,0.0,0.0,0.0,0.0,0.0,0.0,0.0,0.0,0.0,0.0,0.0,0.0,0.0,0.0,0.0,-3.1511,-3.1511,-3.1511,-3.1511,-3.1511,-3.1511,-3.1675,-3.2034,-3.2333,-3.3036,-3.4038,-3.4726,-3.4996,-3.4902,-3.4735,-3.4346,-3.3709,-3.3248,-3.2596,-3.1813,0.0,0.0,0.0,0.0,0.0,0.0,0.0,0.0,0.0,0.0,-2.9363,-2.9099,-2.846,0.0,0.0,0.0,0.0,0.0,-2.6874,-2.7123,-2.7309,-2.7309,-2.7309,-2.7309,-2.7309,-2.7309,-2.7309,-2.7309,-2.7448,-2.7686,-2.7883,-2.8328,-2.9042,-3.018,-3.1516,-3.2432,-3.2638,-3.372,-3.4577,-3.4795,-3.4819,-3.4882,-3.4882,-3.3852,-3.3055,-3.2625,-3.1929,-3.1133,-3.0244,-2.9795,-2.9365,-2.8926,-2.8291,-2.7744,-2.7314,-2.709,-2.6777,-2.6387,-2.6152,-2.5937,-2.5693,-2.5693,-2.5693,-2.5693,-2.5693,-2.5693,-2.5693,-2.5693,-2.5693,-2.5693,-2.5693,-2.5693,-2.5693,-2.5693,-2.5693,-2.5693,0.0,0.0,0.0,0.0,0.0,0.0,0.0,0.0,0.0,0.0,0.0,0.0,0.0,0.0,0.0,0.0,0.0,0.0,0.0,-3.1511,-3.1511,-3.1511,-3.1511,-3.1511,-3.1511,-3.1645,-3.1989,-3.2512,-3.2826,-3.3574,-3.4758,-3.525,-3.5294,-3.4902,-3.4902,-3.4549,-3.3862,-3.3628,-3.3068,-3.2235,0.0,0.0,0.0,0.0,0.0,0.0,0.0,0.0,0.0,0.0,0.0,0.0,0.0,0.0,0.0,-2.6546,-2.634,-2.6299,-2.6563,-2.6874,-2.7164,-2.7278,-2.7309,-2.7309,-2.7309,-2.7382,-2.7417,-2.7417,-2.7769,-2.8121,-2.8224,-2.9094,-3.0056,-3.0874,-3.2054,-3.2913,-3.3027,-3.4031,-3.4816,-3.4816,-3.4816,-3.4774,-3.4671,-3.3637,-3.2773,-3.2399,-3.1623,-3.083,-2.9941,-2.959,-2.9219,-2.8789,-2.8057,-2.7461,-2.7021,-2.6602,-2.6338,-2.623,-2.5849,-2.5693,-2.5693,-2.5693,-2.5693,-2.5693,-2.5693,-2.5693,-2.5693,-2.5693,-2.5693,-2.5693,-2.5693,-2.5693,-2.5693,-2.5693,-2.5693,-2.5693,0.0,0.0,0.0,0.0,0.0,0.0,0.0,0.0,0.0,0.0,0.0,0.0,0.0,0.0,0.0,0.0,0.0,0.0,0.0,-3.1511,-3.1511,-3.1511,-3.1511,-3.1511,-3.1511,-3.2108,-3.2437,-3.2512,-3.3739,-3.4711,-3.5429,-3.5489,-3.5294,-3.4902,-3.4902,-3.4549,-3.389,-3.4072,-3.367,-3.2881,-3.214,0.0,0.0,0.0,0.0,0.0,0.0,0.0,0.0,0.0,0.0,0.0,0.0,0.0,-2.6008,-2.5968,-2.5637,-2.5513,-2.6341,-2.6635,-2.677,-2.7195,-2.7309,-2.7309,-2.7309,-2.7583,-2.7872,-2.7872,-2.8245,-2.869,-2.9125,-3.0315,-3.1381,-3.1802,-3.2727,-3.3482,-3.3906,-3.4484,-3.4816,-3.4816,-3.4816,-3.465,-3.4165,-3.3179,-3.2379,-3.1868,-3.0873,-2.9912,-2.9062,-2.8984,-2.8769,-2.835,-2.79,-2.7461,-2.7021,-2.6602,-2.6182,-2.5732,-2.5703,-2.5693,-2.5693,-2.5693,-2.5693,-2.5693,-2.5693,-2.5693,-2.5693,-2.5693,-2.5693,-2.5693,-2.5693,-2.5693,-2.5693,-2.5693,-2.5693,-2.5693,0.0,0.0,0.0,0.0,0.0,0.0,0.0,0.0,0.0,0.0,0.0,0.0,0.0,0.0,0.0,0.0,0.0,0.0,0.0,-3.1511,-3.1511,-3.1511,-3.1511,-3.1705,-3.2108,-3.2363,-3.2916,-3.3739,-3.4556,-3.5073,-3.5326,-3.518,-3.5016,-3.4783,-3.465,-3.4346,-3.389,-3.3972,-3.3629,-3.2976,-3.2565,-3.1915,0.0,0.0,0.0,0.0,0.0,0.0,0.0,0.0,-2.8816,-2.8351,-2.747,-2.658,-2.5844,-2.5552,-2.5343,-2.5261,-2.5647,-2.6144,-2.6656,-2.6832,-2.7092,-2.7382,-2.7614,-2.78,-2.8007,-2.8297,-2.8721,-2.927,-3.0025,-3.0833,-3.1526,-3.1915,-3.2789,-3.3441,-3.3617,-3.41,-3.4391,-3.4391,-3.4132,-3.3731,-3.3275,-3.2235,-3.1445,-3.1003,-3.0297,-2.9551,-2.8945,-2.8916,-2.8603,-2.792,-2.749,-2.706,-2.6631,-2.6201,-2.5908,-2.5693,-2.5693,-2.5693,-2.5693,-2.5693,-2.5693,-2.5693,-2.5693,-2.5693,-2.5693,-2.5693,-2.5693,-2.5693,-2.5693,-2.5693,-2.5693,-2.5693,-2.5693,-2.5693,0.0,0.0,0.0,0.0,0.0,0.0,0.0,0.0,0.0,0.0,0.0,0.0,0.0,0.0,0.0,0.0,0.0,0.0,-3.1511,-3.1511,-3.1511,-3.1511,-3.1511,-3.187,-3.2706,-3.2721,-3.3258,-3.4409,-3.4821,-3.5049,-3.5049,-3.485,-3.4635,-3.4414,-3.4264,-3.4005,-3.3633,-3.367,-3.3467,-3.3033,-3.2725,-3.2108,0.0,0.0,0.0,0.0,0.0,0.0,0.0,0.0,-2.8816,-2.8351,-2.747,-2.658,-2.5812,-2.5327,-2.5091,-2.5003,-2.5148,-2.5782,-2.6428,-2.6573,-2.6957,-2.7455,-2.8007,-2.8142,-2.8317,-2.8918,-2.9415,-2.9973,-3.076,-3.1164,-3.1526,-3.1915,-3.2789,-3.3379,-3.3379,-3.3772,-3.4069,-3.3924,-3.3451,-3.2996,-3.2494,-3.1523,-3.0731,-3.0299,-2.9697,-2.918,-2.874,-2.8594,-2.8262,-2.7738,-2.7119,-2.668,-2.6387,-2.5908,-2.5693,-2.5693,-2.5693,-2.5693,-2.5693,-2.5693,-2.5693,-2.5693,-2.5693,-2.5693,-2.5693,-2.5693,-2.5693,-2.5693,-2.5693,-2.5693,-2.5693,-2.5693,-2.5693,-2.5693,0.0,0.0,0.0,0.0,0.0,0.0,0.0,0.0,0.0,0.0,0.0,0.0,0.0,0.0,0.0,0.0,0.0,0.0,-3.1511,-3.1511,-3.1511,-3.1511,-3.1511,-3.2035,-3.3162,-3.3207,-3.3533,-3.4203,-3.4526,-3.4698,-3.4698,-3.4481,-3.4162,-3.3805,-3.3805,-3.3479,-3.303,-3.3193,-3.3236,-3.3131,-3.2606,-3.214,-3.1714,0.0,0.0,0.0,0.0,0.0,0.0,0.0,-2.8816,-2.8351,-2.747,-2.658,-2.5812,-2.5327,-2.4871,-2.46,-2.5055,-2.5544,-2.6034,-2.6501,-2.6957,-2.7537,-2.84,-2.8618,-2.8876,-2.9808,-3.0367,-3.0833,-3.1288,-3.1381,-3.1526,-3.1915,-3.2789,-3.3368,-3.3368,-3.3762,-3.3935,-3.342,-3.2985,-3.2483,-3.2019,-3.1055,-3.0279,-2.9826,-2.9233,-2.8721,-2.831,-2.7891,-2.7708,-2.7708,-2.6826,-2.6387,-2.6387,-2.5947,-2.5693,-2.5693,-2.5693,-2.5693,-2.5693,-2.5693,-2.5693,-2.5693,-2.5693,-2.5693,-2.5693,-2.5693,-2.5693,-2.5693,-2.5693,-2.5693,-2.5693,-2.5693,-2.5693,-2.5693,0.0,0.0,0.0,0.0,0.0,0.0,0.0,0.0,0.0,0.0,0.0,0.0,0.0,0.0,0.0,0.0,0.0,0.0,-3.1511,-3.1511,-3.1705,-3.2168,-3.2065,-3.26,-3.3877,-3.3849,-3.4053,-3.4571,-3.4245,-3.4059,-3.4059,-3.3632,-3.3339,-3.3234,-3.2952,-3.2739,-3.2602,-3.2654,-3.2566,-3.242,-3.2239,-3.1776,-3.114,0.0,0.0,0.0,0.0,0.0,0.0,0.0,0.0,0.0,-2.747,-2.6693,-2.5999,-2.5369,-2.4988,-2.4774,-2.4705,-2.5034,-2.5533,-2.5968,-2.648,-2.7096,-2.8338,-2.8618,-2.897,-3.0222,-3.0594,-3.0833,-3.1288,-3.1629,-3.1833,-3.1957,-3.254,-3.2866,-3.2672,-3.2643,-3.2525,-3.2153,-3.1932,-3.1598,-3.1133,-3.0414,-2.9816,-2.9363,-2.8522,-2.7988,-2.7861,-2.7441,-2.707,-2.6777,-2.6523,-2.624,-2.5937,-2.5752,-2.5693,-2.5693,-2.5693,-2.5693,-2.5693,-2.5693,-2.5693,-2.5693,-2.5693,-2.5693,-2.5693,-2.5693,-2.5693,-2.5693,-2.5693,-2.5693,-2.5693,-2.5693,-2.5693,-2.5693,0.0,0.0,0.0,0.0,0.0,0.0,0.0,0.0,0.0,0.0,-3.1511,0.0,0.0,0.0,0.0,0.0,0.0,0.0,-3.1511,-3.175,-3.2034,-3.2363,-3.2526,-3.2933,-3.3644,-3.3565,-3.3597,-3.3667,-3.3444,-3.3304,-3.3234,-3.2739,-3.2489,-3.2417,-3.2078,-3.1896,-3.1827,-3.1755,-3.1728,-3.1733,-3.1652,-3.1284,-3.0767,0.0,0.0,0.0,0.0,0.0,0.0,0.0,0.0,0.0,-2.7701,-2.6928,-2.6196,-2.5527,-2.5115,-2.4818,-2.4583,-2.4962,-2.5554,-2.5813,-2.6407,-2.7206,-2.8338,-2.9042,-2.9673,-3.0522,-3.0688,-3.077,-3.105,-3.1319,-3.1505,-3.1505,-3.1767,-3.1943,-3.1763,-3.165,-3.1476,-3.1355,-3.1196,-3.0998,-3.0708,-2.9977,-2.9353,-2.891,-2.8117,-2.764,-2.7412,-2.7002,-2.665,-2.6396,-2.6221,-2.6006,-2.5693,-2.5693,-2.5693,-2.5693,-2.5693,-2.5693,-2.5693,-2.5693,-2.5693,-2.5693,-2.5693,-2.5693,-2.5693,-2.5693,-2.5693,-2.5693,-2.5693,-2.5693,-2.5693,-2.5693,-2.5693,-2.5693,0.0,0.0,0.0,0.0,0.0,0.0,0.0,0.0,0.0,0.0,-3.1511,-3.1511,0.0,0.0,0.0,0.0,0.0,0.0,0.0,-3.2123,-3.2437,-3.2302,-3.2923,-3.3162,-3.2839,-3.2681,-3.2453,-3.2019,-3.2417,-3.2475,-3.2273,-3.1873,-3.1629,-3.1519,-3.1233,-3.106,-3.0949,-3.0736,-3.0829,-3.1085,-3.0875,-3.0691,-3.0545,-3.0545,0.0,0.0,0.0,0.0,0.0,0.0,0.0,0.0,-2.8011,-2.7203,-2.6404,-2.5695,-2.5242,-2.4861,-2.4583,-2.5161,-2.5823,-2.591,-2.6646,-2.7552,-2.8421,-2.9622,-3.0584,-3.0667,-3.0688,-3.0688,-3.0688,-3.0719,-3.0675,-3.0634,-3.0778,-3.0836,-3.0836,-3.086,-3.0829,-3.0829,-3.0722,-3.0605,-3.0563,-2.9642,-2.889,-2.8458,-2.7932,-2.7383,-2.6982,-2.6562,-2.6328,-2.6328,-2.5947,-2.5693,-2.5693,-2.5693,-2.5693,-2.5693,-2.5693,-2.5693,-2.5693,-2.5693,-2.5693,-2.5693,-2.5693,-2.5693,-2.5693,-2.5693,-2.5693,-2.5693,-2.5693,-2.5693,-2.5693,-2.5693,-2.5693,-2.5693,0.0,0.0,0.0,0.0,0.0,0.0,0.0,0.0,0.0,0.0,0.0,0.0,0.0,0.0,0.0,0.0,0.0,0.0,0.0,-3.2123,-3.2646,-3.2955,-3.3597,-3.3632,-3.2989,-3.2492,-3.1982,-3.1482,-3.174,-3.1726,-3.1442,-3.1086,-3.0911,-3.0874,-3.0672,-3.0545,-3.052,-3.0305,-3.0266,-3.033,-3.011,-3.0006,-2.9967,-2.9967,-2.9892,0.0,0.0,0.0,0.0,0.0,0.0,0.0,-2.8011,-2.7348,-2.6633,-2.5748,-2.5327,-2.5031,-2.4625,-2.49,-2.5451,-2.5792,-2.6837,-2.7924,-2.8483,-2.9125,-2.9808,-3.0532,-3.0688,-3.0624,-3.0389,-3.0622,-3.069,-3.0083,-3.0342,-3.047,-3.0248,-3.0257,-3.0252,-3.0045,-3.0089,-3.0005,-2.9642,-2.8991,-2.8438,-2.7995,-2.7149,-2.6621,-2.6533,-2.6113,-2.583,-2.583,-2.5732,-2.5693,-2.5693,-2.5693,-2.5693,-2.5693,-2.5693,-2.5693,-2.5693,-2.5693,-2.5693,-2.5693,-2.5693,-2.5693,-2.5693,-2.5693,-2.5693,-2.5693,-2.5693,-2.5693,-2.5693,-2.5693,-2.5693,-2.5693,0.0,0.0,0.0,0.0,0.0,0.0,0.0,0.0,0.0,0.0,0.0,0.0,0.0,0.0,0.0,0.0,0.0,0.0,0.0,0.0,-3.3056,-3.3601,-3.3516,-3.3115,-3.2426,-3.1873,-3.1296,-3.071,-3.0823,-3.0848,-3.0797,-3.0533,-3.0432,-3.0394,-3.019,-3.0113,-3.0113,-3.0011,-2.9972,-2.9934,-2.983,-2.9792,-2.9792,-2.9792,-2.9792,-2.9792,-2.9792,0.0,0.0,0.0,0.0,0.0,0.0,0.0,-2.6869,-2.6071,-2.5527,-2.5115,-2.4786,-2.5114,-2.5699,-2.6418,-2.7241,-2.8038,-2.8504,-2.897,-2.9508,-3.0212,-3.024,-3.0124,-2.9954,-2.9987,-2.9907,-2.9514,-2.9577,-2.9575,-2.9411,-2.939,-2.9321,-2.9172,-2.9249,-2.9239,-2.9001,-2.8472,-2.7985,-2.7542,-2.6804,-2.6299,-2.6084,-2.581,-2.5693,-2.5693,-2.5693,-2.5693,-2.5693,-2.5693,-2.5693,-2.5693,-2.5693,-2.5693,-2.5693,-2.5693,-2.5693,-2.5693,-2.5693,-2.5693,-2.5693,-2.5693,-2.5693,-2.5664,-2.5508,-2.542,-2.5391,-2.5185,-2.5234,-2.542,0.0,0.0,0.0,0.0,0.0,0.0,0.0,0.0,0.0,0.0,0.0,0.0,0.0,0.0,0.0,0.0,0.0,0.0,0.0,0.0,0.0,-3.381,-3.3073,-3.2367,-3.1736,-3.1185,-3.0647,-3.0113,-3.0075,-3.0113,-3.0292,-3.0113,-3.0049,-3.0049,-2.9869,-2.9792,-2.9792,-2.9792,-2.9792,-2.9792,-2.9792,-2.9792,-2.9792,-2.9792,-2.9792,-2.9792,-2.9792,-2.9792,-2.9792,-2.9792,0.0,0.0,0.0,0.0,-2.7174,-2.6475,-2.5779,-2.52,-2.4946,-2.5401,-2.6127,-2.6978,-2.7479,-2.7955,-2.8493,-2.8907,-2.9342,-2.988,-2.9774,-2.9606,-2.9501,-2.9237,-2.9026,-2.8973,-2.8781,-2.8601,-2.8522,-2.8511,-2.8458,-2.8377,-2.8492,-2.8537,-2.8454,-2.8005,-2.7522,-2.703,-2.6567,-2.6113,-2.5703,-2.5693,-2.5693,-2.5693,-2.5693,-2.5693,-2.5693,-2.5693,-2.5693,-2.5693,-2.5693,-2.5693,-2.5693,-2.5693,-2.5693,-2.5684,-2.5606,-2.5625,-2.5567,-2.5499,-2.546,-2.5421,-2.5098,-2.4998,-2.4912,-2.4551,-2.4697,-2.5116,0.0,0.0,0.0,0.0,0.0,0.0,0.0,0.0,0.0,0.0,-3.1511,0.0,0.0,0.0,0.0,0.0,0.0,0.0,0.0,0.0,0.0,-3.2794,-3.2555,-3.2092,-3.1371,-3.0772,-3.0368,-3.0113,-2.9934,-2.9869,-2.9869,-2.9869,-2.983,-2.983,-2.9792,-2.9792,-2.9792,-2.9792,-2.9792,-2.9792,-2.9792,-2.9792,-2.9792,-2.9792,-2.9792,-2.9792,-2.9792,-2.9792,-2.9792,-2.9792,-2.9611,0.0,0.0,0.0,-2.7568,-2.6723,-2.5988,-2.5369,-2.4988,-2.5401,-2.6055,-2.6573,-2.705,-2.7572,-2.8421,-2.8659,-2.8949,-2.9818,-2.9774,-2.9501,-2.9237,-2.893,-2.8674,-2.8451,-2.8398,-2.8217,-2.7855,-2.8217,-2.8337,-2.7945,-2.8298,-2.8353,-2.7813,-2.7448,-2.6971,-2.6316,-2.5957,-2.5752,-2.5693,-2.5693,-2.5693,-2.5693,-2.5693,-2.5693,-2.5693,-2.5693,-2.5693,-2.5693,-2.5693,-2.5693,-2.5693,-2.5693,-2.5693,-2.5664,-2.5322,-2.5156,-2.5127,-2.4746,-2.459,-2.459,-2.4521,-2.4502,-2.4492,-2.4443,-2.4697,-2.5116,0.0,0.0,0.0,0.0,0.0,0.0,0.0,0.0,0.0,0.0,0.0,-3.1511,0.0,0.0,0.0,-3.1511,0.0,0.0,0.0,0.0,0.0,-3.2157,-3.2017,-3.1629,-3.0986,-3.0482,-3.0113,-2.9934,-2.983,-2.9792,-2.9804,-3.0105,-3.0093,-2.9792,-2.9792,-2.9792,-2.9792,-2.9792,-2.9792,-2.9792,-2.9792,-2.9792,-2.9792,-2.9792,-2.9792,-2.9754,-2.9428,-2.9315,-2.9264,-2.895,-2.8687,-2.851,-2.8372,0.0,0.0,0.0,-2.626,-2.5645,-2.5358,-2.5388,-2.5689,-2.6438,-2.677,-2.7154,-2.8017,-2.8224,-2.8411,-2.9083,-2.9014,-2.8788,-2.8782,-2.8413,-2.8029,-2.7617,-2.7578,-2.751,-2.7324,-2.7447,-2.7512,-2.7412,-2.7576,-2.7547,-2.7255,-2.6992,-2.661,-2.6159,-2.5868,-2.5693,-2.5693,-2.5693,-2.5693,-2.5693,-2.5693,-2.5693,-2.5693,-2.5693,-2.5605,-2.5361,-2.5117,-2.4953,-2.4953,-2.4953,-2.5137,-2.5352,-2.5204,-2.4932,-2.4687,-2.4492,-2.4414,-2.4394,-2.416,-2.4062,-2.4033,-2.3789,-2.4131,-2.4697,0.0,0.0,0.0,0.0,0.0,0.0,0.0,0.0,0.0,0.0,0.0,0.0,0.0,0.0,0.0,0.0,-3.1395,0.0,0.0,0.0,0.0,-3.1336,-3.1263,-3.1003,-3.0546,-3.005,-2.9795,-2.9792,-2.9641,-2.9641,-2.9804,-3.0218,-3.0269,-2.9993,-2.9993,-2.9993,-2.9993,-2.9854,-2.9792,-2.9792,-2.9792,-2.9792,-2.9792,-2.9792,-2.9792,-2.9716,-2.9139,-2.8888,-2.8813,-2.8298,-2.8,-2.789,-2.7912,-2.7539,0.0,0.0,0.0,-2.5761,-2.5507,-2.5305,-2.542,-2.6206,-2.6532,-2.6806,-2.7717,-2.7924,-2.8059,-2.8514,-2.8378,-2.8198,-2.8259,-2.7928,-2.7496,-2.707,-2.7012,-2.6973,-2.6875,-2.6813,-2.6804,-2.694,-2.6853,-2.6805,-2.6805,-2.6544,-2.6304,-2.6004,-2.583,-2.5693,-2.5693,-2.5693,-2.5693,-2.5693,-2.5693,-2.5635,-2.5566,-2.5411,-2.5234,-2.4893,-2.457,-2.4414,-2.4414,-2.4414,-2.4541,-2.4793,-2.4793,-2.456,-2.4248,-2.4141,-2.4092,-2.4062,-2.375,-2.3623,-2.3584,-2.3218,-2.3613,-2.4277,0.0,0.0,0.0,0.0,0.0,0.0,0.0,0.0,0.0,0.0,0.0,0.0,-3.2273,-3.1708,-3.1263,-3.1132,-3.1102,-3.0895,-3.04,-3.0509,0.0,-3.0115,-3.016,0.0,-3.0139,-2.9366,-2.9239,-2.9792,-2.9239,-2.9252,-2.9792,-2.9829,-3.0093,-3.057,-3.057,-3.057,-3.0545,-3.0018,-2.9792,-2.9792,-2.9792,-2.9792,-2.9792,-2.9792,-2.9792,-2.9716,-2.9139,-2.8888,-2.8813,-2.8298,-2.8109,-2.8036,-2.7866,-2.752,-2.7156,0.0,0.0,0.0,-2.5062,-2.5055,-2.5303,-2.5802,-2.6293,-2.6806,-2.7717,-2.7924,-2.8059,-2.8514,-2.8378,-2.8105,-2.7736,-2.7502,-2.7327,-2.7072,-2.7012,-2.6875,-2.6475,-2.6566,-2.6685,-2.6538,-2.6516,-2.6496,-2.6496,-2.6294,-2.6004,-2.5732,-2.5684,-2.5693,-2.5693,-2.5693,-2.5693,-2.5693,-2.5693,-2.5527,-2.5155,-2.4697,-2.4473,-2.4453,-2.4424,-2.4414,-2.4414,-2.4414,-2.4209,-2.3857,-2.3857,-2.3838,-2.3789,-2.3335,-2.3159,-2.3159,-2.314,-2.313,-2.312,-2.3101,-2.3428,-2.3887,0.0,0.0,0.0,0.0,0.0,0.0,0.0,0.0,0.0,0.0,0.0,0.0,0.0,-3.1764,-3.138,-3.0835,-3.0568,-3.0296,-2.9867,-3.0304,0.0,-2.9706,-3.0213,-3.0352,-3.0113,-2.929,-2.9001,-2.9239,-2.9001,-2.9001,-2.9252,-2.998,-3.0432,-3.0595,-3.0244,-3.0281,-3.0583,-3.003,-2.9792,-2.9792,-2.9792,-2.9792,-2.9792,-2.9792,-2.9792,-2.9716,-2.9139,-2.8662,-2.831,-2.7758,-2.7379,-2.7118,-2.7231,-2.7004,-2.6576,-2.6116,-2.5424,-2.4789,-2.469,-2.4609,-2.4711,-2.5275,-2.5595,-2.5947,-2.6848,-2.7055,-2.7189,-2.7655,-2.77,-2.7513,-2.7204,-2.709,-2.6894,-2.6468,-2.628,-2.6093,-2.5986,-2.6006,-2.6084,-2.6217,-2.6245,-2.6245,-2.6245,-2.6149,-2.6004,-2.5732,-2.5693,-2.5605,-2.5322,-2.5303,-2.5176,-2.4902,-2.4893,-2.4814,-2.4648,-2.4228,-2.4014,-2.4014,-2.373,-2.3549,-2.3549,-2.3549,-2.3471,-2.3369,-2.3369,-2.3369,-2.3359,-2.3159,-2.3091,-2.3091,-2.3091,-2.3091,-2.3091,-2.3091,-2.3418,-2.3857,0.0,0.0,0.0,0.0,0.0,0.0,0.0,0.0,-3.3976,-3.3519,0.0,0.0,0.0,0.0,-3.1397,-3.0532,-2.9967,-2.9543,-2.9289,-2.9676,-2.9736,-2.9319,-2.9883,-3.0151,-2.9998,-2.9114,-2.87,-2.8888,-2.8561,-2.8561,-2.8913,-2.9653,-3.0217,-3.0595,-3.0043,-3.0093,-3.0583,-3.003,-2.9792,-2.9792,-2.9792,-2.9792,-2.9792,-2.9792,-2.9792,-2.9716,-2.9139,-2.865,-2.8273,-2.7532,-2.7065,-2.6779,-2.6826,-2.6633,-2.6251,-2.5602,-2.5053,-2.4559,-2.4414,-2.429,-2.4305,-2.4852,-2.5075,-2.5375,-2.6175,-2.6387,-2.647,-2.6781,-2.6967,-2.7034,-2.6808,-2.683,-2.6692,-2.6198,-2.5868,-2.5693,-2.5693,-2.5693,-2.5781,-2.6052,-2.6004,-2.6004,-2.61,-2.6004,-2.5868,-2.5684,-2.5547,-2.5381,-2.5135,-2.4932,-2.4717,-2.4424,-2.4277,-2.4209,-2.4209,-2.3789,-2.3574,-2.3564,-2.3227,-2.3091,-2.3091,-2.3091,-2.3091,-2.3091,-2.3091,-2.3091,-2.3091,-2.3091,-2.3091,-2.3091,-2.3091,-2.3091,-2.3091,-2.3091,-2.3276,-2.3633,0.0,0.0,0.0,0.0,0.0,0.0,0.0,0.0,-3.4346,-3.4346,0.0,0.0,0.0,0.0,0.0,-3.0253,-2.9348,-2.8761,-2.8641,-2.8618,-2.8708,-2.8892,0.0,0.0,-2.9779,-2.8699,-2.8386,-2.8863,-2.7833,-2.7846,-2.8838,-2.8863,-2.9452,-3.052,-2.998,-3.0043,-3.0507,-3.0005,-2.9792,-2.9792,-2.9792,-2.9792,-2.9792,-2.9792,-2.9792,-2.9716,-2.9151,-2.8913,-2.8725,-2.7695,-2.7341,-2.7216,-2.6675,-2.6431,-2.6275,-2.5654,-2.5245,-2.4859,0.0,0.0,0.0,-2.4448,-2.4817,-2.5316,-2.5761,-2.5854,-2.5865,-2.5875,-2.6283,-2.6594,-2.6594,-2.6753,-2.6726,-2.6177,-2.5858,-2.5684,-2.5693,-2.5693,-2.5781,-2.6052,-2.5868,-2.5781,-2.6052,-2.5868,-2.5693,-2.5693,-2.5322,-2.5106,-2.5096,-2.4619,-2.4385,-2.4385,-2.3984,-2.3769,-2.3769,-2.3305,-2.3091,-2.3091,-2.3091,-2.3091,-2.3091,-2.3091,-2.3091,-2.3091,-2.3091,-2.3091,-2.3091,-2.3091,-2.3091,-2.3091,-2.3091,-2.3091,-2.3091,-2.3091,-2.3091,-2.3159,0.0,0.0,0.0,0.0,0.0,-3.3374,-3.3374,-3.3269,-3.3164,0.0,0.0,0.0,-3.1951,-3.1028,-3.033,-3.0086,-2.9569,-2.9202,-2.9042,-2.9301,-2.9367,-2.9119,-2.9605,-2.9846,-2.9792,-2.9076,-2.8549,-2.8335,-2.8034,-2.7833,-2.7745,-2.8147,-2.8499,-2.88,-2.8649,-2.8662,-2.885,-2.9515,-2.9792,-2.9792,-2.9792,-2.9792,-2.9792,-2.9792,-2.9792,-2.9779,-2.9616,-2.9289,-2.8838,-2.8574,-2.7946,-2.7193,-2.6514,-2.6079,-2.5718,-2.5087,-2.4574,0.0,-2.3715,0.0,0.0,0.0,0.0,0.0,-2.5233,-2.5409,-2.5502,-2.5813,-2.5978,-2.6107,-2.6107,-2.628,-2.6364,-2.6212,-2.6094,-2.5917,-2.5732,-2.5693,-2.5732,-2.5781,-2.5732,-2.5732,-2.5781,-2.5732,-2.5693,-2.5693,-2.5322,-2.4932,-2.4609,-2.3851,-2.3452,-2.3452,-2.3335,-2.3276,-2.3276,-2.3149,-2.3091,-2.3091,-2.3091,-2.3091,-2.3091,-2.3091,-2.3091,-2.3091,-2.3091,-2.3091,-2.3091,-2.3091,-2.3091,-2.3091,-2.3091,-2.3091,-2.3091,-2.3091,-2.3091,-2.3159,0.0,0.0,0.0,0.0,0.0,-3.2859,-3.2859,-3.2495,-3.2223,0.0,0.0,0.0,-3.133,-3.0481,-2.9922,-2.9922,-2.9401,-2.9045,-2.8938,-2.9336,-2.9436,-2.92,-2.9694,-2.9934,-2.9792,-2.9227,-2.8624,-2.8109,-2.7871,-2.7595,-2.7329,-2.7607,-2.7883,-2.8109,-2.8109,-2.8109,-2.816,-2.9051,-2.9428,-2.9453,-2.9691,-2.993,-3.0131,-3.0131,-3.0269,-3.0432,-3.0218,-2.9917,-2.9527,-2.9051,-2.8197,-2.7231,-2.6776,-2.6223,-2.5606,-2.5087,-2.4527,0.0,0.0,0.0,0.0,-2.3284,0.0,0.0,-2.426,-2.4374,-2.4509,-2.4954,-2.5192,-2.5378,-2.5575,-2.5853,-2.6023,-2.5941,-2.6027,-2.6142,-2.6042,-2.6024,-2.5975,-2.5868,-2.5975,-2.5975,-2.5868,-2.5965,-2.5975,-2.5868,-2.5289,-2.4624,-2.3916,-2.3364,-2.3091,-2.3091,-2.3091,-2.3091,-2.3091,-2.3091,-2.3091,-2.3091,-2.3091,-2.3091,-2.3091,-2.3091,-2.3091,-2.3091,-2.3091,-2.3091,-2.3091,-2.3091,-2.3091,-2.3091,-2.3091,-2.3091,-2.3091,-2.3091,-2.3091,-2.313,0.0,0.0,-3.4276,-3.3982,-3.323,-3.2667,-3.2667,-3.2024,-3.1554,0.0,-3.1418,-3.1217,-3.104,-3.0347,-2.9899,-2.9835,-2.9138,-2.8735,-2.8735,-2.9059,-2.9264,-2.9264,-2.963,-2.9792,-2.9792,-2.9289,-2.8687,-2.8109,-2.7607,-2.7341,-2.7228,-2.7228,-2.7457,-2.7921,-2.7885,-2.7885,-2.7935,-2.8499,-2.8762,-2.8825,-2.9502,-3.0118,-3.062,-3.062,-3.0934,-3.1336,-3.0871,-3.0708,-3.0532,-2.9364,-2.8335,-2.7444,-2.7318,-2.6696,-2.5914,-2.5442,-2.479,0.0,0.0,0.0,0.0,-2.2598,-2.2801,0.0,-2.3174,-2.3184,-2.3308,-2.3753,-2.4157,-2.4549,-2.4962,-2.5482,-2.5723,-2.5507,-2.5849,-2.6252,-2.6413,-2.6466,-2.64,-2.6197,-2.6342,-2.64,-2.6149,-2.6352,-2.638,-2.6079,-2.5218,-2.423,-2.314,-2.3091,-2.3091,-2.3091,-2.3091,-2.3071,-2.3023,-2.3023,-2.3003,-2.2955,-2.2955,-2.2984,-2.3023,-2.3023,-2.3052,-2.3091,-2.3091,-2.3091,-2.3091,-2.3091,-2.3091,-2.3091,-2.3091,-2.3091,-2.3091,-2.3091,-2.3091,-2.3091,0.0,-3.3415,-3.334,-3.2962,-3.262,-3.2371,-3.2371,-3.2122,-3.1899,-3.1899,-3.186,-3.1653,-3.1203,-3.088,-3.0508,-3.0063,-2.9745,-2.9567,-2.9567,-2.9642,-2.9693,-2.9693,-2.9767,-2.9792,-2.9792,-2.9679,-2.9126,-2.8109,-2.7996,-2.7494,-2.6663,-2.6663,-2.6713,-2.6826,-2.6652,-2.6559,-2.6621,-2.7409,-2.7792,-2.7878,-2.9263,-3.0118,-3.062,-3.062,-3.0934,-3.1373,-3.1273,-3.1235,-3.1072,-2.9993,-2.9164,-2.8448,-2.7557,-2.6957,-2.6392,-2.5551,-2.479,-2.4007,-2.3224,-2.2767,-2.2522,-2.2514,-2.2563,0.0,-2.3101,-2.3184,-2.3215,-2.3298,-2.3691,-2.4033,-2.4126,-2.4809,-2.5313,-2.5279,-2.564,-2.5946,-2.594,-2.6275,-2.6496,-2.6448,-2.6448,-2.6496,-2.6448,-2.6448,-2.625,-2.5662,-2.4588,-2.3726,-2.312,-2.3091,-2.3091,-2.3091,-2.3091,-2.2925,-2.2637,-2.2637,-2.2461,-2.2129,-2.2129,-2.2305,-2.2637,-2.2637,-2.2779,-2.3091,-2.3091,-2.3091,-2.3091,-2.3091,-2.3091,-2.3091,-2.3091,-2.3091,-2.3091,-2.3091,-2.3091,-2.3091,0.0,-3.342,-3.3535,-3.3209,-3.2772,-3.2457,-3.2457,-3.2011,-3.1711,-3.1711,-3.1711,-3.1508,-3.0976,-3.0794,-3.0539,-2.9984,-2.9869,-2.9792,-2.9792,-2.9792,-2.9792,-2.9792,-2.9792,-2.9792,-2.9792,-2.9515,-2.895,-2.8109,-2.7833,-2.7245,-2.6339,-2.6339,-2.6305,-2.6188,-2.598,-2.6058,-2.6329,-2.6944,-2.7369,-2.7697,-2.894,-2.9953,-3.0698,-3.0698,-3.1195,-3.1866,-3.158,-3.1121,-3.0574,-3.004,-2.928,-2.8449,-2.7667,-2.6954,-2.6227,-2.5278,-2.4563,-2.3861,-2.3075,-2.2628,-2.2342,-2.2202,-2.2149,0.0,0.0,-2.2501,-2.2563,-2.2801,-2.3029,-2.3329,-2.3795,-2.425,-2.4633,-2.4807,-2.5264,-2.5547,-2.5513,-2.6125,-2.6578,-2.6668,-2.6832,-2.6832,-2.6699,-2.6832,-2.6462,-2.5421,-2.4388,-2.3603,-2.312,-2.3091,-2.3091,-2.3091,-2.3091,-2.2896,-2.2519,-2.251,-2.2305,-2.1885,-2.1885,-2.1992,-2.2197,-2.2197,-2.2314,-2.251,-2.251,-2.251,-2.2529,-2.2744,-2.2779,-2.2808,-2.3013,-2.3091,-2.3091,-2.3091,-2.3091,-2.3091,-3.2982,-3.3472,-3.3779,-3.3628,-3.3102,-3.2684,-3.2684,-3.2126,-3.1712,-3.1712,-3.1712,-3.1512,-3.0984,-3.0834,-3.0545,-2.9993,-2.9854,-2.9792,-2.9792,-2.9792,-2.9792,-2.9792,-2.9792,-2.9792,-2.9792,-2.9227,-2.8624,-2.8109,-2.7509,-2.6864,-2.6213,-2.6131,-2.598,-2.584,-2.5645,-2.5816,-2.6263,-2.6617,-2.7067,-2.7532,-2.8509,-2.9598,-3.0653,-3.0653,-3.1326,-3.2196,-3.17,-3.0905,-3.0061,-2.9964,-2.9279,-2.8362,-2.7726,-2.6881,-2.5959,-2.5061,-2.4307,-2.3641,-2.2889,-2.2515,-2.2252,-2.1883,-2.1807,-2.1807,0.0,0.0,0.0,-2.2294,-2.2439,-2.2718,-2.3474,-2.3764,-2.3991,-2.4311,-2.4755,-2.5086,-2.5179,-2.5854,-2.6439,-2.6668,-2.6909,-2.6956,-2.673,-2.6732,-2.6279,-2.5108,-2.4187,-2.3516,-2.311,-2.3091,-2.3091,-2.3091,-2.3013,-2.2769,-2.2402,-2.2305,-2.2051,-2.1631,-2.1631,-2.168,-2.1768,-2.1768,-2.1807,-2.1885,-2.1885,-2.1885,-2.1924,-2.2344,-2.251,-2.2549,-2.2925,-2.3091,-2.3091,-2.3091,-2.3091,-2.3091,-3.2453,-3.2695,-3.2857,-3.3109,-3.3104,-3.3023,-3.3023,-3.2973,-3.2923,-3.2923,-3.2923,-3.2667,-3.2089,-3.1587,-3.1085,-3.057,-3.0068,-2.9792,-2.9792,-2.9792,-2.9792,-2.9792,-2.9792,-2.9792,-2.9792,-2.9227,-2.8624,-2.8109,-2.7388,-2.6746,-2.6179,-2.5828,-2.5641,-2.563,-2.5564,-2.5545,-2.5626,-2.6205,-2.65,-2.6638,-2.7637,-2.888,-3.017,-3.017,-3.0833,-3.1793,-3.1689,-3.1267,-3.0633,-3.023,-2.9634,-2.8919,-2.7984,-2.7019,-2.6144,-2.5366,-2.43,-2.3261,-2.2815,-2.244,-2.2063,-2.1845,-2.1807,-2.1807,-2.1807,0.0,-2.1818,-2.188,0.0,-2.2532,-2.2635,0.0,0.0,-2.395,-2.4322,-2.4714,-2.5127,-2.5272,-2.5499,-2.5943,-2.603,-2.6041,-2.6041,-2.5274,-2.4696,-2.4337,-2.36,-2.3149,-2.3091,-2.3091,-2.3091,-2.3091,-2.274,-2.2383,-2.1963,-2.1572,-2.1162,-2.0752,-2.0752,-2.0918,-2.1268,-2.1268,-2.1523,-2.1885,-2.1885,-2.1885,-2.1924,-2.2344,-2.251,-2.2549,-2.2925,-2.3091,-2.3091,-2.3091,-2.3091,-2.3091,-3.166,-3.2167,0.0,-3.2528,-3.2855,-3.3124,-3.3124,-3.3124,-3.3124,-3.3124,-3.3124,-3.2855,-3.2277,-3.2001,-3.1524,-3.0683,-3.0407,-3.0131,-2.9817,-2.9792,-2.9792,-2.9792,-2.9792,-2.9792,-2.9792,-2.91,-2.8463,-2.7914,-2.7064,-2.6307,-2.5676,-2.5276,-2.5183,-2.5347,-2.5103,-2.5218,-2.5636,-2.578,-2.6106,-2.654,-2.6995,-2.7835,-2.8929,-2.9497,-3.0171,-3.0847,-3.0847,-3.0276,-2.9539,-2.9328,-2.8708,-2.79,-2.7186,-2.6407,-2.5601,-2.4744,-2.3861,-2.3001,-2.2478,-2.2214,-2.2063,-2.1845,-2.1807,-2.1807,-2.1807,-2.1807,-2.1807,-2.1807,0.0,0.0,0.0,0.0,0.0,0.0,-2.4033,-2.4312,-2.4724,-2.4786,-2.5044,-2.5792,-2.5875,-2.5875,-2.5875,-2.5035,-2.446,-2.4381,-2.3565,-2.3091,-2.3091,-2.3091,-2.3091,-2.3091,-2.2734,-2.2314,-2.1894,-2.1414,-2.1016,-2.0605,-2.0605,-2.0703,-2.084,-2.084,-2.0947,-2.1163,-2.1163,-2.1163,-2.1212,-2.1865,-2.2148,-2.2217,-2.2838,-2.3091,-2.3091,-2.3091,-2.3091,-2.3091,-3.1167,0.0,0.0,-3.2164,-3.2554,-3.2893,-3.3056,-3.3124,-3.3124,-3.3124,-3.3124,-3.2918,-3.2491,-3.2303,-3.1901,-3.1122,-3.0703,-3.0365,-2.9952,-2.9711,-2.9624,-2.9624,-2.9624,-2.9624,-2.9624,-2.882,-2.8262,-2.7866,-2.6845,-2.6093,-2.5517,-2.4892,-2.4773,-2.513,-2.4648,-2.482,-2.5459,-2.5571,-2.593,-2.6422,-2.6693,-2.7278,-2.8095,-2.8903,-2.9432,-2.9783,-2.9647,-2.9183,-2.847,-2.8241,-2.7663,-2.693,-2.6443,-2.5695,-2.4915,-2.4211,-2.3406,-2.2665,-2.2214,-2.2073,-2.1997,-2.1845,-2.1807,-2.1807,-2.1807,-2.1807,-2.1807,-2.1807,-2.1807,0.0,0.0,0.0,-2.276,-2.3598,0.0,-2.4033,-2.4435,-2.4497,-2.4735,-2.543,-2.5513,-2.5513,-2.5424,-2.4737,-2.4279,-2.4245,-2.354,-2.3091,-2.3091,-2.3091,-2.3091,-2.3091,-2.2617,-2.2197,-2.1894,-2.1328,-2.0889,-2.0605,-2.0605,-2.0605,-2.0605,-2.0605,-2.0605,-2.0605,-2.0605,-2.0605,-2.0674,-2.1564,-2.1885,-2.1973,-2.2812,-2.3091,-2.3091,-2.3091,-2.3091,-2.3091,-3.1153,-3.0848,0.0,-3.2026,-3.2227,-3.2428,-3.2993,-3.3124,-3.3124,-3.3124,-3.3124,-3.3111,-3.3056,-3.2554,-3.2202,-3.2164,-3.1035,-3.0303,-3.0291,-2.9544,-2.9131,-2.9131,-2.9131,-2.9131,-2.9131,-2.8397,-2.8027,-2.7977,-2.6797,-2.6183,-2.6124,-2.4903,-2.4567,-2.4988,-2.4381,-2.4395,-2.4882,-2.5616,-2.5881,-2.5987,-2.6913,-2.7562,-2.806,-2.8516,-2.8713,-2.8705,-2.8302,-2.8161,-2.7951,-2.7009,-2.6669,-2.6528,-2.6058,-2.5115,-2.4133,-2.4122,-2.3154,-2.2101,-2.2111,-2.1949,-2.1807,-2.1807,-2.1807,-2.1807,-2.1807,-2.1807,-2.1807,-2.1807,-2.1807,-2.1807,-2.1828,-2.219,-2.2656,-2.3132,-2.3588,0.0,0.0,-2.4497,-2.4507,-2.4538,-2.4538,-2.4463,-2.429,-2.4011,-2.3731,-2.3567,-2.3242,-2.3091,-2.3091,-2.3091,-2.3091,-2.3091,-2.2334,-2.1894,-2.1885,-2.1065,-2.0615,-2.0605,-2.0605,-2.0605,-2.0605,-2.0605,-2.0605,-2.0605,-2.0605,-2.0605,-2.0674,-2.1564,-2.1885,-2.1973,-2.2812,-2.3091,-2.3091,-2.3091,-2.3091,-2.3091,0.0,0.0,-3.0728,-3.1598,-3.2073,-3.2383,-3.2624,-3.2649,-3.2649,-3.2649,-3.2649,-3.2649,-3.2649,-3.2432,-3.2172,-3.1789,-3.1334,-3.0745,-2.9898,-2.9911,-2.9715,-2.9177,-2.9165,-2.9165,-2.9165,-2.8303,-2.7715,-2.7421,-2.653,-2.5885,-2.5388,-2.4698,-2.4544,-2.4843,-2.453,-2.4541,-2.4883,-2.5464,-2.5776,-2.5999,-2.694,-2.7223,-2.7123,-2.7611,-2.7785,-2.7731,-2.7336,-2.697,-2.6592,-2.627,-2.5905,-2.5658,-2.5507,-2.4727,-2.3887,-2.3727,-2.2952,-2.2063,-2.1959,-2.1845,-2.1807,-2.1807,-2.1807,-2.1807,-2.1807,-2.1807,-2.1807,-2.1807,-2.1807,-2.1807,-2.1807,-2.1932,-2.2294,-2.306,-2.3318,-2.3577,0.0,-2.3836,-2.3639,-2.3639,-2.4135,-2.4454,-2.4411,-2.4196,-2.3859,-2.3353,-2.3077,-2.2778,-2.2324,-2.2578,-2.2598,-2.2314,-2.2031,-2.1748,-2.1455,-2.0869,-2.0605,-2.0605,-2.0605,-2.0605,-2.0605,-2.0605,-2.0605,-2.0605,-2.0605,-2.0605,-2.0644,-2.1211,-2.1621,-2.1943,-2.251,-2.2847,-2.3091,-2.3091,-2.3091,-2.3091,-3.0651,-3.0577,-3.0742,-3.1174,-3.1747,-3.2169,-3.2169,-3.2169,-3.2169,-3.2169,-3.2296,-3.2333,-3.2194,-3.2296,-3.2186,-3.1625,-3.1222,-3.064,-2.9827,-2.978,-2.9552,-2.9017,-2.9005,-2.9005,-2.9005,-2.8157,-2.7534,-2.718,-2.6391,-2.5739,-2.5176,-2.4581,-2.4521,-2.4806,-2.4439,-2.4451,-2.4785,-2.5455,-2.5795,-2.5958,-2.6936,-2.7133,-2.6869,-2.6802,-2.6813,-2.676,-2.6328,-2.5881,-2.5499,-2.5331,-2.5026,-2.469,-2.469,-2.4106,-2.3416,-2.3295,-2.2639,-2.1959,-2.1845,-2.1807,-2.1807,-2.1807,-2.1807,-2.1807,-2.1807,-2.1807,-2.1807,-2.1807,-2.1807,-2.1807,-2.1807,-2.1807,-2.2056,-2.2822,-2.2946,-2.3101,0.0,-2.3381,-2.3184,-2.3184,-2.3701,-2.4022,-2.4022,-2.3843,-2.3478,-2.2975,-2.2747,-2.2429,-2.1946,-2.2139,-2.2168,-2.1894,-2.1738,-2.1523,-2.119,-2.0791,-2.0605,-2.0605,-2.0605,-2.0605,-2.0605,-2.0605,-2.0605,-2.0605,-2.0605,-2.0605,-2.0635,-2.1045,-2.1494,-2.1924,-2.2344,-2.2773,-2.3091,-2.3091,-2.3091,-2.3091,-3.0949,-3.0814,-3.0784,-3.0703,-3.1225,-3.1617,-3.1617,-3.1617,-3.1617,-3.1617,-3.204,-3.2184,-3.1713,-3.2064,-3.2172,-3.1701,-3.0699,-3.0074,-3.0039,-2.9196,-2.8651,-2.8628,-2.8617,-2.8573,-2.8573,-2.7901,-2.7471,-2.7258,-2.6326,-2.5738,-2.5443,-2.4639,-2.4462,-2.484,-2.4221,-2.4146,-2.4559,-2.5492,-2.5951,-2.6065,-2.691,-2.7251,-2.7127,-2.6227,-2.5865,-2.5792,-2.5313,-2.5026,-2.4788,-2.4349,-2.4024,-2.3797,-2.3797,-2.3331,-2.2829,-2.2808,-2.2335,-2.18,-2.178,-2.1769,-2.1807,-2.1807,-2.1807,-2.1807,-2.1807,-2.1807,-2.1807,-2.1807,-2.1807,-2.1807,-2.1807,-2.1807,-2.1952,-2.2418,0.0,-2.2646,-2.3091,-2.3132,-2.3122,-2.3122,-2.3122,-2.3143,-2.3184,-2.2971,-2.2707,-2.2493,-2.2288,-2.2083,-2.1867,-2.1836,-2.1846,-2.1826,-2.1435,-2.1181,-2.1161,-2.0781,-2.0605,-2.0605,-2.0605,-2.0605,-2.0605,-2.0605,-2.0605,-2.0605,-2.0605,-2.0605,-2.0635,-2.1025,-2.1455,-2.1894,-2.2314,-2.2711,-2.3091,-2.3091,-2.3091,-2.3091,-3.0193,-2.9829,-2.9486,-2.9284,-2.9977,-3.0578,-3.0578,-3.0578,-3.0578,-3.0578,-3.0985,-3.1252,-3.1124,-3.1217,-3.1252,-3.1124,-3.0535,-2.9938,-2.9381,-2.9476,-2.9285,-2.8711,-2.8511,-2.8466,-2.8466,-2.7558,-2.6868,-2.6476,-2.6098,-2.5594,-2.5031,-2.483,-2.4671,-2.4615,-2.4416,-2.4394,-2.4559,-2.5492,-2.6324,-2.692,-2.6989,-2.6781,-2.6423,-2.5666,-2.5148,-2.4838,-2.4533,-2.4283,-2.4045,-2.3924,-2.3841,-2.3797,-2.3797,-2.3468,-2.3039,-2.2664,-2.2201,-2.1735,-2.145,-2.1464,-2.1578,-2.1578,-2.1693,-2.1807,-2.1807,-2.1807,-2.1807,-2.1807,-2.1807,-2.1807,-2.1807,-2.1807,-2.1952,-2.2418,-2.2501,-2.2542,-2.2656,-2.2377,-2.2159,-2.2159,-2.2159,-2.2428,-2.3122,-2.3143,-2.2797,-2.211,-2.2,-2.165,-2.0957,-2.1221,-2.125,-2.0957,-2.1123,-2.1074,-2.0781,-2.0664,-2.0605,-2.0605,-2.0605,-2.0605,-2.0605,-2.0605,-2.0605,-2.0605,-2.0605,-2.0605,-2.0615,-2.0723,-2.0996,-2.1405,-2.1875,-2.249,-2.3091,-2.3091,-2.3091,-2.3091,-2.9324,-2.8896,-2.8625,-2.8679,-2.9193,-2.9535,-2.9554,-2.9566,-2.9645,-2.9812,-3.0283,-3.0597,-3.055,-3.0597,-3.0519,-3.0236,-2.9719,-2.9236,-2.8821,-2.8973,-2.8868,-2.8399,-2.8296,-2.825,-2.825,-2.7476,-2.679,-2.6221,-2.5921,-2.5409,-2.4743,-2.4743,-2.4658,-2.4497,-2.4497,-2.4497,-2.4559,-2.5369,-2.6285,-2.7081,-2.6842,-2.6435,0.0,-2.5395,-2.4862,-2.4321,-2.4012,-2.3807,-2.3667,-2.3667,-2.358,-2.3484,-2.3484,-2.3282,-2.2968,-2.2719,-2.224,-2.1759,-2.1518,-2.1423,-2.1359,-2.1359,-2.1464,-2.154,-2.154,-2.1617,-2.1655,-2.1655,-2.1731,-2.1807,-2.1807,-2.1807,-2.189,-2.2149,-2.219,-2.219,-2.219,-2.1973,-2.1807,-2.1807,-2.1807,-2.2014,-2.2532,-2.2584,-2.2323,-2.1647,-2.1587,-2.131,-2.0654,-2.0801,-2.083,-2.0615,-2.081,-2.082,-2.0605,-2.0605,-2.0605,-2.0605,-2.0605,-2.0605,-2.0605,-2.0605,-2.0605,-2.0605,-2.0605,-2.0605,-2.0605,-2.0605,-2.083,-2.1259,-2.1924,-2.2451,-2.2847,-2.3033,-2.3091,-2.3091,-2.8492,-2.8241,-2.8269,-2.8625,-2.8699,-2.8705,-2.8694,-2.8733,-2.8922,-2.9356,-2.9845,-3.015,-3.009,-3.015,-2.9954,-2.9454,-2.8798,-2.8412,-2.8348,-2.8149,-2.7998,-2.7998,-2.7951,-2.7951,-2.7951,-2.7522,-2.6964,-2.6267,-2.5847,-2.5255,-2.4497,-2.4497,-2.4497,-2.4497,-2.4497,-2.4528,-2.4598,-2.5231,-2.5987,-2.6713,-2.6524,-2.6177,-2.5688,-2.5257,-2.468,-2.4108,-2.3618,-2.346,-2.346,-2.346,-2.3276,-2.3091,-2.3091,-2.2967,-2.2834,-2.2774,-2.2345,-2.19,-2.184,-2.1549,-2.1257,-2.1257,-2.1207,-2.1205,-2.1205,-2.1359,-2.1474,-2.1474,-2.1617,-2.1769,-2.1769,-2.1769,-2.1807,-2.1807,-2.1807,-2.1807,-2.1807,-2.1807,-2.1807,-2.1807,-2.1807,0.0,-2.1807,-2.1807,-2.1617,-2.1244,-2.1205,-2.1002,-2.0605,-2.0605,-2.0605,-2.0605,-2.0605,-2.0605,-2.0605,-2.0605,-2.0605,-2.0605,-2.0605,-2.0605,-2.0605,-2.0605,-2.0605,-2.0605,-2.0605,-2.0605,-2.0605,-2.0605,-2.083,-2.1278,-2.2119,-2.2461,-2.2568,-2.2945,-2.3091,-2.3091,-2.8363,-2.8572,-2.8757,-2.8632,-2.8643,-2.8611,-2.8627,-2.901,-2.9287,-2.9373,-2.9799,-3.0098,-3.0098,-3.0098,-2.9906,-2.9426,-2.8956,-2.846,-2.8113,-2.8045,-2.7998,-2.7998,-2.7773,-2.7678,-2.7678,-2.7416,-2.6863,-2.5965,-2.5892,-2.5391,-2.4497,-2.4497,-2.4497,-2.4497,-2.4497,-2.4627,-2.4842,-2.5319,-2.5701,-2.5973,-2.6106,-2.5938,-2.5454,-2.4822,-2.4251,-2.383,-2.3345,-2.3178,-2.3178,-2.3178,-2.3144,-2.3091,-2.3091,-2.3086,-2.3002,-2.265,-2.2487,-2.2291,-2.1989,-2.1648,-2.1432,-2.1432,-2.132,-2.1205,-2.1205,-2.1244,-2.1244,-2.1244,-2.1397,-2.154,-2.154,-2.1693,-2.1807,-2.1807,-2.1807,-2.1807,-2.1807,-2.1807,-2.1807,-2.1807,-2.1807,-2.1807,-2.1807,-2.1807,-2.1617,-2.1244,-2.1205,-2.1002,-2.0605,-2.0605,-2.0605,-2.0605,-2.0605,-2.0605,-2.0605,-2.0605,-2.0605,-2.0605,-2.0605,-2.0605,-2.0605,-2.0605,-2.0605,-2.0605,-2.0605,-2.0605,-2.0605,-2.0605,-2.083,-2.1249,-2.1797,-2.2207,-2.2568,-2.2945,-2.3091,-2.3091,-2.8494,-2.8622,-2.8851,-2.8928,-2.9166,-2.9415,-2.9653,-2.9891,-2.9878,-2.9386,-2.9522,-2.9763,-3.0004,-2.9805,-2.9574,-2.9344,-2.8673,-2.817,-2.794,-2.7757,-2.7631,-2.7631,-2.7489,-2.7441,-2.7441,-2.7357,-2.6853,-2.5875,-2.5875,-2.542,-2.4497,-2.4497,-2.4497,-2.4497,-2.4497,-2.4669,-2.491,-2.5169,-2.542,-2.5664,-2.5579,-2.5307,-2.4874,-2.4304,-2.3828,-2.3428,-2.3169,-2.3091,-2.3091,-2.3091,-2.2955,-2.2808,-2.3023,-2.2945,-2.2769,-2.2789,-2.2643,-2.2471,-2.2266,-2.177,-2.1351,-2.1351,-2.1096,-2.0886,-2.0886,-2.0974,-2.1051,-2.1051,-2.1205,-2.1397,-2.1464,-2.1655,-2.1807,-2.1807,-2.1807,-2.1807,-2.1807,-2.1807,-2.1714,-2.1476,-2.1662,-2.1676,-2.1326,-2.1521,-2.1512,-2.1205,-2.1089,-2.0896,-2.0605,-2.0605,-2.0605,-2.0605,-2.0605,-2.0605,-2.0605,-2.0605,-2.0605,-2.0605,-2.0605,-2.0605,-2.0605,-2.0605,-2.0605,-2.0605,-2.0605,-2.0605,-2.0605,-2.0605,-2.0693,-2.0957,-2.1631,-2.2012,-2.2266,-2.2857,-2.3091,-2.3091,-2.8783,-2.8835,-2.9052,-2.9518,-2.9901,-3.0263,-3.0626,-3.0688,-3.0419,-2.9694,-2.9508,-2.9591,-2.9953,-2.9673,-2.9415,-2.9311,-2.8545,-2.8028,-2.7935,-2.751,-2.7309,-2.7309,-2.7309,-2.7309,-2.7309,-2.7309,-2.6853,-2.5875,-2.5875,-2.542,-2.4497,-2.4497,-2.4497,-2.4497,-2.4497,-2.4574,-2.4679,-2.4882,-2.5045,-2.5142,-2.4987,-2.4668,-2.4248,-2.3916,-2.3516,-2.3091,-2.3091,-2.3091,-2.3091,-2.3091,-2.2818,-2.2588,-2.2964,-2.2808,-2.2598,-2.2974,-2.2867,-2.2646,-2.2646,-2.2048,-2.1444,-2.1356,-2.1035,-2.0723,-2.0625,-2.0731,-2.0829,-2.0829,-2.0984,-2.1205,-2.1474,-2.1617,-2.1769,-2.1807,-2.1807,-2.1776,-2.1673,-2.1662,-2.1487,-2.1021,-2.1253,-2.1302,-2.0849,-2.1069,-2.1209,-2.1128,-2.0984,-2.0819,-2.0605,-2.0605,-2.0605,-2.0605,-2.0605,-2.0605,-2.0605,-2.0605,-2.0605,-2.0605,-2.0605,-2.0605,-2.0605,-2.0605,-2.0605,-2.0605,-2.0605,-2.0605,-2.0605,-2.0605,-2.0664,-2.083,-2.1572,-2.1943,-2.2109,-2.2818,-2.3091,-2.3091,-2.9321,-2.958,-3.0015,-3.0481,-3.0594,-3.0636,-3.0677,-3.0688,-3.0657,-3.0563,-3.0191,-2.9942,-2.9994,-2.9953,-2.9766,-2.9342,-2.8835,-2.8369,-2.7945,-2.751,-2.7309,-2.7309,-2.7309,-2.7309,-2.7309,-2.7309,-2.6853,-2.5875,-2.5875,-2.542,-2.4497,-2.4497,-2.4497,-2.4497,-2.4497,-2.426,-2.3931,-2.4384,-2.4327,-2.399,-2.4326,-2.4228,-2.3848,-2.3809,-2.3516,-2.3091,-2.3091,-2.3091,-2.3091,-2.3091,-2.2818,-2.2588,-2.2964,-2.2808,-2.2598,-2.2974,-2.3062,-2.3033,-2.3033,-2.2701,-2.2295,-2.1924,-2.1494,-2.1064,-2.0693,-2.0605,-2.0644,-2.0644,-2.078,-2.1061,-2.1436,-2.1512,-2.1578,-2.1769,-2.1807,-2.1662,-2.1238,-2.1176,-2.101,-2.0509,-2.0401,-2.0477,-2.0751,-2.0514,-2.0478,-2.0915,-2.0906,-2.0819,-2.0605,-2.0605,-2.0605,-2.0605,-2.0605,-2.0605,-2.0605,-2.0605,-2.0605,-2.0605,-2.0605,-2.0605,-2.0605,-2.0605,-2.0605,-2.0605,-2.0605,-2.0605,-2.0605,-2.0605,-2.0801,-2.1181,-2.1699,-2.2119,-2.251,-2.2925,-2.3091,-2.3091,-2.9756,-2.987,-3.0139,-3.0605,-3.0688,-3.0781,-3.106,-3.0864,-3.0688,-3.0688,-3.0284,-2.9994,-2.9994,-2.9994,-2.9922,-2.9735,-2.9042,-2.8535,-2.8349,-2.7665,-2.7309,-2.7309,-2.7309,-2.7309,-2.7309,-2.7309,-2.6853,-2.5875,-2.5875,-2.542,-2.4497,-2.4497,-2.4497,-2.4497,-2.4368,-2.4153,-2.3827,-2.4137,-2.4103,-2.3809,-2.3975,-2.3935,-2.376,-2.3496,-2.3247,-2.3091,-2.3091,-2.3091,-2.3091,-2.3091,-2.2818,-2.2588,-2.2964,-2.2808,-2.2598,-2.2974,-2.3091,-2.3091,-2.3091,-2.2789,-2.2412,-2.1992,-2.1562,-2.1073,-2.0703,-2.0605,-2.0605,-2.0605,-2.078,-2.0945,-2.1099,-2.1244,-2.1359,-2.1436,-2.1436,-2.1273,-2.0863,-2.0802,-2.0537,-1.9768,-1.9875,-1.9935,-1.9701,-1.9969,-2.0244,-2.029,-2.0545,-2.0693,-2.0605,-2.0605,-2.0605,-2.0605,-2.0605,-2.0605,-2.0605,-2.0605,-2.0605,-2.0605,-2.0605,-2.0605,-2.0605,-2.0605,-2.0605,-2.0605,-2.0605,-2.0605,-2.0625,-2.0859,-2.1034,-2.1268,-2.1992,-2.2363,-2.2568,-2.2945,-2.3091,-2.3091,-2.9994,-2.9994,-3.0139,-3.0605,-3.0688,-3.0801,-3.1122,-3.0895,-3.0636,-3.0501,-3.0201,-2.9994,-2.9994,-2.9994,-2.9942,-2.9808,-2.9073,-2.8556,-2.8421,-2.7686,-2.7309,-2.7309,-2.7309,-2.7309,-2.7309,-2.7309,-2.6853,-2.5875,-2.5875,-2.542,-2.4497,-2.4497,-2.4454,-2.4411,-2.4249,-2.4024,-2.3731,-2.3865,-2.3816,-2.3603,-2.3603,-2.3603,-2.3564,-2.3218,-2.3091,-2.3091,-2.3091,-2.3091,-2.3091,-2.3091,-2.2896,-2.2744,-2.3003,-2.2808,-2.2598,-2.2974,-2.3091,-2.3091,-2.3091,-2.2789,-2.2412,-2.1992,-2.1562,-2.1073,-2.0703,-2.0605,-2.0605,-2.0605,-2.0693,-2.0819,-2.0906,-2.1022,-2.1138,-2.1167,-2.1205,-2.1054,-2.0612,-2.0478,-2.0115,-1.9314,-1.9329,-1.9289,-1.8924,-1.9542,-1.9925,-1.9902,-2.0312,-2.0605,-2.0605,-2.0605,-2.0605,-2.0605,-2.0605,-2.0605,-2.0605,-2.0605,-2.0605,-2.0605,-2.0605,-2.0605,-2.0605,-2.0605,-2.0605,-2.0605,-2.0605,-2.0674,-2.0791,-2.1064,-2.1346,-2.1629,-2.2275,-2.2588,-2.2691,-2.2984,-2.3091,-2.3091,-2.9994,-2.9994,-3.0139,-3.0605,-3.0688,-3.0688,-3.0698,-3.0688,-3.0522,-3.0067,-3.0005,-2.9994,-2.9994,-2.9994,-2.9808,-2.9352,-2.8887,-2.8421,-2.7966,-2.751,-2.7309,-2.7309,-2.7309,-2.7309,-2.7309,-2.7309,-2.6853,-2.5875,-2.5875,-2.542,-2.4497,-2.4497,-2.4368,-2.4206,-2.4206,-2.3937,-2.3503,-2.3513,-2.3329,-2.3101,-2.3101,-2.3101,-2.3101,-2.3091,-2.3091,-2.3091,-2.3091,-2.3091,-2.3091,-2.3091,-2.3091,-2.3091,-2.3091,-2.2808,-2.2598,-2.2974,-2.3091,-2.3091,-2.3091,-2.2789,-2.2412,-2.1992,-2.1562,-2.1073,-2.0703,-2.0605,-2.0605,-2.0605,-2.0605,-2.0654,-2.0867,-2.0906,-2.0984,-2.1167,-2.1205,-2.1054,-2.0564,-2.0169,-1.9736,-1.9274,-1.8694,-1.8482,-1.8864,-1.9141,-1.9463,-1.9883,-2.0312,-2.0605,-2.0605,-2.0605,-2.0605,-2.0605,-2.0605,-2.0605,-2.0605,-2.0605,-2.0605,-2.0605,-2.0605,-2.0605,-2.0605,-2.0605,-2.0605,-2.0605,-2.0605,-2.082,-2.119,-2.119,-2.1697,-2.25,-2.251,-2.2721,-2.3091,-2.3091,-2.3091,-2.3091,-2.9994,-2.9994,-3.0139,-3.0605,-3.0429,-3.0325,-3.0636,-3.0419,-3.016,-3.0015,-2.9715,-2.9528,-2.9528,-2.9528,-2.9466,-2.9321,-2.8597,-2.8079,-2.7886,-2.751,-2.7309,-2.7309,-2.7309,-2.7309,-2.7309,-2.7309,-2.7009,-2.6397,-2.6086,-2.5331,-2.4292,-2.4292,-2.4153,-2.3927,-2.3764,-2.3634,-2.3503,-2.3319,-2.3188,-2.3091,-2.3091,-2.3091,-2.3091,-2.3091,-2.3091,-2.3091,-2.3091,-2.3091,-2.3091,-2.3091,-2.3091,-2.3091,-2.3091,-2.3003,-2.2925,-2.3052,-2.3091,-2.3033,-2.275,-2.2617,-2.2344,-2.158,-2.1298,-2.1073,-2.0703,-2.0605,-2.0605,-2.0605,-2.0605,-2.0605,-2.0693,-2.0693,-2.0731,-2.077,-2.0799,-2.0612,-2.0169,-1.9991,-1.9637,-1.8872,-1.862,-1.8438,-1.8291,-1.8903,-1.9346,-1.9473,-2.0194,-2.0605,-2.0605,-2.0605,-2.0605,-2.0605,-2.0605,-2.0605,-2.0605,-2.0605,-2.0605,-2.0605,-2.0605,-2.0723,-2.1025,-2.1025,-2.1182,-2.1505,-2.1505,-2.1543,-2.1699,-2.1982,-2.2266,-2.2539,-2.2779,-2.2974,-2.3091,-2.3091,-2.3091,-2.3091,-2.9994,-2.9994,-3.0087,-3.0377,-3.0191,-3.0098,-3.0387,-3.018,-2.9994,-2.9994,-2.9591,-2.9301,-2.9301,-2.9001,-2.8783,-2.8783,-2.8255,-2.7852,-2.7686,-2.7417,-2.7309,-2.7309,-2.7309,-2.7309,-2.7309,-2.7309,-2.7081,-2.6615,-2.6022,-2.529,-2.4461,-2.4364,-2.4099,-2.3667,-2.3547,-2.346,-2.3319,-2.3178,-2.3091,-2.3091,-2.3091,-2.3003,-2.2857,-2.2857,-2.2857,-2.2857,-2.2857,-2.2955,-2.3091,-2.3091,-2.3091,-2.3091,-2.3091,-2.3091,-2.3091,-2.3091,-2.2984,-2.2808,-2.2588,-2.2275,-2.1863,-2.1327,-2.1103,-2.0908,-2.0664,-2.0605,-2.0605,-2.0605,-2.0605,-2.0605,-2.0605,-2.0605,-2.0605,-2.0605,-2.0605,-2.0507,-2.0195,-2.0019,-1.9717,-1.9143,-1.8802,-1.85,-1.8237,-1.8877,-1.9287,-1.9287,-2.0126,-2.0605,-2.0605,-2.0605,-2.0605,-2.0605,-2.0605,-2.0605,-2.0605,-2.0605,-2.0605,-2.0605,-2.0732,-2.0967,-2.12,-2.1366,-2.1621,-2.1885,-2.1885,-2.1982,-2.2139,-2.2402,-2.2607,-2.273,-2.2994,-2.3091,-2.3091,-2.3091,-2.3091,-2.3091,-2.9994,-2.9994,-2.9994,-2.9994,-2.9994,-2.9994,-2.9994,-2.9994,-2.9994,-2.9994,-2.9559,-2.9259,-2.9259,-2.8431,-2.7872,-2.7872,-2.7872,-2.7696,-2.733,-2.7309,-2.7309,-2.7309,-2.7309,-2.7309,-2.7309,-2.7309,-2.7081,-2.6615,-2.588,-2.5314,-2.4931,-2.4624,-2.4117,-2.3499,-2.347,-2.3319,-2.3091,-2.3091,-2.3081,-2.3052,-2.3052,-2.2799,-2.2471,-2.2471,-2.2471,-2.2471,-2.2471,-2.2715,-2.3013,-2.3042,-2.3033,-2.3013,-2.3042,-2.3033,-2.3023,-2.3081,-2.2799,-2.251,-2.248,-2.1824,-2.119,-2.1161,-2.0869,-2.0605,-2.0605,-2.0605,-2.0605,-2.0605,-2.0605,-2.0605,-2.0605,-2.0605,-2.0605,-2.0605,-2.0605,-2.0605,-2.0605,-2.0215,-1.9951,-1.9922,-1.9173,-1.8676,-1.8646,-1.9072,-1.9336,-1.9336,-2.0136,-2.0605,-2.0605,-2.0605,-2.0605,-2.0605,-2.0605,-2.0605,-2.0605,-2.0605,-2.0615,-2.0654,-2.1035,-2.122,-2.1298,-2.1738,-2.1943,-2.1973,-2.1973,-2.2197,-2.2559,-2.2559,-2.274,-2.3091,-2.3091,-2.3091,-2.3091,-2.3091,-2.3091,-2.3091,-2.9994,-2.9994,-2.9994,-2.9994,-2.9994,-2.9994,-2.9994,-2.9994,-2.9994,-2.9994,-2.929,-2.8783,-2.8783,-2.7955,-2.7417,-2.7417,-2.7417,-2.7423,-2.732,-2.7309,-2.7309,-2.7309,-2.7309,-2.7309,-2.7309,-2.7309,-2.7081,-2.6615,-2.6197,-2.5737,-2.5108,-2.4486,-2.4044,-2.3712,-2.3335,-2.3144,-2.3091,-2.3091,-2.2916,-2.2656,-2.2656,-2.2412,-2.2031,-2.2031,-2.2031,-2.2031,-2.2031,-2.21,-2.2236,-2.2549,-2.2451,-2.2236,-2.2559,-2.2441,-2.2305,-2.2906,-2.2799,-2.2441,-2.2119,-2.1641,-2.1112,-2.081,-2.0683,-2.0605,-2.0605,-2.0605,-2.0605,-2.0605,-2.0605,-2.0605,-2.0605,-2.0605,-2.0605,-2.0605,-2.0605,-2.0605,-2.0605,-2.0517,-2.0283,-1.9951,-1.9736,-1.9482,-1.916,-1.9521,-1.9766,-1.9766,-2.0302,-2.0605,-2.0605,-2.0605,-2.0605,-2.0605,-2.0605,-2.0605,-2.0605,-2.0605,-2.0732,-2.1074,-2.1142,-2.1541,-2.2217,-2.2314,-2.2539,-2.2799,-2.2799,-2.2857,-2.2945,-2.2945,-2.3003,-2.3091,-2.3091,-2.3091,-2.3091,-2.3091,-2.3091,-2.3091,-2.9994,-2.9994,-2.9994,-2.9994,-2.9994,-2.9994,-2.9994,-2.9994,-2.9994,-2.9994,-2.9187,-2.8618,-2.8618,-2.78,-2.7309,-2.7309,-2.7309,-2.7309,-2.7309,-2.7309,-2.7309,-2.7309,-2.7309,-2.7309,-2.7309,-2.7309,-2.7185,-2.6926,-2.6664,-2.6158,-2.547,-2.4943,-2.4398,-2.3779,-2.3545,-2.3286,-2.3091,-2.3091,-2.2964,-2.2783,-2.2588,-2.2266,-2.1865,-2.167,-2.1592,-2.1592,-2.1592,-2.1719,-2.1953,-2.2373,-2.2236,-2.1963,-2.2383,-2.2217,-2.1982,-2.2432,-2.2223,-2.1885,-2.165,-2.1269,-2.0869,-2.0664,-2.0605,-2.0605,-2.0605,-2.0605,-2.0664,-2.083,-2.0869,-2.0928,-2.1133,-2.1006,-2.0869,-2.0869,-2.0742,-2.0605,-2.0605,-2.0605,-2.0517,-2.0244,-2.0039,-1.9824,-1.96,-1.9775,-1.9912,-1.9912,-2.0312,-2.0693,-2.0859,-2.0869,-2.0781,-2.0615,-2.0605,-2.0605,-2.0605,-2.0762,-2.0996,-2.12,-2.159,-2.2019,-2.2519,-2.2672,-2.2877,-2.3091,-2.3091,-2.3091,-2.3091,-2.3091,-2.3091,-2.3091,-2.3091,-2.3091,-2.3091,-2.3091,-2.3091,-2.3091,-2.9994,-2.9994,-2.9994,-2.9994,-2.9994,-2.9994,-2.9994,-2.9994,-2.9994,-2.9994,-2.9187,-2.8618,-2.8618,-2.78,-2.7309,-2.7309,-2.7309,-2.7309,-2.7309,-2.7309,-2.7309,-2.7309,-2.7309,-2.7278,-2.7206,-2.7195,-2.7195,-2.7195,-2.7003,-2.6601,-2.598,-2.5627,-2.4967,-2.4065,-2.3893,-2.3584,-2.3188,-2.312,-2.3062,-2.2974,-2.2656,-2.2217,-2.1748,-2.1337,-2.1151,-2.1093,-2.1093,-2.1377,-2.1758,-2.2246,-2.2139,-2.1875,-2.2353,-2.2178,-2.1787,-2.1787,-2.1475,-2.1112,-2.1181,-2.0908,-2.0605,-2.0605,-2.0654,-2.0703,-2.0703,-2.0762,-2.0869,-2.126,-2.1298,-2.1445,-2.1816,-2.1533,-2.119,-2.115,-2.082,-2.0527,-2.0489,-2.0489,-2.0489,-2.0489,-2.0168,-1.9963,-2.0069,-2.0031,-2.0061,-2.0129,-2.0479,-2.0858,-2.1188,-2.1217,-2.1032,-2.0644,-2.0683,-2.0722,-2.0683,-2.0955,-2.1178,-2.1314,-2.2042,-2.2464,-2.2584,-2.2892,-2.3057,-2.3091,-2.3091,-2.3091,-2.3047,-2.3047,-2.3047,-2.3013,-2.3057,-2.3047,-2.3057,-2.3101,-2.3091,-2.3091,-2.9994,-2.9994,-2.9994,-2.9994,-2.9994,-2.9994,-2.9994,-2.9994,-2.9994,-2.9994,-2.9187,-2.8618,-2.8618,-2.78,-2.7309,-2.7309,-2.7309,-2.7309,-2.7309,-2.7309,-2.7309,-2.7309,-2.7309,-2.7123,-2.6729,-2.6718,-2.6718,-2.6718,-2.6849,-2.686,-2.6683,-2.5882,-2.5387,-2.5172,-2.4212,-2.375,-2.3662,-2.3247,-2.2886,-2.2607,-2.2539,-2.2041,-2.1288,-2.122,-2.0996,-2.0713,-2.0713,-2.0752,-2.0928,-2.1709,-2.1699,-2.1434,-2.2266,-2.1931,-2.1298,-2.1298,-2.1025,-2.0752,-2.1093,-2.0908,-2.0605,-2.0605,-2.085,-2.1093,-2.1093,-2.1416,-2.1699,-2.1768,-2.1787,-2.1807,-2.1875,-2.1533,-2.115,-2.097,-2.0613,-2.0264,-2.0059,-2.002,-2.002,-2.002,-2.0119,-2.0381,-2.0689,-2.0747,-2.091,-2.1216,-2.1148,-2.1132,-2.1208,-2.1208,-2.1078,-2.0776,-2.1167,-2.1269,-2.1104,-2.085,-2.1018,-2.1722,-2.1855,-2.2232,-2.2751,-2.2818,-2.2925,-2.3091,-2.3091,-2.3013,-2.2847,-2.2847,-2.2706,-2.253,-2.275,-2.2847,-2.2891,-2.3057,-2.3091,-2.3091,-2.9994,-2.9994,-2.9994,-2.9994,-2.9994,-2.9994,-2.9994,-2.9994,-2.9911,-2.9653,-2.9032,-2.8514,-2.8266,-2.7655,-2.7309,-2.7309,-2.7309,-2.7309,-2.7309,-2.7309,-2.7309,-2.7309,-2.7309,-2.7092,-2.6625,-2.6366,-2.6196,-2.6196,-2.6579,-2.6664,-2.6533,-2.6327,-2.5979,-2.5483,-2.47,-2.414,-2.376,-2.3276,-2.2984,-2.2789,-2.2607,-2.2139,-2.1562,-2.1288,-2.0957,-2.0605,-2.0605,-2.0723,-2.1025,-2.167,-2.1748,-2.1699,-2.2314,-2.209,-2.1543,-2.1268,-2.0918,-2.0703,-2.1073,-2.1044,-2.0977,-2.1261,-2.1435,-2.1582,-2.1582,-2.1738,-2.1953,-2.2178,-2.2142,-2.2126,-2.2359,-2.172,-2.1185,-2.1062,-2.0408,-1.9872,-1.9754,-1.9666,-1.9671,-1.9854,-2.0083,-2.0403,-2.081,-2.0999,-2.1094,-2.1131,-2.1024,-2.1044,-2.1141,-2.115,-2.1072,-2.0927,-2.0911,-2.0848,-2.0773,-2.0843,-2.1048,-2.1429,-2.1792,-2.2139,-2.2451,-2.253,-2.2662,-2.2706,-2.2706,-2.2618,-2.2407,-2.2407,-2.2362,-2.2264,-2.2362,-2.2495,-2.2618,-2.2838,-2.2925,-2.2969,-2.9994,-2.9994,-2.9994,-2.9994,-2.9994,-2.9994,-2.9994,-2.9901,-2.9704,-2.9352,-2.8804,-2.8317,-2.7966,-2.7521,-2.7309,-2.7309,-2.7309,-2.7309,-2.7309,-2.7309,-2.7309,-2.7309,-2.7102,-2.6822,-2.647,-2.5968,-2.573,-2.573,-2.6231,-2.6321,-2.6156,-2.6421,-2.6212,-2.5475,-2.4979,-2.442,-2.3849,-2.3374,-2.3144,-2.3062,-2.274,-2.2402,-2.1992,-2.1619,-2.126,-2.0909,-2.0909,-2.1094,-2.1414,-2.1885,-2.2031,-2.21,-2.2519,-2.2373,-2.1963,-2.159,-2.1221,-2.0967,-2.1132,-2.1268,-2.1465,-2.1807,-2.1963,-2.2031,-2.2031,-2.2109,-2.2266,-2.2512,-2.2452,-2.2385,-2.2614,-2.1878,-2.117,-2.095,-2.0129,-1.943,-1.925,-1.9194,-1.9236,-1.9561,-1.9916,-2.0251,-2.0688,-2.0922,-2.1001,-2.0863,-2.0787,-2.0839,-2.0922,-2.0896,-2.0819,-2.0673,-2.041,-2.026,-2.0402,-2.0652,-2.0806,-2.0905,-2.1496,-2.1785,-2.1865,-2.2087,-2.2176,-2.2264,-2.2264,-2.2132,-2.1919,-2.1874,-2.182,-2.182,-2.182,-2.1998,-2.2264,-2.253,-2.2715,-2.2803,-2.9994,-2.9994,-2.9994,-2.9994,-2.9994,-2.9994,-2.9994,-2.9632,-2.9342,-2.9311,-2.8524,-2.7966,-2.7875,-2.7521,-2.7309,-2.7309,-2.7309,-2.7309,-2.7309,-2.7309,-2.7309,-2.7309,-2.648,-2.6013,-2.5927,-2.5502,-2.523,-2.523,-2.572,-2.5927,-2.5937,-2.5706,-2.5579,-2.5473,-2.4801,-2.4356,-2.4063,-2.3638,-2.3319,-2.3091,-2.3062,-2.2799,-2.2461,-2.2432,-2.2158,-2.1787,-2.1787,-2.1807,-2.1904,-2.2324,-2.2471,-2.2539,-2.2916,-2.276,-2.2461,-2.2422,-2.2119,-2.1709,-2.1298,-2.1533,-2.1846,-2.1875,-2.2178,-2.2471,-2.2471,-2.2721,-2.2969,-2.279,-2.2755,-2.2633,-2.222,-2.1733,-2.109,-2.0153,-1.9564,-1.8959,-1.8204,-1.8413,-1.8678,-1.8704,-1.9368,-2.0002,-2.0384,-2.0638,-2.0825,-2.0971,-2.0828,-2.0621,-2.0385,-2.0339,-2.0167,-1.9729,-1.972,-1.9952,-2.0288,-1.9987,-1.9995,-2.0339,-2.0682,-2.0916,-2.1087,-2.1338,-2.1571,-2.1731,-2.1731,-2.1651,-2.1437,-2.1186,-2.1087,-2.1087,-2.1087,-2.1365,-2.1776,-2.2052,-2.2451,-2.2803,-2.9994,-2.9994,-2.9994,-2.9994,-2.9994,-2.9901,-2.9611,-2.9415,-2.9094,-2.8524,-2.8142,-2.7821,-2.7541,-2.7413,-2.7309,-2.7309,-2.7309,-2.7309,-2.7309,-2.7309,-2.7309,-2.7309,-2.6698,-2.6221,-2.593,-2.5451,-2.5055,-2.4766,-2.5254,-2.5482,-2.5482,-2.5671,-2.5669,-2.5477,-2.4984,-2.4604,-2.4296,-2.3726,-2.346,-2.3319,-2.3188,-2.2847,-2.251,-2.251,-2.2246,-2.1885,-2.1885,-2.2051,-2.2295,-2.2461,-2.2685,-2.2886,-2.3042,-2.2984,-2.2808,-2.2588,-2.2402,-2.2236,-2.2029,-2.2148,-2.2334,-2.2598,-2.2783,-2.2857,-2.2857,-2.2984,-2.3057,-2.2838,-2.2583,-2.223,-2.1767,-2.104,-2.0376,-1.9844,-1.9325,-1.8769,-1.8322,-1.8261,-1.8349,-1.858,-1.9035,-1.9535,-2.0043,-2.0293,-2.0399,-2.032,-2.0246,-2.0011,-1.9646,-1.9325,-1.9088,-1.8904,-1.8784,-1.8921,-1.9371,-1.9203,-1.9294,-1.96,-1.9874,-2.0102,-2.0329,-2.0789,-2.0925,-2.0835,-2.1015,-2.0835,-2.0482,-2.0374,-2.0329,-2.0329,-2.051,-2.0781,-2.115,-2.1651,-2.1963,-2.2176,-2.9994,-2.9994,-2.9953,-2.9808,-2.9777,-2.9622,-2.9156,-2.897,-2.8649,-2.8007,-2.78,-2.7603,-2.734,-2.7309,-2.7309,-2.7309,-2.7309,-2.7309,-2.7309,-2.7309,-2.7309,-2.7309,-2.6864,-2.647,-2.6148,-2.5533,-2.5034,-2.4714,-2.489,-2.4972,-2.4972,-2.5326,-2.5372,-2.5194,-2.4897,-2.4622,-2.4371,-2.3894,-2.3634,-2.3503,-2.3319,-2.3012,-2.2672,-2.2672,-2.2529,-2.2275,-2.2275,-2.2461,-2.2672,-2.2672,-2.2857,-2.312,-2.3257,-2.3305,-2.3262,-2.2789,-2.2672,-2.2672,-2.2672,-2.2672,-2.274,-2.3023,-2.3091,-2.3091,-2.3091,-2.3047,-2.2925,-2.2627,-2.222,-2.1722,-2.1141,-2.0427,-1.973,-1.9309,-1.8864,-1.8395,-1.8004,-1.7954,-1.8033,-1.8279,-1.8624,-1.9011,-1.9438,-1.97,-1.9745,-1.9471,-1.9471,-1.9279,-1.8866,-1.8542,-1.8357,-1.8265,-1.8087,-1.8087,-1.8311,-1.8504,-1.8689,-1.8866,-1.9142,-1.9371,-1.9563,-2.0011,-2.0155,-2.0073,-2.0255,-2.011,-1.97,-1.97,-1.97,-1.97,-1.9874,-2.0155,-2.0518,-2.106,-2.1419,-2.1687,-2.9994,-2.9994,-2.9849,-2.9384,-2.9301,-2.9145,-2.868,-2.8214,-2.7924,-2.7914,-2.7531,-2.7309,-2.7309,-2.7309,-2.7309,-2.7309,-2.7309,-2.7309,-2.7309,-2.7309,-2.7309,-2.7309,-2.6864,-2.6615,-2.6615,-2.5699,-2.5199,-2.5189,-2.4724,-2.4507,-2.4497,-2.4497,-2.4497,-2.4497,-2.4497,-2.4368,-2.4206,-2.4206,-2.3937,-2.3503,-2.3503,-2.3329,-2.3101,-2.3101,-2.311,-2.311,-2.311,-2.311,-2.311,-2.311,-2.311,-2.3179,-2.3662,-2.3799,-2.3711,-2.3227,-2.3101,-2.3101,-2.3101,-2.3091,-2.3091,-2.3091,-2.3091,-2.3091,-2.3091,-2.2925,-2.2671,-2.2185,-2.1722,-2.1177,-2.0428,-1.992,-1.9294,-1.8449,-1.8086,-1.77,-1.7096,-1.7332,-1.7583,-1.7583,-1.8148,-1.8488,-1.8496,-1.8681,-1.8735,-1.8496,-1.8488,-1.8404,-1.8133,-1.8087,-1.7947,-1.7729,-1.7675,-1.7574,-1.7279,-1.7846,-1.8087,-1.8087,-1.8357,-1.8589,-1.8781,-1.905,-1.9342,-1.9587,-1.9587,-1.9433,-1.9188,-1.9188,-1.9188,-1.9188,-1.9188,-1.9471,-1.9928,-2.0201,-2.0781,-2.1445,-2.9994,-2.9735,-2.9466,-2.9332,-2.9032,-2.8659,-2.8204,-2.8007,-2.781,-2.75,-2.7392,-2.7309,-2.7309,-2.7309,-2.7309,-2.7309,-2.7309,-2.7309,-2.7309,-2.7309,-2.7309,-2.7309,-2.7175,-2.6946,-2.6625,-2.631,-2.5865,-2.5189,-2.5055,-2.4817,-2.4497,-2.4497,-2.4497,-2.4497,-2.4497,-2.4454,-2.4411,-2.4249,-2.412,-2.4011,-2.3919,-2.3861,-2.3801,-2.3971,-2.3988,-2.3988,-2.3988,-2.3988,-2.3988,-2.3988,-2.3988,-2.4062,-2.4189,-2.4228,-2.4199,-2.4027,-2.3828,-2.3594,-2.3594,-2.3369,-2.3091,-2.3091,-2.3091,-2.3047,-2.2925,-2.2838,-2.2618,-2.1963,-2.1454,-2.0862,-1.9965,-1.9371,-1.8834,-1.8272,-1.8072,-1.7903,-1.7537,-1.7604,-1.7665,-1.7665,-1.7848,-1.7994,-1.8218,-1.8265,-1.8272,-1.8218,-1.804,-1.7908,-1.7815,-1.766,-1.752,-1.7426,-1.7426,-1.738,-1.7279,-1.7473,-1.7621,-1.7815,-1.7908,-1.8087,-1.8319,-1.8589,-1.8635,-1.8558,-1.8735,-1.8689,-1.8404,-1.8404,-1.8404,-1.8458,-1.8781,-1.9012,-1.9242,-2.0019,-2.0555,-2.1006,-2.9994,-2.9766,-2.9466,-2.9094,-2.8804,-2.84,-2.7759,-2.7655,-2.7562,-2.734,-2.7309,-2.7309,-2.7309,-2.7309,-2.7309,-2.7309,-2.7309,-2.7309,-2.7309,-2.7309,-2.7309,-2.7309,-2.7309,-2.7175,-2.6895,-2.6708,-2.6216,-2.5492,-2.5272,-2.4952,-2.4497,-2.4497,-2.46,-2.4776,-2.4776,-2.4869,-2.5034,-2.4936,-2.4825,-2.4723,-2.4576,-2.4451,-2.438,-2.4408,-2.4414,-2.4414,-2.4414,-2.4414,-2.4414,-2.4414,-2.4531,-2.4639,-2.4473,-2.4531,-2.4639,-2.4473,-2.4238,-2.4004,-2.3838,-2.3594,-2.3315,-2.314,-2.3091,-2.3057,-2.2847,-2.2671,-2.2309,-2.1597,-2.0985,-2.0351,-1.963,-1.8987,-1.848,-1.8199,-1.7937,-1.7714,-1.7574,-1.7527,-1.7527,-1.7527,-1.7527,-1.7621,-1.7753,-1.78,-1.78,-1.78,-1.7621,-1.7527,-1.7527,-1.738,-1.7279,-1.7279,-1.7279,-1.7279,-1.7279,-1.7279,-1.738,-1.7527,-1.7527,-1.7667,-1.7955,-1.8087,-1.8125,-1.8087,-1.8265,-1.8179,-1.7947,-1.804,-1.804,-1.7994,-1.8365,-1.8596,-1.8789,-1.9563,-2.0147,-2.0654,-2.9994,-2.9963,-2.9653,-2.8773,-2.8587,-2.8266,-2.7444,-2.7309,-2.7309,-2.7309,-2.7309,-2.7309,-2.7309,-2.7309,-2.7309,-2.7309,-2.7309,-2.7309,-2.7309,-2.7309,-2.7309,-2.7309,-2.7309,-2.7309,-2.7309,-2.6895,-2.6428,-2.5875,-2.5482,-2.4993,-2.4497,-2.4497,-2.4745,-2.5189,-2.5189,-2.5471,-2.5875,-2.5875,-2.5805,-2.5609,-2.5366,-2.5091,-2.4861,-2.4614,-2.4541,-2.4541,-2.4541,-2.4541,-2.4541,-2.4541,-2.4795,-2.5059,-2.4658,-2.4805,-2.5049,-2.4648,-2.4502,-2.4394,-2.4014,-2.3848,-2.3691,-2.3257,-2.313,-2.3013,-2.2794,-2.2407,-2.1883,-2.1176,-2.0499,-1.9864,-1.9391,-1.8716,-1.8174,-1.8174,-1.7694,-1.7279,-1.7279,-1.7279,-1.7279,-1.7279,-1.7279,-1.7279,-1.7279,-1.7279,-1.7279,-1.7279,-1.7279,-1.7279,-1.7279,-1.7279,-1.7279,-1.7279,-1.7279,-1.7279,-1.7279,-1.7279,-1.7279,-1.7279,-1.7279,-1.7426,-1.7675,-1.7675,-1.7807,-1.804,-1.804,-1.79,-1.7675,-1.7947,-1.79,-1.7675,-1.7947,-1.8234,-1.8527,-1.9012,-1.9654,-2.0382,-2.9994,-2.9704,-2.928,-2.8711,-2.8317,-2.7893,-2.7392,-2.7309,-2.7309,-2.7309,-2.7309,-2.7309,-2.7309,-2.7309,-2.7309,-2.7309,-2.7309,-2.7309,-2.7309,-2.7309,-2.7309,-2.7309,-2.7309,-2.7309,-2.7309,-2.7206,-2.675,-2.5875,-2.5782,-2.5326,-2.4497,-2.4497,-2.4745,-2.5189,-2.5189,-2.5471,-2.5875,-2.5875,-2.5885,-2.5826,-2.5726,-2.5645,-2.5581,-2.5466,-2.5401,-2.5401,-2.5401,-2.5401,-2.5401,-2.5401,-2.5469,-2.5528,-2.543,-2.5469,-2.5528,-2.543,-2.5205,-2.4912,-2.4861,-2.4297,-2.3769,-2.3672,-2.3266,-2.2794,-2.253,-2.2264,-2.1913,-2.1276,-2.0547,-1.989,-1.9508,-1.8773,-1.8119,-1.7919,-1.7545,-1.7279,-1.7279,-1.7279,-1.7279,-1.7279,-1.7279,-1.7279,-1.7279,-1.7279,-1.7279,-1.7279,-1.7279,-1.7279,-1.7279,-1.7279,-1.7279,-1.7279,-1.7279,-1.7279,-1.7279,-1.7279,-1.7279,-1.7279,-1.7279,-1.7326,-1.738,-1.738,-1.7426,-1.7466,-1.7466,-1.7426,-1.738,-1.7473,-1.7426,-1.7426,-1.7667,-1.7955,-1.8226,-1.8689,-1.9333,-2.0155,-2.9994,-2.9798,-2.9415,-2.8731,-2.8411,-2.8028,-2.7413,-2.7309,-2.7309,-2.7309,-2.7309,-2.7309,-2.7309,-2.7309,-2.7309,-2.7309,-2.7309,-2.7309,-2.7309,-2.7309,-2.7309,-2.7309,-2.7309,-2.7309,-2.7309,-2.7309,-2.6853,-2.5875,-2.5875,-2.542,-2.4497,-2.4497,-2.4848,-2.5544,-2.5544,-2.5906,-2.6584,-2.6584,-2.6584,-2.6558,-2.6232,-2.6144,-2.6079,-2.579,-2.5693,-2.5693,-2.5693,-2.5693,-2.5693,-2.5693,-2.5693,-2.5693,-2.5693,-2.5693,-2.5693,-2.5693,-2.5566,-2.5342,-2.5174,-2.4793,-2.4355,-2.4141,-2.3735,-2.3242,-2.2773,-2.2128,-2.1536,-2.1331,-2.0442,-1.9638,-1.9349,-1.8705,-1.8152,-1.7845,-1.7538,-1.7279,-1.7279,-1.7279,-1.7279,-1.7279,-1.7279,-1.7279,-1.7279,-1.7279,-1.7279,-1.7279,-1.7279,-1.7279,-1.7279,-1.7279,-1.7279,-1.7279,-1.7279,-1.7279,-1.7279,-1.7279,-1.7279,-1.7279,-1.7279,-1.7279,-1.7279,-1.7279,-1.7279,-1.7279,-1.7279,-1.7279,-1.7279,-1.7279,-1.7279,-1.7333,-1.7426,-1.7667,-1.7955,-1.845,-1.9279,-2.0246,-2.9994,-2.9932,-2.9611,-2.8763,-2.8545,-2.8214,-2.7434,-2.7309,-2.7309,-2.7309,-2.7309,-2.7309,-2.7309,-2.7309,-2.7309,-2.7309,-2.7309,-2.7309,-2.7309,-2.7309,-2.7309,-2.7309,-2.7382,-2.7382,-2.7309,-2.7382,-2.6967,-2.6044,-2.5962,-2.5461,-2.4621,-2.4538,-2.5016,-2.5875,-2.5875,-2.6438,-2.7309,-2.7309,-2.7309,-2.7262,-2.6784,-2.6554,-2.6496,-2.5975,-2.5781,-2.5781,-2.5742,-2.5693,-2.5693,-2.5693,-2.5693,-2.5693,-2.5693,-2.5693,-2.5693,-2.5693,-2.5693,-2.5606,-2.5283,-2.5174,-2.5028,-2.4619,-2.4231,-2.3828,-2.3276,-2.2117,-2.1213,-2.141,-2.0386,-1.9416,-1.9235,-1.8689,-1.8196,-1.7867,-1.7538,-1.7279,-1.7279,-1.7279,-1.7279,-1.7279,-1.7279,-1.7279,-1.7279,-1.7279,-1.7279,-1.7279,-1.7279,-1.7279,-1.7279,-1.7279,-1.7279,-1.7279,-1.7279,-1.7279,-1.7279,-1.7279,-1.7279,-1.7279,-1.7279,-1.7279,-1.7279,-1.7279,-1.7279,-1.7279,-1.7279,-1.7279,-1.7279,-1.7279,-1.7279,-1.7279,-1.7279,-1.7481,-1.7768,-1.8357,-1.9234,-2.0201,-2.9994,-2.9673,-2.9228,-2.8711,-2.8276,-2.7852,-2.7382,-2.7309,-2.7309,-2.7309,-2.7309,-2.7309,-2.7309,-2.7309,-2.7309,-2.7309,-2.7309,-2.7309,-2.7309,-2.7309,-2.7309,-2.7309,-2.7624,-2.7655,-2.732,-2.7634,-2.7386,-2.6521,-2.6117,-2.5627,-2.5086,-2.4683,-2.5016,-2.5875,-2.5875,-2.6438,-2.7309,-2.7309,-2.7309,-2.7262,-2.6986,-2.6853,-2.6805,-2.6255,-2.6052,-2.6004,-2.5781,-2.5693,-2.5693,-2.5693,-2.5693,-2.5693,-2.5693,-2.5693,-2.5693,-2.5693,-2.5693,-2.5674,-2.5615,-2.5361,-2.5106,-2.5047,-2.437,-2.3758,-2.3795,-2.2806,-2.1838,-2.1571,-2.0611,-1.9772,-1.9587,-1.8845,-1.8196,-1.7867,-1.7538,-1.7279,-1.7279,-1.7279,-1.7279,-1.7279,-1.7279,-1.7279,-1.7279,-1.7279,-1.7279,-1.7279,-1.7279,-1.7279,-1.7279,-1.7279,-1.7279,-1.7279,-1.7279,-1.7279,-1.7279,-1.7279,-1.7279,-1.7279,-1.7279,-1.7279,-1.7279,-1.7279,-1.7279,-1.7279,-1.7279,-1.7279,-1.7279,-1.7279,-1.7279,-1.7279,-1.7279,-1.7481,-1.7768,-1.8504,-1.9004,-1.9463,-2.9994,-2.9622,-2.9156,-2.869,-2.8235,-2.7769,-2.7372,-2.7309,-2.7309,-2.7309,-2.7309,-2.7309,-2.7309,-2.7309,-2.7309,-2.7309,-2.7309,-2.7309,-2.7309,-2.7309,-2.7413,-2.7624,-2.7821,-2.7955,-2.8017,-2.7955,-2.7728,-2.7324,-2.6351,-2.5658,-2.5179,-2.4714,-2.4848,-2.5513,-2.5513,-2.5875,-2.6532,-2.6532,-2.6532,-2.6506,-2.6505,-2.6523,-2.6496,-2.6358,-2.6294,-2.6304,-2.6014,-2.5917,-2.5917,-2.5732,-2.5693,-2.5693,-2.5693,-2.5693,-2.5693,-2.5693,-2.5693,-2.5693,-2.5693,-2.5596,-2.5439,-2.5439,-2.491,-2.4334,-2.4075,-2.3135,-2.2171,-2.1703,-2.0628,-1.9648,-1.9446,-1.8768,-1.8196,-1.7867,-1.7538,-1.7279,-1.7279,-1.7279,-1.7279,-1.7279,-1.7279,-1.7279,-1.7279,-1.7279,-1.7279,-1.7279,-1.7279,-1.7279,-1.7279,-1.7279,-1.7279,-1.7279,-1.7279,-1.7279,-1.7279,-1.7279,-1.7279,-1.7279,-1.7279,-1.7279,-1.7279,-1.7279,-1.7279,-1.7279,-1.7279,-1.7279,-1.7279,-1.7279,-1.7279,-1.7279,-1.7279,-1.7481,-1.7721,-1.8094,-1.8504,-1.9058]},{"header":{"parameterUnit":"m.s-1","parameterCategory":1,"la1":30.6,"la2":28.766,"lo1":-90.7593,"lo2":-88.6598,"dy":0.0162,"dx":0.0183,"nx":116,"ny":114,"refTime":"2023-05-10T00:00:00:Z","depth":0,"parameterNumber":3,"parameterNumberName":"V-component_of_WINDS"},"data":[0.0,0.0,0.0,0.0,0.0,0.0,0.0,0.0,0.0,0.0,0.0,0.0,0.0,0.0,0.0,0.0,0.0,0.0,0.0,0.0,0.0,0.0,0.0,0.0,0.0,0.0,0.0,0.0,0.0,0.0,0.0,0.0,0.0,0.0,0.0,0.0,0.0,0.0,0.0,0.0,0.0,0.0,0.0,0.0,0.0,0.0,0.0,0.0,0.0,0.0,0.0,0.0,0.0,0.0,0.0,0.0,0.0,0.0,0.0,0.0,0.0,0.0,0.0,0.0,0.0,0.0,0.0,0.0,0.0,0.0,0.0,0.0,0.0,0.0,0.0,0.0,0.0,0.0,0.0,0.0,0.0,0.0,0.0,0.0,0.0,0.0,0.0,0.0,0.0,0.0,0.0,0.0,0.0,0.0,0.0,0.0,0.0,0.0,0.0,0.0,0.0,0.0,0.0,0.0,0.0,0.0,0.0,0.0,0.0,0.0,0.0,0.0,0.0,0.0,0.0,0.0,0.0,0.0,0.0,0.0,0.0,0.0,0.0,0.0,0.0,0.0,0.0,0.0,0.0,0.0,0.0,0.0,0.0,0.0,0.0,0.0,0.0,0.0,0.0,0.0,0.0,0.0,0.0,0.0,0.0,0.0,0.0,0.0,0.0,0.0,0.0,0.0,0.0,0.0,0.0,0.0,0.0,0.0,0.0,0.0,0.0,0.0,0.0,0.0,0.0,0.0,0.0,0.0,0.0,0.0,0.0,0.0,0.0,0.0,0.0,0.0,0.0,0.0,0.0,0.0,0.0,0.0,0.0,0.0,0.0,0.0,0.0,0.0,0.0,0.0,0.0,0.0,0.0,0.0,0.0,0.0,0.0,0.0,0.0,0.0,0.0,0.0,0.0,0.0,0.0,0.0,0.0,0.0,0.0,0.0,0.0,0.0,0.0,0.0,0.0,0.0,0.0,0.0,0.0,0.0,0.0,0.0,0.0,0.0,0.0,0.0,0.0,0.0,0.0,0.0,0.0,0.0,0.0,0.0,0.0,0.0,0.0,0.0,0.0,0.0,0.0,0.0,0.0,0.0,0.0,0.0,0.0,0.0,0.0,0.0,0.0,0.0,0.0,0.0,0.0,0.0,0.0,0.0,0.0,0.0,0.0,0.0,0.0,0.0,0.0,0.0,0.0,0.0,0.0,0.0,0.0,0.0,0.0,0.0,0.0,0.0,0.0,0.0,0.0,0.0,0.0,0.0,0.0,0.0,0.0,0.0,0.0,0.0,0.0,0.0,0.0,0.0,0.0,0.0,0.0,0.0,0.0,0.0,0.0,0.0,0.0,0.0,0.0,0.0,0.0,0.0,0.0,0.0,0.0,0.0,0.0,0.0,0.0,0.0,0.0,0.0,0.0,0.0,0.0,0.0,0.0,0.0,0.0,0.0,0.0,0.0,0.0,0.0,0.0,0.0,0.0,0.0,0.0,0.0,0.0,0.0,0.0,0.0,0.0,0.0,0.0,0.0,0.0,0.0,0.0,0.0,0.0,0.0,0.0,0.0,0.0,0.0,0.0,0.0,0.0,0.0,0.0,0.0,0.0,0.0,0.0,0.0,0.0,0.0,0.0,0.0,0.0,0.0,0.0,0.0,0.0,0.0,0.0,0.0,0.0,0.0,0.0,0.0,0.0,0.0,0.0,0.0,0.0,0.0,0.0,0.0,0.0,0.0,0.0,0.0,0.0,0.0,0.0,0.0,0.0,0.0,0.0,0.0,0.0,0.0,0.0,0.0,0.0,0.0,0.0,0.0,0.0,0.0,0.0,0.0,0.0,0.0,0.0,0.0,0.0,0.0,0.0,0.0,0.0,0.0,0.0,0.0,0.0,0.0,0.0,0.0,0.0,0.0,0.0,0.0,0.0,0.0,0.0,0.0,0.0,0.0,0.0,0.0,0.0,0.0,0.0,0.0,0.0,0.0,0.0,0.0,0.0,0.0,0.0,0.0,0.0,0.0,0.0,0.0,0.0,0.0,0.0,0.0,0.0,0.0,0.0,0.0,0.0,0.0,0.0,0.0,0.0,0.0,0.0,0.0,0.0,0.0,0.0,0.0,0.0,0.0,0.0,0.0,0.0,0.0,0.0,0.0,0.0,0.0,0.0,0.0,0.0,0.0,0.0,0.0,0.0,0.0,0.0,0.0,0.0,0.0,0.0,0.0,0.0,0.0,0.0,0.0,0.0,0.0,0.0,0.0,0.0,0.0,0.0,0.0,0.0,0.0,0.0,0.0,0.0,0.0,0.0,0.0,0.0,0.0,0.0,0.0,0.0,0.0,0.0,0.0,0.0,0.0,0.0,0.0,0.0,0.0,0.0,0.0,0.0,0.0,0.0,0.0,0.0,0.0,0.0,0.0,0.0,0.0,0.0,0.0,0.0,0.0,0.0,0.0,0.0,0.0,0.0,0.0,0.0,0.0,0.0,0.0,0.0,0.0,0.0,0.0,0.0,0.0,0.0,0.0,0.0,0.0,0.0,0.0,0.0,0.0,0.0,0.0,0.0,0.0,0.0,0.0,0.0,0.0,0.0,0.0,0.0,0.0,0.0,0.0,0.0,0.0,0.0,0.0,0.0,0.0,0.0,0.0,0.0,0.0,0.0,0.0,0.0,0.0,0.0,0.0,0.0,0.0,0.0,0.0,0.0,0.0,0.0,0.0,0.0,0.0,0.0,0.0,0.0,0.0,0.0,0.0,0.0,0.0,0.0,0.0,0.0,0.0,0.0,0.0,0.0,0.0,0.0,0.0,0.0,0.0,0.0,0.0,0.0,0.0,0.0,0.0,0.0,0.0,0.0,0.0,0.0,0.0,0.0,0.0,0.0,0.0,0.0,0.0,0.0,0.0,0.0,0.0,0.0,0.0,0.0,0.0,0.0,0.0,0.0,0.0,0.0,0.0,0.0,0.0,0.0,0.0,0.0,0.0,0.0,0.0,0.0,0.0,0.0,0.0,0.0,0.0,0.0,0.0,0.0,0.0,0.0,0.0,0.0,0.0,0.0,0.0,0.0,0.0,0.0,0.0,0.0,0.0,0.0,0.0,0.0,0.0,0.0,0.0,0.0,0.0,0.0,0.0,0.0,0.0,0.0,0.0,0.0,0.0,0.0,0.0,0.0,0.0,0.0,0.0,0.0,0.0,0.0,0.0,0.0,0.0,0.0,0.0,0.0,0.0,0.0,0.0,0.0,0.0,0.0,0.0,0.0,0.0,0.0,0.0,0.0,0.0,0.0,0.0,0.0,0.0,0.0,0.0,0.0,0.0,0.0,0.0,0.0,0.0,0.0,0.0,0.0,0.0,0.0,0.0,0.0,0.0,0.0,0.0,0.0,0.0,0.0,0.0,0.0,0.0,0.0,0.0,0.0,0.0,0.0,0.0,0.0,0.0,0.0,0.0,0.0,0.0,0.0,0.0,0.0,0.0,0.0,0.0,0.0,0.0,0.0,0.0,0.0,0.0,0.0,0.0,0.0,0.0,0.0,0.0,0.0,0.0,0.0,0.0,0.0,0.0,0.0,0.0,0.0,0.0,0.0,0.0,0.0,0.0,0.0,0.0,0.0,0.0,0.0,0.0,0.0,0.0,0.0,0.0,0.0,0.0,0.0,0.0,0.0,0.0,0.0,0.0,0.0,0.0,0.0,0.0,0.0,0.0,0.0,0.0,0.0,0.0,0.0,0.0,0.0,0.0,0.0,0.0,0.0,0.0,0.0,0.0,0.0,0.0,0.0,0.0,0.0,0.0,0.0,0.0,0.0,0.0,0.0,0.0,0.0,0.0,0.0,0.0,0.0,0.0,0.0,0.0,0.0,0.0,0.0,0.0,0.0,0.0,0.0,0.0,0.0,0.0,0.0,0.0,0.0,0.0,0.0,0.0,0.0,0.0,0.0,0.0,0.0,0.0,0.0,0.0,0.0,0.0,0.0,0.0,0.0,0.0,0.0,0.0,0.0,0.0,0.0,0.0,0.0,0.0,0.0,0.0,0.0,0.0,0.0,0.0,0.0,0.0,0.0,0.0,0.0,0.0,0.0,0.0,0.0,0.0,0.0,0.0,0.0,0.0,0.0,0.0,0.0,0.0,0.0,0.0,0.0,0.0,0.0,0.0,0.0,0.0,0.0,0.0,0.0,0.0,0.0,0.0,0.0,0.0,0.0,0.0,0.0,0.0,0.0,0.0,0.0,0.0,0.0,0.0,0.0,0.0,0.0,0.0,0.0,0.0,0.0,0.0,0.0,0.0,0.0,0.0,0.0,0.0,0.0,0.0,0.0,0.0,0.0,0.0,0.0,0.0,0.0,0.0,0.0,0.0,0.0,0.0,0.0,0.0,0.0,0.0,0.0,0.0,0.0,0.0,0.0,0.0,0.0,0.0,0.0,0.0,0.0,0.0,0.0,0.0,0.0,0.0,0.0,0.0,0.0,0.0,0.0,0.0,0.0,0.0,0.0,0.0,0.0,0.0,0.0,0.0,0.0,0.0,0.0,0.0,0.0,0.0,0.0,0.0,0.0,0.0,0.0,0.0,0.0,0.0,0.0,0.0,0.0,0.0,0.0,0.0,0.0,0.0,0.0,0.0,0.0,0.0,0.0,0.0,0.0,0.0,0.0,0.0,0.0,0.0,0.0,0.0,0.0,0.0,0.0,0.0,0.0,0.0,0.0,0.0,0.0,0.0,0.0,0.0,0.0,0.0,0.0,0.0,0.0,0.0,0.0,0.0,0.0,0.0,0.0,0.0,0.0,0.0,0.0,0.0,0.0,0.0,0.0,0.0,0.0,0.0,0.0,0.0,0.0,0.0,0.0,0.0,0.0,0.0,0.0,0.0,0.0,0.0,0.0,0.0,0.0,0.0,0.0,0.0,0.0,0.0,0.0,0.0,0.0,0.0,0.0,0.0,0.0,0.0,0.0,0.0,0.0,0.0,0.0,0.0,0.0,0.0,0.0,0.0,0.0,0.0,0.0,0.0,0.0,0.0,0.0,0.0,0.0,0.0,0.0,0.0,0.0,0.0,0.0,0.0,0.0,0.0,0.0,0.0,0.0,0.0,0.0,0.0,0.0,0.0,0.0,0.0,0.0,0.0,0.0,0.0,0.0,0.0,0.0,0.0,0.0,0.0,0.0,0.0,0.0,0.0,0.0,0.0,0.0,0.0,0.0,0.0,0.0,0.0,0.0,0.0,0.0,0.0,0.0,0.0,0.0,0.0,0.0,0.0,0.0,0.0,0.0,0.0,0.0,0.0,0.0,0.0,0.0,0.0,0.0,0.0,0.0,0.0,0.0,0.0,0.0,0.0,0.0,0.0,0.0,0.0,0.0,0.0,0.0,0.0,0.0,0.0,0.0,0.0,0.0,0.0,0.0,0.0,0.0,0.0,0.0,0.0,0.0,0.0,0.0,0.0,0.0,0.0,0.0,0.0,0.0,0.0,0.0,0.0,0.0,0.0,0.0,0.0,0.0,0.0,0.0,0.0,0.0,0.0,0.0,0.0,0.0,0.0,0.0,0.0,0.0,0.0,0.0,0.0,0.0,0.0,0.0,0.0,0.0,0.0,0.0,0.0,0.0,0.0,0.0,0.0,0.0,0.0,0.0,0.0,0.0,0.0,0.0,0.0,0.0,0.0,0.0,0.0,0.0,0.0,0.0,0.0,0.0,0.0,0.0,0.0,0.0,0.0,0.0,0.0,0.0,0.0,0.0,0.0,0.0,0.0,0.0,0.0,0.0,0.0,0.0,0.0,0.0,0.0,0.0,0.0,0.0,0.0,0.0,0.0,0.0,0.0,0.0,0.0,0.0,0.0,0.0,0.0,0.0,0.0,0.0,0.0,0.0,0.0,0.0,0.0,0.0,0.0,0.0,0.0,0.0,0.0,0.0,0.0,0.0,0.0,0.0,0.0,0.0,0.0,0.0,0.0,0.0,0.0,0.0,0.0,0.0,0.0,0.0,0.0,0.0,0.0,0.0,0.0,0.0,0.0,0.0,0.0,0.0,0.0,0.0,0.0,0.0,0.0,0.0,0.0,0.0,0.0,0.0,0.0,0.0,0.0,0.0,0.0,0.0,0.0,0.0,0.0,3.3262,3.2775,0.0,0.0,0.0,0.0,0.0,0.0,0.0,0.0,0.0,0.0,0.0,0.0,0.0,0.0,0.0,0.0,0.0,0.0,0.0,0.0,0.0,0.0,0.0,0.0,0.0,0.0,0.0,0.0,0.0,0.0,0.0,0.0,0.0,0.0,0.0,0.0,0.0,3.1635,3.2184,3.2937,3.3867,3.3849,3.2908,3.1258,0.0,0.0,0.0,0.0,0.0,0.0,0.0,0.0,0.0,0.0,0.0,0.0,0.0,0.0,0.0,0.0,0.0,0.0,0.0,0.0,0.0,0.0,0.0,0.0,0.0,0.0,0.0,0.0,0.0,0.0,0.0,0.0,0.0,0.0,0.0,0.0,0.0,0.0,0.0,0.0,0.0,0.0,0.0,0.0,0.0,0.0,0.0,0.0,0.0,0.0,0.0,0.0,0.0,0.0,0.0,0.0,0.0,0.0,0.0,0.0,0.0,0.0,0.0,0.0,0.0,0.0,0.0,0.0,0.0,0.0,3.4874,3.4334,0.0,0.0,0.0,0.0,0.0,0.0,0.0,0.0,0.0,0.0,0.0,0.0,0.0,0.0,0.0,0.0,0.0,0.0,0.0,0.0,0.0,0.0,0.0,3.0437,3.1161,3.1234,3.1234,3.1234,0.0,0.0,0.0,0.0,0.0,0.0,0.0,3.1857,3.2227,3.2346,3.3767,3.5037,3.6172,3.6719,3.5444,3.2739,3.2905,0.0,0.0,0.0,0.0,0.0,0.0,0.0,0.0,0.0,0.0,0.0,0.0,0.0,0.0,0.0,0.0,0.0,0.0,0.0,0.0,0.0,0.0,0.0,0.0,0.0,0.0,0.0,0.0,0.0,0.0,0.0,0.0,0.0,0.0,0.0,0.0,0.0,0.0,0.0,0.0,0.0,0.0,0.0,0.0,0.0,0.0,0.0,0.0,0.0,0.0,0.0,0.0,0.0,0.0,0.0,0.0,0.0,0.0,0.0,0.0,0.0,0.0,0.0,3.6823,3.6954,3.7005,3.7186,3.7644,3.8244,3.7084,3.6424,3.6115,3.5446,0.0,0.0,0.0,0.0,0.0,0.0,0.0,0.0,0.0,0.0,0.0,0.0,0.0,0.0,0.0,0.0,0.0,0.0,0.0,0.0,0.0,3.0975,3.1511,3.1698,3.1713,3.1756,3.1883,0.0,0.0,0.0,0.0,0.0,3.1883,3.2533,3.3138,3.3728,3.549,3.6633,3.7216,3.7183,3.6912,3.6453,3.5575,3.5082,3.4894,0.0,0.0,0.0,0.0,0.0,0.0,0.0,0.0,0.0,0.0,0.0,0.0,0.0,0.0,0.0,0.0,0.0,0.0,0.0,0.0,0.0,0.0,0.0,0.0,0.0,0.0,0.0,0.0,0.0,0.0,0.0,0.0,0.0,0.0,0.0,0.0,0.0,0.0,0.0,0.0,0.0,3.583,3.6423,0.0,0.0,0.0,0.0,0.0,0.0,0.0,0.0,0.0,0.0,0.0,0.0,0.0,3.7892,3.8502,3.8995,3.9259,3.9297,4.0075,4.0455,4.0455,4.0666,4.0913,4.1152,4.0935,0.0,3.7584,3.6908,0.0,0.0,0.0,0.0,0.0,0.0,0.0,0.0,0.0,0.0,0.0,0.0,0.0,0.0,0.0,0.0,0.0,0.0,0.0,0.0,0.0,3.1319,3.1855,3.2025,3.201,3.2066,3.2219,3.2219,0.0,0.0,0.0,3.243,3.2828,3.3458,3.4468,3.5811,3.6897,3.7718,3.8318,3.8607,3.8717,3.8582,3.7734,3.6916,3.6215,3.5749,0.0,0.0,0.0,0.0,0.0,0.0,0.0,0.0,0.0,0.0,0.0,0.0,0.0,0.0,0.0,0.0,0.0,0.0,0.0,0.0,0.0,0.0,0.0,0.0,0.0,0.0,0.0,0.0,0.0,0.0,0.0,0.0,0.0,0.0,0.0,0.0,0.0,0.0,0.0,3.6502,3.7198,3.7179,3.7238,3.7183,0.0,0.0,0.0,0.0,0.0,0.0,0.0,0.0,0.0,4.0184,4.0574,4.1085,4.1746,4.2016,4.2151,4.2166,4.2543,4.2717,4.2756,4.2962,4.3115,4.3153,4.2892,4.211,4.0958,3.9309,3.8522,3.8275,0.0,0.0,0.0,0.0,3.7279,3.7327,0.0,0.0,0.0,0.0,0.0,0.0,0.0,0.0,0.0,0.0,0.0,0.0,3.1139,3.1901,3.2438,3.2619,3.2801,3.2915,3.2881,3.2893,3.2815,3.2633,3.2617,3.2986,3.3684,3.4676,3.5997,3.7658,3.8233,3.8806,3.9394,3.9893,4.0016,3.9793,3.9294,3.8427,3.7277,3.7079,3.662,3.5977,0.0,0.0,0.0,0.0,0.0,0.0,0.0,0.0,0.0,0.0,0.0,0.0,0.0,0.0,0.0,0.0,0.0,0.0,0.0,0.0,0.0,0.0,0.0,0.0,0.0,0.0,0.0,0.0,0.0,0.0,0.0,0.0,0.0,0.0,0.0,0.0,0.0,3.7988,3.882,3.8832,3.9273,3.9354,0.0,0.0,0.0,0.0,0.0,0.0,4.1168,4.1672,4.2328,4.3167,4.3686,4.4266,4.4937,4.4952,4.4845,4.4678,4.4716,4.4794,4.4833,4.5095,4.5226,4.5164,4.4657,4.4437,4.4208,4.1699,4.0573,4.0399,3.939,3.8828,3.8588,3.8837,3.8812,3.877,0.0,0.0,0.0,0.0,0.0,0.0,0.0,0.0,0.0,0.0,0.0,3.1293,3.2056,3.2913,3.354,3.3805,3.4454,3.466,3.4218,3.4214,3.393,3.3272,3.324,3.3556,3.4261,3.6279,3.7866,3.8917,3.9572,4.0073,4.0443,4.0439,4.037,4.0165,4.015,3.944,3.8267,3.7516,3.7144,3.7055,3.6212,0.0,0.0,0.0,0.0,0.0,0.0,0.0,0.0,0.0,0.0,0.0,0.0,0.0,0.0,0.0,0.0,0.0,0.0,0.0,0.0,0.0,0.0,0.0,0.0,0.0,0.0,0.0,0.0,0.0,0.0,0.0,0.0,0.0,0.0,0.0,0.0,0.0,0.0,4.2546,4.2765,0.0,0.0,0.0,0.0,4.2251,4.2981,4.3753,4.4432,4.4493,4.511,4.6397,4.6489,4.6828,4.749,4.7506,4.7151,4.6489,4.6717,4.6928,4.7123,4.7354,4.7545,4.7666,4.6955,4.6655,4.6423,4.3624,4.2221,4.181,4.1732,4.1013,3.9994,4.0011,3.9703,3.9266,0.0,0.0,0.0,0.0,0.0,0.0,0.0,0.0,3.147,3.1896,3.1992,3.2175,3.2544,3.3443,3.4101,3.4336,3.5062,3.5295,3.4782,3.4813,3.4561,3.3854,3.4272,3.5241,3.6794,3.7894,3.9006,4.0182,4.0323,4.0665,4.1223,4.1223,4.1055,4.0783,4.0783,4.032,3.9536,3.9043,3.8557,3.8117,3.7689,3.7024,0.0,0.0,0.0,0.0,0.0,0.0,0.0,0.0,0.0,0.0,0.0,0.0,0.0,0.0,0.0,0.0,0.0,0.0,0.0,0.0,0.0,0.0,0.0,0.0,0.0,0.0,0.0,0.0,0.0,0.0,0.0,0.0,0.0,0.0,0.0,0.0,0.0,4.4672,4.5486,0.0,4.5525,4.5554,4.5953,4.6774,4.7139,4.7656,4.852,4.8568,4.8995,4.9907,4.9923,5.0216,5.0913,5.043,5.0082,4.9813,4.9425,4.9274,4.9351,4.9566,4.9479,4.9101,4.8978,4.8425,4.7505,4.6486,4.5128,4.3651,4.3226,4.2805,4.2433,4.2568,4.2578,4.2537,0.0,0.0,0.0,0.0,0.0,0.0,0.0,0.0,3.1522,3.1703,3.2271,3.2749,3.3007,3.4137,3.4978,3.5225,3.6168,3.6394,3.5633,3.5646,3.5275,3.4283,3.5177,3.6539,3.8371,3.9244,4.0144,4.1147,4.1293,4.155,4.1932,4.1883,4.1847,4.1818,4.1751,4.1557,4.124,4.0745,3.9955,3.9018,3.8637,3.7952,3.7075,0.0,0.0,0.0,0.0,0.0,0.0,0.0,0.0,0.0,0.0,0.0,0.0,0.0,0.0,0.0,0.0,0.0,0.0,0.0,0.0,0.0,0.0,0.0,0.0,0.0,0.0,0.0,0.0,0.0,0.0,0.0,0.0,0.0,0.0,4.5108,4.7129,4.7864,4.9168,4.9868,4.9608,4.9844,5.0302,5.09,5.1279,5.1772,5.2372,5.2521,5.277,5.3161,5.3177,5.3291,5.3477,5.3009,5.2485,5.1985,5.1494,5.1194,5.0989,5.1124,5.0992,5.0611,5.0268,4.9554,4.8691,4.8182,4.7125,4.5741,4.5067,4.4644,4.4421,4.4573,4.4632,4.4624,0.0,0.0,0.0,0.0,0.0,0.0,0.0,3.0283,3.0897,3.1155,3.2156,3.2991,3.3461,3.5006,3.612,3.6434,3.7731,3.7998,3.6741,3.6685,3.6046,3.4652,3.5996,3.7439,3.8838,4.0279,4.1301,4.1841,4.2557,4.2821,4.2649,4.2524,4.2719,4.3246,4.3081,4.3144,4.3383,4.2551,4.1256,3.9753,3.9038,3.8597,3.8257,0.0,0.0,0.0,0.0,0.0,0.0,0.0,0.0,0.0,0.0,0.0,0.0,0.0,0.0,0.0,0.0,0.0,0.0,0.0,0.0,0.0,0.0,0.0,0.0,0.0,0.0,0.0,0.0,0.0,0.0,0.0,0.0,0.0,4.5855,4.8141,5.0516,5.2355,5.3815,5.4515,5.4058,5.4832,5.5084,5.4414,5.5344,5.5943,5.5927,5.6165,5.6284,5.6221,5.6165,5.5844,5.5099,5.505,5.4295,5.2868,5.2852,5.2569,5.2023,5.2023,5.2131,5.2191,5.075,5.0138,4.9989,4.8597,4.8034,4.7935,4.7235,4.6489,4.5874,4.5874,4.5668,4.5337,0.0,0.0,0.0,0.0,0.0,0.0,2.9505,3.038,3.1034,3.1317,3.2413,3.333,3.3745,3.4859,3.5642,3.5838,3.6793,3.6976,3.6107,3.6158,3.6257,3.6389,3.7793,3.9193,4.0503,4.1457,4.2219,4.2757,4.2953,4.3282,4.3758,4.3712,4.4008,4.4578,4.4529,4.4346,4.4052,4.3793,4.3142,4.2092,4.0449,3.9319,3.8587,0.0,0.0,0.0,0.0,0.0,0.0,0.0,0.0,0.0,0.0,0.0,0.0,0.0,0.0,0.0,0.0,0.0,0.0,0.0,0.0,0.0,0.0,0.0,0.0,0.0,0.0,0.0,0.0,0.0,0.0,0.0,4.8762,5.0353,4.9619,5.1931,5.4364,5.6253,5.7706,5.8629,5.8854,5.9134,5.9078,5.8639,5.8892,5.888,5.849,5.8552,5.8591,5.8552,5.8053,5.7686,5.7486,5.6383,5.5421,5.4472,5.3939,5.329,5.2642,5.2642,5.2377,5.1929,5.1512,5.0744,4.9725,4.9324,4.8857,4.8324,4.7886,4.7556,4.7391,4.7391,4.7407,4.7237,0.0,0.0,0.0,0.0,0.0,0.0,2.8682,2.9577,3.0331,3.083,3.2008,3.3055,3.3739,3.4774,3.5468,3.567,3.647,3.6661,3.5919,3.5943,3.6605,3.7963,3.8851,4.0073,4.1712,4.2488,4.3138,4.377,4.4083,4.4445,4.4873,4.481,4.5109,4.5734,4.5685,4.5586,4.5477,4.5135,4.4635,4.3936,4.2299,4.1074,4.0173,3.9814,3.9144,3.8317,3.8032,3.7713,3.736,3.7,0.0,0.0,0.0,0.0,0.0,0.0,0.0,0.0,0.0,0.0,0.0,0.0,0.0,0.0,0.0,0.0,0.0,0.0,0.0,0.0,0.0,0.0,0.0,0.0,5.2329,5.4531,5.5007,5.6315,5.7863,5.9655,6.0882,6.1719,6.209,6.2149,6.2049,6.1881,6.1645,6.1398,6.1082,6.0841,6.0561,6.0258,5.9518,5.898,5.864,5.75,5.6407,5.5364,5.4927,5.417,5.3127,5.2791,5.2421,5.1984,5.1362,5.0605,4.9798,4.9495,4.9108,4.8673,0.0,0.0,0.0,0.0,4.8172,4.7816,0.0,0.0,0.0,0.0,0.0,0.0,2.7549,2.8389,2.9245,3.0005,3.1239,3.2425,3.3441,3.4542,3.5337,3.563,3.6373,3.658,3.6042,3.6224,3.7235,3.9216,3.9531,4.058,4.2572,4.3333,4.4092,4.4804,4.5467,4.5831,4.5914,4.5805,4.6105,4.6765,4.6618,4.6831,4.7202,4.6414,4.5885,4.5413,4.4426,4.3361,4.2312,4.1483,4.0709,3.9904,3.928,3.8587,3.7922,3.7833,0.0,0.0,0.0,0.0,0.0,0.0,0.0,0.0,0.0,0.0,0.0,0.0,0.0,0.0,0.0,0.0,0.0,0.0,0.0,0.0,0.0,0.0,0.0,0.0,5.5833,5.8626,6.0841,6.0839,6.1192,6.2632,6.3492,6.4044,6.4304,6.4304,6.4271,6.4187,6.3689,6.3316,6.3232,6.2724,0.0,0.0,0.0,5.9793,5.915,5.822,5.707,5.5681,5.5632,5.4854,5.3467,5.2672,5.2249,5.2097,5.0693,5.0033,4.9915,4.9272,4.8951,4.8852,4.8639,4.8547,4.8578,4.8668,4.8262,4.7555,0.0,0.0,0.0,0.0,0.0,0.0,2.7401,2.8235,2.8985,2.9338,3.0732,3.1956,3.2669,3.3613,3.4336,3.471,3.4988,3.539,3.5976,3.7691,3.8851,3.9282,4.0961,4.234,4.3367,4.4108,4.4837,4.5582,4.5715,4.6096,4.6692,4.666,4.7058,4.772,4.7687,4.7655,4.7588,4.7423,4.7174,4.6785,4.6244,4.4846,4.2972,4.2474,4.2098,4.1757,4.1453,4.1243,4.101,4.0485,4.0288,4.0107,3.9031,3.8607,0.0,0.0,0.0,0.0,0.0,0.0,0.0,0.0,0.0,0.0,0.0,0.0,0.0,0.0,0.0,0.0,0.0,0.0,0.0,5.632,5.8875,6.1317,6.3529,6.4298,6.4647,6.4825,6.5488,6.6027,6.6222,6.6264,6.601,6.5403,6.4718,6.4059,6.3468,6.2804,6.2313,6.2178,6.0825,6.003,5.9894,5.7983,5.6579,5.5681,5.5108,0.0,5.3467,5.2672,5.1978,5.1369,5.0473,4.9763,4.9204,4.9069,4.8663,4.8159,4.872,4.8909,4.8841,4.8281,4.7977,4.7656,0.0,0.0,0.0,0.0,0.0,0.0,2.735,2.8132,2.888,2.9431,3.0672,3.1772,3.2458,3.3254,3.3822,3.4176,3.4775,3.549,3.6305,3.8114,3.9478,4.0233,4.2047,4.3413,4.4141,4.5235,4.598,4.6344,4.6725,4.709,4.7454,4.7454,4.7653,4.8001,4.8001,4.8134,4.8398,4.8298,4.8377,4.85,4.8137,4.7242,4.6005,4.4699,4.3796,4.3246,4.3137,4.2738,4.2255,4.1903,4.178,4.1673,4.1,4.0576,4.0197,0.0,0.0,0.0,0.0,0.0,0.0,0.0,0.0,0.0,0.0,0.0,0.0,0.0,0.0,5.0393,5.1883,0.0,5.7299,5.9207,6.1424,6.3463,6.4935,6.5781,6.6212,6.6104,6.6441,6.6703,6.677,6.6812,6.666,6.6288,6.5222,6.4444,6.4072,6.299,6.2381,6.2381,6.0892,6.0097,6.0097,5.7915,5.6444,5.57,5.4955,5.3991,5.2875,5.2114,5.1352,5.0608,4.9864,4.9137,4.8426,4.8054,4.7682,4.7394,4.775,4.7902,4.7851,4.7496,4.7124,4.6701,0.0,0.0,0.0,0.0,0.0,0.0,0.0,2.8018,2.8813,2.9482,3.0571,3.157,3.2284,3.2944,3.3461,3.3822,3.5047,3.6076,3.6813,3.8444,4.0038,4.1515,4.2937,4.4134,4.5055,4.6247,4.6925,4.7106,4.7703,4.8084,4.8216,4.8216,4.8299,4.8431,4.8431,4.8763,4.9292,4.914,4.9402,4.9946,4.9632,4.9322,4.8849,4.7009,4.5674,4.4752,4.4575,4.3967,4.3231,4.3231,4.3231,4.3216,4.304,4.2643,4.2093,4.1575,4.0941,0.0,0.0,0.0,0.0,0.0,0.0,0.0,0.0,4.6648,4.8017,4.949,5.2016,5.4351,5.5443,5.7983,6.0334,6.1721,6.3565,6.507,6.5797,6.644,6.6812,6.6812,6.6812,6.6812,6.6812,6.6812,6.6812,6.6812,6.5442,6.4597,6.4597,6.3193,6.2313,6.2178,6.0825,6.003,5.9894,5.7695,5.6292,5.57,5.482,5.3653,5.2283,5.1555,5.0811,5.0033,4.9171,4.846,4.7821,4.6955,4.6583,4.6566,4.6413,4.6363,4.638,4.6532,4.621,4.5686,0.0,0.0,0.0,0.0,0.0,0.0,0.0,0.0,2.8517,2.8697,2.9991,3.1049,3.149,3.2245,3.298,3.3668,3.5373,3.6698,3.7356,3.9519,4.1422,4.2834,4.3684,4.4844,4.6353,4.6551,4.7028,4.7885,4.7968,4.8349,4.8978,4.8978,4.9342,4.9955,4.9955,5.0005,5.0088,5.0054,5.0103,5.0135,4.9946,4.9447,4.8804,4.8368,4.7606,4.667,4.5907,4.555,4.5451,4.5451,4.5451,4.532,4.4689,4.4402,4.4106,4.2866,4.2131,4.1613,4.1228,4.1983,4.3377,4.5615,4.6157,4.6781,0.0,5.0186,5.1468,5.387,5.6238,5.8215,5.9278,6.1417,6.3277,6.4106,6.4986,6.5814,6.6576,6.6762,6.6812,6.6812,6.6812,6.6812,6.6812,6.6812,6.6812,6.6812,6.5442,6.4597,6.4597,6.3193,6.2093,6.145,6.0554,5.9793,5.915,5.6951,5.5801,5.5664,5.4296,5.3162,5.2283,5.1555,5.0811,5.0016,4.8646,4.7973,4.7787,4.6413,4.5821,4.5771,4.5094,4.4852,4.4936,4.5585,4.5771,4.5618,0.0,0.0,0.0,0.0,0.0,0.0,0.0,0.0,0.0,2.9243,3.0423,3.1274,3.1442,3.2143,3.2792,3.3293,3.4899,3.6016,3.6387,3.8927,4.0742,4.1448,4.3518,4.4967,4.5668,4.6619,4.7325,4.7704,4.8115,4.8461,4.8774,4.9184,4.9562,4.9858,4.9858,5.0089,5.0502,5.0502,5.0801,5.1303,5.1215,5.0735,5.0043,4.9495,4.846,4.7179,4.6279,4.5918,0.0,4.5314,4.517,4.5088,4.4799,4.4703,4.4529,4.3635,4.3235,4.3073,4.3127,4.4161,4.5712,4.7638,4.8431,4.9423,5.2089,5.3284,5.4385,5.6446,5.8368,5.9901,6.0459,6.2522,6.4241,6.4546,6.5578,6.6457,6.6779,6.644,6.6153,6.6153,6.5781,6.5865,6.6728,6.6812,6.6626,6.6187,6.5189,6.441,6.3988,6.2567,6.162,6.1315,6.0114,5.9116,5.8372,5.6596,5.5497,5.504,5.3534,5.2401,5.164,5.0896,4.9932,4.8765,4.7716,4.7022,4.6549,4.5483,4.5043,4.501,4.4733,4.4615,4.4649,4.4942,4.5043,4.501,0.0,0.0,0.0,0.0,0.0,0.0,0.0,0.0,0.0,0.0,3.0587,3.135,3.1495,3.2048,3.2535,3.2827,3.4124,3.5168,3.5675,3.81,3.9859,4.0651,4.3089,4.4625,4.508,4.6319,4.7105,4.7319,4.7825,4.8168,4.838,4.9097,4.9554,4.9749,4.9945,5.0357,5.0919,5.0919,5.1224,5.1717,5.1753,5.1229,5.0323,4.9651,4.8362,4.6848,4.6126,4.5651,4.526,4.4529,4.4253,4.4253,4.4253,4.4253,4.4172,4.3795,4.3873,4.4213,4.4939,4.622,4.7803,4.9574,5.0701,5.2059,5.4543,5.5852,5.6917,5.8397,6.0027,6.1287,6.1486,6.3202,6.4597,6.4597,6.551,6.6203,6.6203,6.573,6.5392,6.5392,6.4935,6.5019,6.6102,6.6203,6.5984,6.5425,6.4715,6.4072,6.3548,6.211,6.1197,6.0977,5.9708,5.8558,5.7594,5.6342,5.5344,5.4566,5.3044,5.1911,5.1183,5.0236,4.9103,4.7838,4.7124,4.638,4.5652,4.4919,4.4615,4.4615,4.4615,4.4615,4.4615,4.4615,4.4615,4.4615,0.0,0.0,0.0,0.0,0.0,0.0,0.0,0.0,0.0,0.0,0.0,0.0,0.0,3.1796,3.2066,3.2219,3.3141,3.44,3.5873,3.7477,3.9298,4.1464,4.2469,4.3687,4.525,4.5534,4.6076,4.6927,4.6943,4.7299,4.8012,4.869,4.9422,5.0123,5.0746,5.1215,5.1466,5.1466,5.1186,5.0766,5.0961,5.0159,4.8791,4.8266,4.7156,4.5801,4.5453,4.4851,4.4131,4.3395,4.315,4.315,4.315,4.315,4.315,4.3133,4.3762,4.4789,4.6254,4.7803,4.9558,5.1744,5.3334,5.4775,5.6282,5.7757,5.9079,6.0028,6.1571,6.2813,6.3067,6.3968,6.4597,6.4597,6.4647,6.4664,6.4664,6.4647,6.463,6.463,6.4613,6.4613,6.4664,6.4664,6.4664,6.4647,6.3954,6.3531,6.3514,6.211,6.0943,6.0165,5.9404,5.8321,5.685,5.6089,5.5344,5.4566,5.3044,5.1911,5.1134,4.9712,4.8629,4.7838,4.7124,4.638,4.5652,4.4919,4.4615,4.4615,4.4615,4.4615,4.4615,4.4615,4.4615,4.4615,0.0,0.0,0.0,0.0,0.0,0.0,0.0,0.0,0.0,0.0,0.0,0.0,0.0,0.0,0.0,0.0,3.2588,3.3369,3.3973,3.5875,3.7343,3.8184,4.0473,4.1958,4.2482,4.372,4.4495,4.4788,4.5729,4.6303,4.6574,4.7738,4.8408,4.8647,4.8887,4.9036,4.9127,4.924,4.9282,4.9228,4.9082,4.8509,4.7649,4.6765,4.5476,4.4073,0.0,4.2888,4.2941,4.2228,4.1981,4.1981,4.1981,4.1981,4.2178,4.3122,4.4714,4.643,4.7869,4.9772,5.181,5.3997,5.5256,5.6465,5.8436,5.9264,5.9735,6.0025,6.0765,6.108,6.0203,6.1318,6.2245,6.1704,6.2888,6.3886,6.3886,6.3886,6.3886,6.3886,6.3007,6.2415,6.2415,6.3734,6.441,6.392,6.3649,6.3091,6.2093,6.1061,6.0165,5.9404,5.866,5.756,5.6089,5.58,5.482,5.3061,5.1555,5.0456,4.9712,4.8731,4.7885,4.7124,4.6397,4.5652,4.4942,4.4716,4.4615,4.4615,4.4615,4.4615,4.4615,4.4615,4.4615,4.4615,0.0,0.0,0.0,0.0,0.0,0.0,0.0,0.0,0.0,0.0,0.0,0.0,0.0,0.0,0.0,0.0,0.0,3.1972,3.2473,3.4258,3.5491,3.5922,3.8378,3.9843,4.0091,4.1497,4.2338,4.2573,4.3753,4.4317,4.4333,4.5729,4.6373,4.6388,4.6655,4.684,4.6991,4.7119,4.7183,4.7153,4.7046,4.6583,4.5779,4.4948,4.3805,0.0,4.1345,4.112,4.1276,4.0812,4.0647,4.0647,4.0647,4.1193,4.2026,4.3234,4.5367,4.762,4.9094,5.128,5.3599,5.5521,5.6945,5.8253,5.9678,6.0009,5.9926,5.9661,5.9741,5.9432,5.8227,5.9157,5.9996,5.9759,6.0943,6.2093,6.2651,6.2719,6.2821,6.3091,6.2042,6.1298,6.1298,6.2584,6.3226,6.2753,6.2973,6.2584,6.1366,6.0537,5.9776,5.9032,5.8034,5.6934,5.5698,5.5446,5.4177,5.1894,5.0676,4.9712,4.8984,4.8257,4.7513,4.6752,4.6024,4.528,4.4615,4.4615,4.4615,4.4615,4.4615,4.4615,4.4615,4.4615,4.4615,4.4615,0.0,0.0,0.0,0.0,0.0,0.0,0.0,0.0,0.0,0.0,0.0,0.0,0.0,0.0,0.0,0.0,0.0,0.0,3.1421,3.2691,3.3803,3.4819,3.6346,3.7483,3.8126,3.8982,3.9745,4.0362,4.1071,4.1425,4.1456,4.2777,4.3408,4.3439,4.4154,4.4673,4.5007,4.5044,4.4851,4.4594,4.4915,4.4354,4.3283,4.2873,4.2021,4.1004,4.0297,3.9715,3.9299,3.9299,3.9348,3.9415,3.9448,4.0928,4.2804,4.3549,4.5864,4.8498,5.0021,5.2489,5.499,5.6481,5.8419,5.996,5.9993,5.9943,5.9678,5.8883,5.8452,5.7976,5.7156,5.7406,5.7949,5.8676,5.8913,5.9539,6.1028,6.1315,6.162,6.2313,6.1738,6.1298,6.1298,6.1298,6.1298,6.1298,6.1975,6.2059,6.1281,6.052,5.9742,5.8981,5.756,5.6461,5.5733,5.4854,5.3348,5.12,5.0405,4.9678,4.8984,4.8206,4.7462,4.6752,4.5974,4.5246,4.4615,4.4615,4.4615,4.4615,4.4615,4.4615,4.4615,4.4615,4.4615,4.4615,0.0,0.0,0.0,0.0,0.0,0.0,0.0,0.0,0.0,0.0,0.0,0.0,0.0,0.0,0.0,0.0,0.0,0.0,3.0119,3.1146,3.2095,3.2945,3.4573,3.5516,3.5682,3.6495,3.7018,3.717,3.8345,3.8925,3.8956,4.0298,4.0924,4.0939,4.1107,4.127,4.1362,4.1504,4.1623,4.1647,4.1491,4.1399,4.1247,4.0346,3.9938,3.9792,3.9317,3.9106,3.9094,3.9245,4.0011,4.0961,4.1508,4.3197,4.5102,4.5847,4.815,5.0883,5.2887,5.4742,5.663,5.8651,5.9164,5.9314,5.9877,5.9148,5.8005,5.673,5.6058,5.5199,5.3523,5.4303,5.5322,5.5683,5.7577,5.9336,6.0283,6.14,6.2178,6.2364,6.1738,6.1298,6.1298,6.1298,6.1298,6.1298,6.1975,6.1806,6.0486,6.0216,5.9505,5.822,5.7273,5.6461,5.5733,5.3298,5.1792,5.1168,4.9898,4.9187,4.8968,4.7665,4.6972,4.6718,4.5461,4.4784,4.4615,4.4615,4.4615,4.4615,4.4615,4.4615,4.4615,4.4615,4.4615,4.4615,0.0,0.0,0.0,0.0,0.0,0.0,0.0,0.0,0.0,0.0,0.0,0.0,0.0,0.0,0.0,0.0,0.0,0.0,0.0,2.9464,3.0353,3.1205,3.2481,3.3304,3.3573,3.4388,3.4827,3.4827,3.5916,3.6461,3.6476,3.7533,3.8031,3.8031,3.8031,3.805,3.8152,3.8287,3.8421,0.0,0.0,3.8885,3.8858,3.8635,3.8647,3.8721,3.8545,3.8918,3.9699,4.1182,4.1972,4.2539,4.3611,4.5467,4.7388,4.8133,5.0419,5.3036,5.4593,5.6299,5.8038,5.9612,5.9694,5.9413,5.9496,5.8138,5.6332,5.456,5.3496,5.2442,5.0994,5.1832,5.3094,5.4276,5.6134,5.8042,5.986,6.0842,6.1637,6.2313,6.1738,6.1298,6.1298,6.1298,6.1298,6.1298,6.1687,6.1383,6.0165,5.9793,5.9099,5.7932,5.6867,5.5818,5.4752,5.2368,5.1185,5.1168,4.9712,4.9001,4.8968,4.7817,4.7107,4.6735,4.5568,4.4919,4.4615,4.4615,4.4615,4.4615,4.4615,4.4615,4.4615,4.4615,4.4615,4.4615,0.0,0.0,0.0,0.0,0.0,0.0,0.0,0.0,0.0,0.0,0.0,0.0,0.0,0.0,0.0,0.0,0.0,0.0,0.0,0.0,2.8684,2.9652,3.0367,3.1043,3.1691,3.2448,3.2895,3.3015,3.3779,3.4171,3.4186,3.4889,3.5203,3.5203,3.525,3.5332,3.5477,3.5477,3.5572,3.5761,3.6529,3.6706,3.6584,0.0,3.7725,3.7799,3.8126,3.9101,4.0675,4.3684,4.431,4.4161,4.5864,4.7835,4.9707,5.0535,5.2688,5.499,5.5797,5.7525,5.9198,5.9844,5.986,5.9496,5.8651,5.6697,5.446,5.2373,5.0888,4.9726,4.9093,4.9741,5.1145,5.3481,5.4745,5.6465,5.9518,6.0131,6.0791,6.2212,6.1839,6.145,6.145,6.145,6.1417,6.1315,6.1197,6.0842,6.0131,5.9404,5.8575,5.7628,5.6275,5.4905,5.3518,5.1978,5.1185,5.1168,4.9712,4.9001,4.8984,4.8257,4.7513,4.6752,4.6024,4.528,4.4615,4.4615,4.4615,4.4615,4.4615,4.4615,4.4615,4.4615,4.4615,4.4615,0.0,0.0,0.0,0.0,0.0,0.0,0.0,0.0,0.0,0.0,2.5306,2.4491,0.0,0.0,0.0,0.0,0.0,0.0,0.0,0.0,0.0,2.8512,2.8828,2.9362,3.025,3.0397,3.0822,3.1471,3.2122,3.2417,3.2432,3.3297,3.3687,3.3687,3.3796,3.3874,3.3905,3.3905,3.3998,3.4181,3.4364,3.482,3.5477,3.5799,0.0,0.0,3.8526,3.979,4.1205,4.3685,4.4927,4.5881,4.8597,5.0535,5.2075,5.3384,5.4974,5.6597,5.7955,5.9049,5.9844,5.9976,5.9082,5.7823,5.6498,5.403,5.1578,5.0005,4.8531,4.7335,4.6779,4.7791,4.9339,5.1261,5.3717,5.628,5.8825,6.03,6.1417,6.2279,6.2279,6.2195,6.2195,6.2195,6.1958,6.1349,6.0689,6.025,6.0114,5.9404,5.8118,5.6156,5.5243,5.438,5.3518,5.1978,5.1185,5.1168,4.9712,4.9001,4.8984,4.8257,4.7513,4.6752,4.6024,4.528,4.4615,4.4615,4.4615,4.4615,4.4615,4.4615,4.4615,4.4615,4.4615,4.4615,0.0,0.0,0.0,0.0,0.0,0.0,0.0,2.5787,2.5699,2.5975,2.4897,2.4248,2.4665,2.4063,2.376,0.0,0.0,0.0,0.0,0.0,0.0,0.0,2.7399,2.8025,2.914,2.9302,2.9782,3.0568,0.0,3.12,3.1395,3.1793,3.2032,3.2167,3.2303,3.2348,3.2348,3.2437,3.2512,3.2631,3.2976,3.3653,3.4531,0.0,0.0,0.0,3.8861,3.9997,4.113,4.4389,4.5843,4.6811,4.9805,5.2009,5.3699,5.4738,5.6398,5.7988,5.8701,5.9728,6.049,6.0109,5.8883,5.7309,5.5471,5.2788,5.0205,4.8332,4.6775,4.568,4.5424,4.6269,4.7711,4.9904,5.2085,5.454,5.7456,5.915,6.0537,6.1687,6.2161,6.2381,6.2381,6.2381,6.2076,6.1366,6.0554,5.9928,5.9556,5.8473,5.7205,5.5732,5.4972,5.4042,5.2892,5.1775,5.1014,5.0608,4.9526,4.9001,4.8984,4.8646,4.7868,4.6769,4.643,4.5635,4.4615,4.4615,4.4615,4.4615,4.4615,4.4615,4.4615,4.4615,4.4615,4.4615,0.0,0.0,0.0,0.0,0.0,0.0,0.0,2.6109,2.5774,2.5774,2.4946,2.4538,2.5062,2.4077,2.3513,0.0,0.0,0.0,0.0,0.0,0.0,0.0,0.0,0.0,2.8149,0.0,0.0,2.9931,3.0038,0.0,0.0,0.0,0.0,0.0,3.1117,3.1219,3.1248,3.138,3.1467,0.0,0.0,3.3006,0.0,0.0,0.0,0.0,0.0,3.9778,4.0831,4.4397,4.5979,4.6979,4.9854,5.2255,5.4295,5.5466,5.7193,5.8734,5.9049,6.0109,6.0887,5.9993,5.8651,5.6945,5.4593,5.181,4.9161,4.709,4.5483,4.4456,4.4456,4.5052,4.6337,4.8687,5.0342,5.2471,5.5797,5.7558,5.9116,6.0639,6.1603,6.2144,6.2144,6.2144,6.1839,6.1095,6.003,5.915,5.8575,5.7289,5.6241,5.5497,5.4752,5.3687,5.2317,5.1589,5.0828,5.0084,4.9357,4.9001,4.9001,4.8849,4.8054,4.6786,4.6616,4.5805,4.4615,4.4615,4.4615,4.4615,4.4615,4.4615,4.4615,4.4615,4.4615,4.4615,0.0,0.0,0.0,0.0,0.0,0.0,0.0,2.6449,2.6411,2.6411,2.5837,2.5473,2.5544,2.4092,2.3412,0.0,0.0,0.0,0.0,0.0,0.0,0.0,0.0,0.0,0.0,0.0,0.0,2.9373,2.9404,0.0,0.0,0.0,0.0,0.0,0.0,3.0896,3.1029,3.1248,0.0,0.0,0.0,0.0,0.0,0.0,0.0,0.0,0.0,3.9012,4.0423,4.2391,4.4231,4.6089,4.8331,5.0663,5.3102,5.5802,5.721,5.8187,5.9545,6.049,6.0771,5.9347,5.7889,5.6051,5.3218,5.0303,4.7752,4.6212,4.4738,4.3698,4.3698,4.4307,4.5393,4.7158,4.8737,5.0893,5.4088,5.5949,5.756,5.9049,6.052,6.14,6.14,6.14,6.1078,6.0266,5.8287,5.707,5.7019,5.6258,5.5463,5.4718,5.3991,5.3179,5.2317,5.1589,5.0828,5.0084,4.9357,4.9001,4.8984,4.8325,4.7564,4.6752,4.6092,4.5331,4.4615,4.4615,4.4615,4.4615,4.4615,4.4615,4.4615,4.4615,4.4615,4.4615,0.0,0.0,0.0,0.0,0.0,0.0,2.6465,2.6197,2.5971,2.5971,2.5473,2.5247,2.5561,2.4732,2.4243,2.4532,0.0,0.0,0.0,0.0,0.0,0.0,0.0,0.0,0.0,0.0,2.7135,2.8514,2.8643,0.0,0.0,0.0,0.0,0.0,0.0,3.0433,3.0613,3.097,0.0,0.0,0.0,0.0,0.0,0.0,0.0,0.0,0.0,0.0,3.9866,4.2206,4.3734,4.498,4.693,4.8547,5.0402,5.3732,5.5554,5.6812,5.827,5.9214,5.9628,5.9049,5.7458,5.5405,5.2953,5.0104,4.7587,4.6096,4.4638,4.3598,4.3598,4.383,4.445,4.5663,4.6789,4.8452,5.126,5.3382,5.5408,5.7405,5.9015,6.0097,6.0537,6.0588,6.0266,5.9505,5.7797,5.6613,5.6173,5.5446,5.4905,5.46,5.3416,5.2418,5.1657,5.0913,5.0168,4.9424,4.9137,4.9001,4.8984,4.8257,4.7513,4.6752,4.6024,4.528,4.4615,4.4615,4.4615,4.4615,4.4615,4.4615,4.4615,4.4615,4.4615,4.4615,0.0,0.0,0.0,0.0,0.0,2.6166,2.6361,2.6079,2.585,2.585,2.5536,2.5448,2.5812,2.5523,2.531,2.531,2.4976,0.0,0.0,0.0,0.0,0.0,0.0,0.0,0.0,0.0,2.6658,2.7776,2.7973,2.8189,0.0,0.0,2.8958,2.9135,0.0,0.0,0.0,0.0,0.0,0.0,0.0,0.0,0.0,0.0,0.0,0.0,0.0,0.0,0.0,0.0,0.0,4.3877,4.5469,4.6434,4.7687,5.1361,5.3629,5.5251,5.6746,5.7839,5.8518,5.8303,5.6763,5.4725,5.2539,4.9773,4.7322,4.6046,4.4638,4.3598,4.3598,4.3598,4.389,4.477,4.5396,4.6636,4.9097,5.1227,5.3348,5.5459,5.7473,5.8879,5.9404,5.9658,5.9387,5.844,5.7188,5.6156,5.5429,5.4685,5.4262,5.4262,5.2993,5.1961,5.1217,5.0473,4.9729,4.9001,4.9001,4.89,4.8663,4.7919,4.7175,4.643,4.5686,4.5077,4.4615,4.4615,4.4615,4.4615,4.4615,4.4615,4.4615,4.4615,4.4615,4.4615,0.0,0.0,0.0,0.0,0.0,0.0,2.6166,2.6361,2.6487,2.6487,2.6474,2.6474,2.6487,2.6474,2.6474,2.6474,2.5448,0.0,0.0,0.0,0.0,0.0,0.0,0.0,0.0,0.0,2.6488,2.7302,2.7436,2.7623,2.7809,2.8157,2.843,2.8619,0.0,0.0,0.0,0.0,0.0,0.0,0.0,0.0,0.0,0.0,0.0,0.0,0.0,0.0,0.0,0.0,0.0,0.0,0.0,4.4368,4.5296,4.9093,5.1761,5.3765,5.5201,5.6697,5.7624,5.6895,5.562,5.3964,5.1777,4.9011,4.6692,4.5947,4.4638,4.3598,4.3598,4.3598,4.383,4.4572,4.4873,4.5777,4.7993,4.9871,5.1546,5.3078,5.5982,5.7898,5.7898,5.8592,5.8406,5.6934,5.6139,5.5395,5.4634,5.3907,5.3518,5.3518,5.2723,5.1961,5.1217,5.0473,4.9729,4.9001,4.9001,4.8629,4.7872,4.7141,4.6413,4.5669,4.4925,4.4615,4.4615,4.4615,4.4615,4.4615,4.4615,4.4615,4.4615,4.4615,4.4615,4.4615,0.0,0.0,0.0,0.0,0.0,0.0,0.0,2.6361,2.6499,2.6499,2.6499,2.6499,2.6499,2.6499,2.6499,2.6499,2.6172,0.0,0.0,0.0,0.0,0.0,0.0,0.0,0.0,2.5821,2.6256,2.6897,2.7079,2.718,2.7268,2.759,2.7789,2.7868,2.8541,2.9053,0.0,0.0,0.0,0.0,0.0,0.0,3.5504,0.0,0.0,0.0,0.0,0.0,0.0,0.0,0.0,0.0,0.0,0.0,0.0,4.5955,4.8266,5.0783,5.2258,5.3351,5.4146,5.4394,5.3367,5.186,5.0171,4.8282,4.6543,4.5284,4.4291,4.3598,4.3598,4.3598,4.3664,4.3926,4.3989,4.4693,4.6529,4.8155,5.0157,5.2892,5.5965,5.7881,5.7881,5.8101,5.7848,5.6867,5.6139,5.5395,5.4634,5.3907,5.3247,5.2706,5.1944,5.12,5.0456,4.9712,4.9238,4.9001,4.9001,4.8612,4.7855,4.7141,4.6397,4.5669,4.4936,4.4615,4.4615,4.4615,4.4615,4.4615,4.4615,4.4615,4.4615,4.4615,4.4615,4.4615,0.0,0.0,0.0,0.0,0.0,0.0,0.0,2.627,2.6396,2.6499,2.6499,2.6499,2.6499,2.6499,2.6499,2.6499,2.6499,0.0,0.0,0.0,0.0,0.0,0.0,0.0,2.5598,2.5958,2.6283,2.6624,2.6794,2.6875,2.6909,2.7167,2.7369,2.7523,2.8052,2.8541,0.0,0.0,0.0,0.0,0.0,0.0,3.5504,0.0,0.0,0.0,0.0,0.0,0.0,0.0,0.0,0.0,0.0,0.0,0.0,0.0,4.5673,4.7819,4.9558,5.0783,5.1595,5.1744,5.1115,5.0071,4.8614,4.7123,4.5798,4.487,4.4125,4.3598,4.3598,4.3598,4.3598,4.3598,4.3813,4.447,4.5804,4.7578,5.0025,5.3598,5.6067,5.7577,5.7865,5.7881,5.7476,5.6478,5.597,5.5277,5.4245,5.3467,5.2689,5.1911,5.1454,5.0862,5.0101,4.9373,4.9001,4.9001,4.8731,4.8206,4.7462,4.6718,4.5974,4.5263,4.4818,4.4615,0.0,4.4615,4.4615,4.4615,4.4615,4.4615,4.4615,4.4615,4.4615,4.4615,0.0,0.0,0.0,0.0,0.0,0.0,0.0,2.6062,2.627,2.6465,2.6499,2.6499,2.6499,2.6499,2.6499,2.6499,0.0,0.0,0.0,0.0,0.0,0.0,0.0,0.0,2.5674,2.6223,2.6499,2.6499,2.6624,2.6705,2.6743,2.6939,2.7224,2.7587,2.7808,2.829,0.0,0.0,0.0,0.0,0.0,0.0,0.0,0.0,0.0,0.0,0.0,0.0,0.0,0.0,0.0,0.0,0.0,0.0,0.0,0.0,0.0,0.0,0.0,4.8763,4.974,4.9044,4.8879,4.8498,4.7073,4.5682,0.0,4.4622,4.4092,4.3598,4.3598,4.3598,4.3615,4.3664,4.4257,4.4986,4.5831,4.8114,5.1111,5.4908,5.6234,5.7118,5.7814,5.7881,5.7289,5.5818,5.5681,5.5074,5.3585,5.2739,5.1961,5.1202,5.1134,5.0777,5.0016,4.934,4.8984,4.8917,4.824,4.7496,4.6684,4.6007,4.5297,4.4615,4.4615,4.4615,4.4615,4.4615,4.4615,4.4615,4.4615,4.4615,4.4615,4.4615,4.4615,4.4615,0.0,0.0,0.0,0.0,0.0,0.0,0.0,0.0,0.0,0.0,2.6499,2.6499,2.6499,2.6499,2.6499,0.0,0.0,0.0,0.0,0.0,0.0,0.0,0.0,0.0,2.6298,2.6424,2.6499,2.6499,2.6521,2.6747,2.7163,2.7351,2.779,2.8434,2.8738,2.944,0.0,0.0,0.0,0.0,0.0,0.0,0.0,0.0,0.0,0.0,3.5701,3.6348,0.0,0.0,0.0,0.0,0.0,0.0,0.0,0.0,4.3487,4.3962,4.4475,0.0,4.6792,4.6609,4.6576,4.6328,0.0,4.4937,4.4522,4.3976,4.3714,4.3598,4.3598,4.3598,4.3764,4.4357,4.4572,4.5334,4.7222,5.049,5.3242,5.4748,5.6382,5.7476,5.7645,5.7808,5.7289,5.5818,5.5681,5.5074,5.3585,5.2739,5.1961,5.1202,5.0659,4.9999,4.9272,4.9086,4.8731,4.8173,4.7973,4.7225,4.5957,4.5788,4.5297,4.4615,4.4615,4.4615,4.4615,4.4615,4.4615,4.4615,4.4615,4.4615,4.4615,4.4615,4.4615,4.4615,0.0,0.0,0.0,0.0,0.0,0.0,0.0,0.0,0.0,0.0,0.0,2.6499,2.6499,2.6499,0.0,0.0,0.0,0.0,0.0,0.0,0.0,0.0,0.0,2.6499,2.6499,2.6499,2.6499,2.6499,2.6499,2.6776,2.7281,2.74,2.7845,2.8594,2.8999,2.9839,0.0,0.0,0.0,0.0,3.4637,0.0,0.0,0.0,0.0,0.0,3.5504,3.6024,0.0,3.7499,3.8758,4.0235,0.0,0.0,0.0,0.0,4.3342,4.3598,4.3598,4.444,4.5202,4.4887,4.5036,4.5086,4.4357,4.4208,4.4092,4.3664,4.3598,4.3598,4.3598,4.3893,4.4241,4.4652,4.5251,4.6477,4.8696,5.1737,5.3973,5.4722,5.6402,5.7476,5.7476,5.7625,5.7145,5.5677,5.5646,5.5074,5.3585,5.2418,5.1623,5.1202,5.0168,4.9407,4.9001,4.8663,4.8277,4.7889,4.7225,4.6481,4.5703,4.5348,4.4976,4.4615,4.4615,4.4615,4.4615,4.4615,4.4615,4.4615,4.4615,4.4615,4.4615,4.4615,4.4615,4.4615,0.0,0.0,0.0,0.0,0.0,0.0,0.0,0.0,0.0,0.0,0.0,0.0,0.0,0.0,0.0,0.0,0.0,0.0,0.0,0.0,0.0,0.0,2.6499,2.6499,2.6499,2.6499,2.6499,2.6499,2.6575,2.6901,2.7406,2.7494,2.7942,2.874,2.9223,3.0094,3.1182,3.1699,3.2653,3.3839,3.4448,0.0,0.0,0.0,0.0,0.0,0.0,0.0,0.0,3.6897,3.8214,3.981,4.0292,0.0,0.0,0.0,0.0,0.0,4.3565,4.4075,4.4373,4.3747,4.4075,4.4373,4.3731,4.3598,4.3598,4.3598,4.3598,4.3631,4.3731,4.4274,4.4804,4.5135,4.6527,4.8266,5.027,5.2433,5.412,5.4815,5.6304,5.7252,5.7252,5.7376,5.6864,5.5499,5.5457,5.4888,5.3399,5.1978,5.1134,5.1048,4.9712,4.8951,4.8832,4.8193,4.777,4.7534,4.6312,4.5652,4.5517,4.4874,4.4615,4.4615,4.4615,4.4615,4.4615,4.4615,4.4615,4.4615,4.4615,4.4615,4.4615,4.4615,4.4615,4.4615,0.0,0.0,0.0,0.0,0.0,0.0,0.0,0.0,0.0,0.0,0.0,0.0,0.0,0.0,0.0,0.0,0.0,0.0,0.0,0.0,0.0,2.6499,2.6499,2.6499,2.6499,2.6499,2.6499,2.6499,2.6964,2.7444,2.7996,2.8461,2.9164,3.0112,3.0525,3.1098,3.1792,3.2316,3.3045,3.3839,3.4448,0.0,0.0,0.0,0.0,0.0,0.0,0.0,0.0,3.668,3.739,3.8102,3.9283,0.0,0.0,0.0,0.0,0.0,4.3416,4.3681,4.3731,4.3631,4.3681,4.3731,4.3615,4.3598,4.3598,4.3598,4.3598,4.378,4.4423,4.4605,4.5301,4.7189,4.9243,5.0967,5.1945,5.342,5.4663,5.5409,5.6412,5.7063,5.7063,5.6811,5.6326,5.5448,5.502,5.4093,5.257,5.1674,5.093,5.0287,4.9441,4.8714,4.8058,4.7939,4.7263,4.6041,4.5821,4.5365,4.4784,4.4649,4.4615,4.4615,4.4615,4.4615,4.4615,4.4615,4.4615,4.4615,4.4615,4.4615,4.4615,4.4615,4.4615,4.4615,0.0,0.0,0.0,0.0,0.0,0.0,0.0,0.0,0.0,0.0,0.0,0.0,0.0,0.0,0.0,0.0,0.0,0.0,0.0,0.0,2.6499,2.6499,2.6499,2.6499,2.6499,2.6499,2.6637,2.6939,2.719,2.772,2.8561,2.9139,2.9758,3.0406,3.0596,3.1061,3.178,3.2178,3.281,3.3597,0.0,0.0,0.0,0.0,0.0,0.0,0.0,0.0,0.0,0.0,3.6914,3.7667,3.8638,0.0,0.0,0.0,0.0,0.0,4.2903,4.33,4.3598,4.3598,4.3598,4.3598,4.3598,4.3598,4.3598,4.3598,4.3926,4.4307,4.4622,4.5334,4.6477,4.8299,5.0436,5.2028,5.2359,5.3964,5.5201,5.5549,5.5994,5.6231,5.6231,5.5923,5.5422,5.4701,5.4613,5.3923,5.2384,5.1606,5.0862,5.0101,4.9001,4.8054,4.731,4.6921,4.638,4.5703,4.5297,4.4925,4.4615,4.4615,4.4615,4.4615,4.4615,4.4615,4.4615,4.4615,4.4615,4.4615,4.4615,4.4615,4.4615,4.4615,4.4615,4.4615,0.0,0.0,0.0,0.0,0.0,0.0,0.0,0.0,0.0,0.0,0.0,0.0,0.0,0.0,0.0,0.0,0.0,0.0,0.0,2.6499,2.6499,2.6499,2.6499,2.6499,2.6499,2.6612,2.6901,2.7281,2.7544,2.8172,2.9101,2.9578,3.0011,3.0406,3.0406,3.0836,3.1646,3.2121,3.2781,3.36,0.0,0.0,0.0,0.0,0.0,0.0,0.0,0.0,0.0,0.0,0.0,0.0,0.0,0.0,0.0,4.0585,4.1346,4.2088,4.2406,4.2903,4.3367,4.3549,4.3598,4.3598,4.3598,4.3714,4.3876,4.3876,4.444,4.5003,4.5168,4.656,4.81,4.9409,5.1297,5.2672,5.2854,5.446,5.5582,5.5582,5.5582,5.5516,5.535,5.5025,5.4544,5.3789,5.3954,5.3399,5.186,5.1251,5.0608,4.9864,4.8595,4.7564,4.6802,4.6075,4.5618,4.5432,4.4886,4.4615,4.4615,4.4615,4.4615,4.4615,4.4615,4.4615,4.4615,4.4615,4.4615,4.4615,4.4615,4.4615,4.4615,4.4615,4.4615,4.4615,0.0,0.0,0.0,0.0,0.0,0.0,0.0,0.0,0.0,0.0,0.0,0.0,0.0,0.0,0.0,0.0,0.0,0.0,0.0,2.6499,2.6499,2.6499,2.6499,2.6499,2.6499,2.7002,2.7278,2.7281,2.831,2.9126,2.9729,2.9779,3.0011,3.0406,3.0406,3.0836,3.1673,3.2617,3.345,3.4198,3.4922,0.0,0.0,0.0,0.0,0.0,0.0,0.0,0.0,0.0,0.0,0.0,0.0,0.0,3.874,3.9703,4.0242,4.0829,4.2154,4.2522,4.2738,4.3416,4.3598,4.3598,4.3598,4.4141,4.4605,4.4605,4.5202,4.5914,4.6609,4.8514,5.022,5.1017,5.2373,5.3583,5.4262,5.5052,5.5582,5.5582,5.5582,5.5317,5.4676,5.4275,5.3755,5.3037,5.2674,5.1809,5.0338,5.0202,4.983,4.9103,4.8325,4.7564,4.6802,4.6075,4.5348,4.4682,4.4632,4.4615,4.4615,4.4615,4.4615,4.4615,4.4615,4.4615,4.4615,4.4615,4.4615,4.4615,4.4615,4.4615,4.4615,4.4615,4.4615,4.4615,0.0,0.0,0.0,0.0,0.0,0.0,0.0,0.0,0.0,0.0,0.0,0.0,0.0,0.0,0.0,0.0,0.0,0.0,0.0,2.6499,2.6499,2.6499,2.6499,2.6663,2.7002,2.7216,2.762,2.831,2.9189,2.9757,2.9972,3.0113,3.0305,3.0571,3.0723,3.1061,3.1673,3.2806,3.3629,3.4297,3.546,3.5915,0.0,0.0,0.0,0.0,0.0,0.0,0.0,0.0,3.6226,3.6616,3.7208,3.7873,3.8497,3.9065,3.9781,4.0525,4.1044,4.1839,4.2555,4.2837,4.3251,4.3714,4.4191,4.4489,4.4821,4.5284,4.5963,4.6841,4.805,4.9342,5.0452,5.1199,5.2473,5.3516,5.3798,5.444,5.4903,5.4903,5.449,5.398,5.3251,5.2861,5.2334,5.1597,5.1562,5.1183,5.0135,5.0084,4.9543,4.8359,4.7614,4.687,4.6126,4.5382,4.4874,4.4615,4.4615,4.4615,4.4615,4.4615,4.4615,4.4615,4.4615,4.4615,4.4615,4.4615,4.4615,4.4615,4.4615,4.4615,4.4615,4.4615,4.4615,4.4615,0.0,0.0,0.0,0.0,0.0,0.0,0.0,0.0,0.0,0.0,0.0,0.0,0.0,0.0,0.0,0.0,0.0,0.0,2.6499,2.6499,2.6499,2.6499,2.6499,2.6861,2.7626,2.7639,2.8093,2.9001,2.9872,3.0267,3.0267,3.0495,3.071,3.0986,3.1123,3.1434,3.1917,3.3088,3.3982,3.4809,3.5949,3.6371,0.0,0.0,0.0,0.0,0.0,0.0,0.0,0.0,3.6226,3.6616,3.7208,3.7873,3.8448,3.8722,3.9386,4.0111,4.0343,4.1259,4.2191,4.2423,4.3035,4.383,4.4821,4.5036,4.5317,4.6278,4.7073,4.7968,4.9226,4.9872,5.0452,5.1199,5.2473,5.3417,5.3417,5.4046,5.439,5.4158,5.3533,5.2804,5.2127,5.1693,5.1145,5.0425,5.0669,5.0541,4.9779,4.9526,4.8951,4.7922,4.6972,4.621,4.5703,4.4987,4.4615,4.4615,4.4615,4.4615,4.4615,4.4615,4.4615,4.4615,4.4615,4.4615,4.4615,4.4615,4.4615,4.4615,4.4615,4.4615,4.4615,4.4615,4.4615,4.4615,0.0,0.0,0.0,0.0,0.0,0.0,0.0,0.0,0.0,0.0,0.0,0.0,0.0,0.0,0.0,0.0,0.0,0.0,2.6499,2.6499,2.6499,2.6499,2.6499,2.7119,2.8386,2.8424,2.8704,2.9212,3.0212,3.0698,3.0698,3.0911,3.1235,3.1593,3.1593,3.1909,3.2458,3.3484,3.4643,3.5841,3.6372,3.681,3.705,0.0,0.0,0.0,0.0,0.0,0.0,0.0,3.6226,3.6616,3.7208,3.7873,3.8448,3.8722,3.904,3.9464,4.0194,4.0878,4.1562,4.2307,4.3035,4.3962,4.545,4.5798,4.6212,4.7703,4.8597,4.9342,5.0071,5.022,5.0452,5.1199,5.2473,5.34,5.34,5.403,5.4175,5.3483,5.2788,5.2111,5.1365,5.0926,5.0392,4.9639,4.9877,4.9746,4.9035,4.8308,4.7872,4.7872,4.6464,4.5703,4.5703,4.4942,4.4615,4.4615,4.4615,4.4615,4.4615,4.4615,4.4615,4.4615,4.4615,4.4615,4.4615,4.4615,4.4615,4.4615,4.4615,4.4615,4.4615,4.4615,4.4615,4.4615,0.0,0.0,0.0,0.0,0.0,0.0,0.0,0.0,0.0,0.0,0.0,0.0,0.0,0.0,0.0,0.0,0.0,0.0,2.6499,2.6499,2.6663,2.7052,2.7205,2.7782,2.8933,2.9947,3.0394,3.0251,3.097,3.1347,3.1347,3.1776,3.2055,3.2164,3.2453,3.2668,3.2888,3.4037,3.4847,3.5381,3.6359,3.6635,3.6461,0.0,0.0,0.0,0.0,0.0,0.0,0.0,0.0,0.0,3.7208,3.777,3.8274,3.8694,3.8942,3.917,3.9537,4.016,4.0862,4.1558,4.2274,4.3363,4.5351,4.5798,4.6361,4.8365,4.8961,4.9342,5.0071,5.0618,5.1067,5.1265,5.2075,5.2724,5.2798,5.2495,5.2177,5.2086,5.135,5.0568,4.9823,4.9876,4.9622,4.8868,4.8664,4.8477,4.8257,4.753,4.6887,4.638,4.594,4.5449,4.4925,4.4716,4.4615,4.4615,4.4615,4.4615,4.4615,4.4615,4.4615,4.4615,4.4615,4.4615,4.4615,4.4615,4.4615,4.4615,4.4615,4.4615,4.4615,4.4615,4.4615,4.4615,0.0,0.0,0.0,0.0,0.0,0.0,0.0,0.0,0.0,0.0,2.6499,0.0,0.0,0.0,0.0,0.0,0.0,0.0,2.6499,2.67,2.6999,2.7397,2.7718,2.8503,2.9766,3.1163,3.1813,3.174,3.1946,3.2092,3.2164,3.2668,3.2917,3.2988,3.329,3.3465,3.3612,3.4427,3.5007,3.5476,3.6251,3.6467,3.6343,0.0,0.0,0.0,0.0,0.0,0.0,0.0,0.0,0.0,3.7012,3.7578,3.8116,3.8567,3.886,3.905,3.9245,4.0044,4.0895,4.1309,4.2158,4.3433,4.5351,4.6477,4.7487,4.8845,4.911,4.9243,4.969,5.0121,5.0419,5.0419,5.1085,5.1619,5.1707,5.1271,5.0989,5.1041,5.0289,4.9607,4.9144,4.9159,4.8852,4.8115,4.7973,4.7753,4.7479,4.6769,4.616,4.572,4.5415,4.5043,4.4615,4.4615,4.4615,4.4615,4.4615,4.4615,4.4615,4.4615,4.4615,4.4615,4.4615,4.4615,4.4615,4.4615,4.4615,4.4615,4.4615,4.4615,4.4615,4.4615,4.4615,4.4615,0.0,0.0,0.0,0.0,0.0,0.0,0.0,0.0,0.0,0.0,2.6499,2.6499,0.0,0.0,0.0,0.0,0.0,0.0,0.0,2.7014,2.74,2.7649,2.8306,2.9339,3.0824,3.2116,3.2952,3.3374,3.2988,3.2903,3.3129,3.3514,3.377,3.3874,3.4085,3.4269,3.4448,3.4664,3.5154,3.5838,3.6071,3.6253,3.6402,3.6402,0.0,0.0,0.0,0.0,0.0,0.0,0.0,0.0,3.6753,3.7356,3.7972,3.8455,3.8777,3.9023,3.9245,4.0266,4.1326,4.1364,4.2539,4.4092,4.5483,4.7404,4.8945,4.9077,4.911,4.911,4.911,4.916,4.921,4.9144,4.9859,5.0443,5.0443,5.0359,5.0309,5.0309,4.9526,4.8978,4.8912,4.8609,4.8082,4.7362,4.7538,4.7428,4.6735,4.6007,4.5602,4.5602,4.4942,4.4615,4.4615,4.4615,4.4615,4.4615,4.4615,4.4615,4.4615,4.4615,4.4615,4.4615,4.4615,4.4615,4.4615,4.4615,4.4615,4.4615,4.4615,4.4615,4.4615,4.4615,4.4615,4.4615,0.0,0.0,0.0,0.0,0.0,0.0,0.0,0.0,0.0,0.0,0.0,0.0,0.0,0.0,0.0,0.0,0.0,0.0,0.0,2.7014,2.7576,2.8208,2.979,3.109,3.1996,3.2777,3.3409,3.3908,3.3667,3.3652,3.3865,3.4298,3.4481,3.4515,3.4668,3.4754,3.4802,3.5016,3.5204,3.5355,3.5568,3.5681,3.5714,3.5714,3.5624,0.0,0.0,0.0,0.0,0.0,0.0,0.0,3.6753,3.7298,3.786,3.8444,3.8722,3.8914,3.9218,3.9945,4.0729,4.1276,4.2949,4.4688,4.5582,4.6609,4.7703,4.8862,4.911,4.9127,4.9227,4.9726,4.9959,4.9575,5.0126,5.071,5.0843,5.0108,4.9609,4.9757,4.8861,4.8017,4.7438,4.7541,4.7328,4.6592,4.6321,4.6109,4.5957,4.5229,4.4852,4.4852,4.4682,4.4615,4.4615,4.4615,4.4615,4.4615,4.4615,4.4615,4.4615,4.4615,4.4615,4.4615,4.4615,4.4615,4.4615,4.4615,4.4615,4.4615,4.4615,4.4615,4.4615,4.4615,4.4615,4.4615,0.0,0.0,0.0,0.0,0.0,0.0,0.0,0.0,0.0,0.0,0.0,0.0,0.0,0.0,0.0,0.0,0.0,0.0,0.0,0.0,2.842,2.9727,3.1186,3.2259,3.2925,3.3514,3.4079,3.4635,3.4534,3.4486,3.4505,3.4817,3.4931,3.4964,3.5115,3.518,3.518,3.5294,3.5326,3.5359,3.5472,3.5504,3.5504,3.5504,3.5504,3.5504,3.5504,0.0,0.0,0.0,0.0,0.0,0.0,0.0,3.7669,3.8201,3.8567,3.886,3.9094,3.9996,4.1127,4.2175,4.3595,4.487,4.5616,4.6361,4.7222,4.8349,4.863,4.8679,4.8761,4.9176,4.9407,4.912,4.9469,4.9834,4.9931,4.9034,4.8438,4.855,4.7613,4.6792,4.6411,4.6691,4.6575,4.5838,4.5732,4.5551,4.5179,4.4818,4.4615,4.4615,4.4615,4.4615,4.4615,4.4615,4.4615,4.4615,4.4615,4.4615,4.4615,4.4615,4.4615,4.4615,4.4615,4.4615,4.4615,4.4615,4.4615,4.4564,4.4181,4.4028,4.3978,4.3623,4.3707,4.4028,0.0,0.0,0.0,0.0,0.0,0.0,0.0,0.0,0.0,0.0,0.0,0.0,0.0,0.0,0.0,0.0,0.0,0.0,0.0,0.0,0.0,3.1185,3.2218,3.3009,3.3589,3.4182,3.4716,3.518,3.5213,3.518,3.5001,3.518,3.5261,3.5261,3.5439,3.5504,3.5504,3.5504,3.5504,3.5504,3.5504,3.5504,3.5504,3.5504,3.5504,3.5504,3.5504,3.5504,3.5504,3.5504,0.0,0.0,0.0,0.0,3.7401,3.7899,3.8399,3.8805,3.8969,4.0161,4.1711,4.3069,4.3976,4.4738,4.5599,4.6262,4.6957,4.7819,4.8115,4.8195,4.826,4.842,4.8547,4.8578,4.8738,4.8798,4.8664,4.7922,4.7362,4.7228,4.6381,4.5779,4.5647,4.5924,4.5805,4.5098,4.5327,4.5229,4.4632,4.4615,4.4615,4.4615,4.4615,4.4615,4.4615,4.4615,4.4615,4.4615,4.4615,4.4615,4.4615,4.4615,4.4615,4.4598,4.4462,4.4384,4.4395,4.4276,4.4209,4.4141,4.347,4.3189,4.3149,4.2523,4.2777,4.3392,0.0,0.0,0.0,0.0,0.0,0.0,0.0,0.0,0.0,0.0,2.6499,0.0,0.0,0.0,0.0,0.0,0.0,0.0,0.0,0.0,0.0,3.0985,3.2272,3.3304,3.4011,3.4553,3.4935,3.518,3.5359,3.5439,3.5439,3.5439,3.5472,3.5472,3.5504,3.5504,3.5504,3.5504,3.5504,3.5504,3.5504,3.5504,3.5504,3.5504,3.5504,3.5504,3.5504,3.5504,3.5504,3.5504,3.5604,0.0,0.0,0.0,3.7087,3.7725,3.8258,3.8694,3.8942,4.0161,4.1595,4.2423,4.3184,4.4125,4.5483,4.5864,4.6328,4.7719,4.8115,4.826,4.842,4.8627,4.8801,4.8909,4.894,4.8751,4.8125,4.7665,4.7161,4.6508,4.6065,4.5595,4.5056,4.5233,4.511,4.4454,4.462,4.4716,4.4615,4.4615,4.4615,4.4615,4.4615,4.4615,4.4615,4.4615,4.4615,4.4615,4.4615,4.4615,4.4615,4.4615,4.4615,4.4564,4.3859,4.3572,4.3521,4.2861,4.2591,4.2591,4.2472,4.2439,4.2422,4.2337,4.2777,4.3392,0.0,0.0,0.0,0.0,0.0,0.0,0.0,0.0,0.0,0.0,0.0,2.6499,0.0,0.0,0.0,2.6499,0.0,0.0,0.0,0.0,0.0,3.1395,3.2723,3.377,3.4414,3.4835,3.518,3.5359,3.5472,3.5504,3.5519,3.5878,3.5863,3.5504,3.5504,3.5504,3.5504,3.5504,3.5504,3.5504,3.5504,3.5504,3.5504,3.5504,3.5504,3.5459,3.507,3.4936,3.4876,3.4502,3.4493,3.474,3.543,0.0,0.0,0.0,3.8119,3.8653,3.9424,4.0238,4.111,4.2208,4.2738,4.335,4.4837,4.5168,4.5467,4.6543,4.6886,4.7208,4.7782,4.8116,4.8183,4.7834,4.7767,4.7648,4.7327,4.6713,4.6129,4.5734,4.511,4.4624,4.4367,4.4482,4.4507,4.4298,4.4468,4.4615,4.4615,4.4615,4.4615,4.4615,4.4615,4.4615,4.4615,4.4615,4.435,4.3927,4.3504,4.3328,4.3328,4.3328,4.3538,4.391,4.3544,4.3183,4.276,4.2422,4.2286,4.2252,4.1847,4.1677,4.1627,4.1204,4.1796,4.2777,0.0,0.0,0.0,0.0,0.0,0.0,0.0,0.0,0.0,0.0,0.0,0.0,0.0,0.0,0.0,0.0,2.6636,0.0,0.0,0.0,0.0,3.1749,3.3016,3.4057,3.4831,3.4952,3.5195,3.5504,3.5325,3.5325,3.5519,3.6013,3.6073,3.5744,3.5744,3.5744,3.5744,3.5579,3.5504,3.5504,3.5504,3.5504,3.5504,3.5504,3.5504,3.5415,3.4726,3.4503,3.4414,3.3724,3.3591,3.3834,3.4623,3.5169,0.0,0.0,0.0,3.8646,3.956,4.0106,4.068,4.1939,4.2357,4.2899,4.4357,4.4688,4.4903,4.5632,4.597,4.6241,4.6684,4.7177,4.7385,4.6887,4.6786,4.6718,4.6549,4.5862,4.5278,4.4947,4.4361,4.3956,4.3956,4.4068,4.4212,4.4367,4.4514,4.4615,4.4615,4.4615,4.4615,4.4615,4.4615,4.4513,4.4282,4.4124,4.3707,4.3115,4.2557,4.2286,4.2286,4.2286,4.2506,4.2834,4.2834,4.254,4.1999,4.1813,4.1728,4.1677,4.1136,4.0916,4.0849,4.0316,4.0899,4.2049,0.0,0.0,0.0,0.0,0.0,0.0,0.0,0.0,0.0,0.0,0.0,0.0,2.7503,2.7021,2.676,2.6943,2.6977,2.7214,2.7795,2.8826,0.0,3.1735,3.2842,0.0,3.5133,3.4765,3.4846,3.5504,3.4846,3.4861,3.5504,3.5549,3.5863,3.6432,3.6432,3.6432,3.6402,3.5774,3.5504,3.5504,3.5504,3.5504,3.5504,3.5504,3.5504,3.5415,3.4726,3.4503,3.4414,3.3724,3.3499,3.3561,3.3804,3.406,3.4525,0.0,0.0,0.0,3.8964,3.9709,4.0591,4.1293,4.1976,4.2899,4.4357,4.4688,4.4903,4.5632,4.597,4.5863,4.515,4.5885,4.6625,4.6773,4.6786,4.6549,4.5855,4.5554,4.5076,4.4277,4.4131,4.4097,4.4097,4.4196,4.4367,4.457,4.4598,4.4615,4.4615,4.4615,4.4615,4.4615,4.4615,4.4215,4.346,4.2777,4.2388,4.2354,4.2303,4.2286,4.2286,4.2286,4.1931,4.1322,4.1322,4.1288,4.1204,4.0519,4.0214,4.0214,4.018,4.0163,4.0146,4.0113,4.0578,4.1373,0.0,0.0,0.0,0.0,0.0,0.0,0.0,0.0,0.0,0.0,0.0,0.0,0.0,2.7734,2.752,2.7341,2.7523,2.7822,2.8281,2.9714,0.0,3.2065,3.3481,3.4534,3.518,3.4752,3.4638,3.4846,3.4638,3.4638,3.4861,3.5729,3.6267,3.6462,3.6043,3.6088,3.6447,3.5789,3.5504,3.5504,3.5504,3.5504,3.5504,3.5504,3.5504,3.5415,3.4726,3.4234,3.3739,3.308,3.2557,3.2317,3.296,3.3347,3.3863,3.5294,3.6394,3.7275,3.8019,3.8535,3.9164,4.0448,4.0961,4.1524,4.2965,4.3297,4.3512,4.4257,4.4437,4.4461,4.4284,4.5085,4.5656,4.5272,4.5291,4.5309,4.501,4.493,4.4727,4.4286,4.4224,4.4224,4.4224,4.4281,4.4367,4.457,4.4615,4.435,4.3859,4.3826,4.3606,4.3132,4.3115,4.298,4.2692,4.1965,4.1593,4.1593,4.1102,4.0891,4.0891,4.0891,4.0756,4.0476,4.0476,4.0476,4.046,4.0214,4.0096,4.0096,4.0096,4.0096,4.0096,4.0096,4.0561,4.1322,0.0,0.0,0.0,0.0,0.0,0.0,0.0,0.0,2.9862,2.9525,0.0,0.0,0.0,0.0,2.8644,2.8286,2.8375,2.8592,2.8908,3.0396,3.161,3.242,3.3776,3.4761,3.5279,3.4543,3.4279,3.4503,3.4038,3.4038,3.4533,3.5417,3.6091,3.6462,3.5804,3.5863,3.6447,3.5789,3.5504,3.5504,3.5504,3.5504,3.5504,3.5504,3.5504,3.5415,3.4726,3.4219,3.3694,3.2811,3.2183,3.1913,3.2255,3.2743,3.3449,3.4678,3.5532,3.6325,3.7149,3.7672,3.8335,3.9675,4.0227,4.0707,4.1889,4.2125,4.2258,4.2754,4.3052,4.3264,4.3427,4.4215,4.4754,4.4365,4.4468,4.4615,4.4615,4.4615,4.4542,4.4338,4.4367,4.4367,4.431,4.4367,4.4468,4.4598,4.4361,4.3961,4.3426,4.3183,4.2811,4.2303,4.2049,4.1931,4.1931,4.1204,4.0832,4.0815,4.0333,4.0096,4.0096,4.0096,4.0096,4.0096,4.0096,4.0096,4.0096,4.0096,4.0096,4.0096,4.0096,4.0096,4.0096,4.0096,4.0417,4.0933,0.0,0.0,0.0,0.0,0.0,0.0,0.0,0.0,3.1061,3.1061,0.0,0.0,0.0,0.0,0.0,2.9794,2.954,2.946,2.9659,3.0757,3.1814,3.2801,0.0,0.0,3.5489,3.4203,3.3829,3.4474,3.317,3.3185,3.4444,3.4474,3.5177,3.6372,3.5729,3.5804,3.6357,3.5759,3.5504,3.5504,3.5504,3.5504,3.5504,3.5504,3.5504,3.5415,3.4741,3.4533,3.4309,3.3006,3.2512,3.2363,3.172,3.2278,3.3255,3.3737,3.4747,3.5835,0.0,0.0,0.0,3.903,3.9812,4.0514,4.1226,4.1375,4.1392,4.1409,4.196,4.2456,4.2456,4.3232,4.3935,4.4219,4.4452,4.4598,4.4615,4.4615,4.4542,4.4338,4.4468,4.4542,4.4338,4.4468,4.4615,4.4615,4.3859,4.3375,4.3358,4.2642,4.2236,4.2236,4.1542,4.117,4.117,4.0468,4.0096,4.0096,4.0096,4.0096,4.0096,4.0096,4.0096,4.0096,4.0096,4.0096,4.0096,4.0096,4.0096,4.0096,4.0096,4.0096,4.0096,4.0096,4.0096,4.0214,0.0,0.0,0.0,0.0,0.0,3.2019,3.2019,3.2128,3.2237,0.0,0.0,0.0,3.1743,3.1505,3.134,3.1223,3.1364,3.1521,3.1694,3.2542,3.3267,3.3794,3.451,3.51,3.5504,3.4651,3.4099,3.3769,3.341,3.317,3.3066,3.3544,3.3963,3.4322,3.4143,3.4158,3.4382,3.5175,3.5504,3.5504,3.5504,3.5504,3.5504,3.5504,3.5504,3.5489,3.5295,3.4906,3.4444,3.4053,3.3305,3.2407,3.188,3.2061,3.255,3.299,3.3592,0.0,3.5409,0.0,0.0,0.0,0.0,0.0,4.0382,4.0663,4.0812,4.1309,4.1574,4.1678,4.1678,4.2468,4.3127,4.3196,4.386,4.444,4.457,4.4615,4.457,4.4542,4.457,4.457,4.4542,4.457,4.4615,4.4615,4.3859,4.3183,4.2625,4.1416,4.0722,4.0722,4.0519,4.0417,4.0417,4.0197,4.0096,4.0096,4.0096,4.0096,4.0096,4.0096,4.0096,4.0096,4.0096,4.0096,4.0096,4.0096,4.0096,4.0096,4.0096,4.0096,4.0096,4.0096,4.0096,4.0214,0.0,0.0,0.0,0.0,0.0,3.3292,3.3292,3.3212,3.315,0.0,0.0,0.0,3.3087,3.2758,3.2583,3.2583,3.2582,3.2613,3.2708,3.3451,3.4011,3.4188,3.4922,3.5359,3.5504,3.4831,3.4189,3.3499,3.3215,3.2886,3.2497,3.2901,3.323,3.3499,3.3499,3.3499,3.3559,3.4622,3.507,3.51,3.5385,3.5669,3.5908,3.5908,3.6073,3.6267,3.6013,3.5654,3.5267,3.4698,3.3604,3.2452,3.2195,3.2095,3.2191,3.2547,3.2996,0.0,0.0,0.0,0.0,3.6993,0.0,0.0,3.8825,3.9007,3.9222,3.9934,4.0315,4.0613,4.0928,4.1676,4.2259,4.2332,4.3103,4.3831,4.4321,4.44,4.4429,4.4468,4.4429,4.4429,4.4468,4.4412,4.4429,4.4468,4.3472,4.2436,4.1424,4.057,4.0096,4.0096,4.0096,4.0096,4.0096,4.0096,4.0096,4.0096,4.0096,4.0096,4.0096,4.0096,4.0096,4.0096,4.0096,4.0096,4.0096,4.0096,4.0096,4.0096,4.0096,4.0096,4.0096,4.0096,4.0096,4.0163,0.0,0.0,3.4803,3.5036,3.4864,3.4726,3.4726,3.4417,3.4134,0.0,3.4286,3.4443,3.4549,3.4226,3.3944,3.387,3.352,3.3275,3.3275,3.3949,3.4339,3.4339,3.5078,3.5504,3.5504,3.4906,3.4264,3.3499,3.2901,3.2512,3.2378,3.2378,3.2721,3.3275,3.3305,3.3305,3.3365,3.4115,3.443,3.4505,3.5237,3.5893,3.6492,3.6492,3.6866,3.7345,3.6791,3.6596,3.6387,3.5073,3.3769,3.2706,3.2557,3.2313,3.2144,3.2345,3.2823,0.0,0.0,0.0,0.0,3.5902,3.6489,0.0,3.7085,3.7102,3.7301,3.7921,3.8659,3.9381,4.0044,4.0779,4.1365,4.1522,4.2182,4.2944,4.3851,4.4047,4.4155,4.4253,4.4167,4.4155,4.4281,4.4184,4.4121,4.4164,4.2812,4.1444,4.018,4.0096,4.0096,4.0096,4.0096,4.0062,3.9977,3.9977,3.9943,3.9859,3.9859,3.991,3.9977,3.9977,4.0028,4.0096,4.0096,4.0096,4.0096,4.0096,4.0096,4.0096,4.0096,4.0096,4.0096,4.0096,4.0096,4.0096,0.0,3.5443,3.5674,3.605,3.6149,3.6189,3.6189,3.6228,3.6294,3.6294,3.6329,3.6173,3.5658,3.568,3.5485,3.4967,3.4981,3.5004,3.5004,3.517,3.523,3.523,3.5397,3.5504,3.5504,3.537,3.4711,3.3499,3.3365,3.2766,3.1705,3.1705,3.1765,3.1899,3.2045,3.2147,3.2222,3.3547,3.4091,3.4197,3.5106,3.5893,3.6492,3.6492,3.6866,3.7389,3.727,3.7225,3.703,3.5744,3.4756,3.3903,3.2841,3.2629,3.2737,3.2483,3.2823,3.3424,3.3949,3.4398,3.4931,3.577,3.6108,0.0,3.697,3.7102,3.7152,3.7284,3.7914,3.846,3.8609,3.9702,4.0608,4.0652,4.1233,4.2031,4.3064,4.3729,4.4097,4.4126,4.4126,4.4097,4.4126,4.4126,4.3903,4.3457,4.2162,4.0992,4.0146,4.0096,4.0096,4.0096,4.0096,3.9808,3.9208,3.9208,3.8903,3.8328,3.8328,3.8633,3.9208,3.9208,3.9554,4.0096,4.0096,4.0096,4.0096,4.0096,4.0096,4.0096,4.0096,4.0096,4.0096,4.0096,4.0096,4.0096,0.0,3.6954,3.7244,3.7535,3.7451,3.7337,3.7337,3.7232,3.7129,3.7129,3.7129,3.6891,3.6268,3.6294,3.6075,3.5419,3.5439,3.5504,3.5504,3.5504,3.5504,3.5504,3.5504,3.5504,3.5504,3.5175,3.4502,3.3499,3.317,3.2542,3.167,3.167,3.1698,3.1769,3.194,3.2179,3.2587,3.3722,3.4407,3.482,3.5499,3.6336,3.724,3.724,3.7843,3.8656,3.831,3.7752,3.7089,3.6441,3.5599,3.4588,3.3563,3.3212,3.3119,3.2721,3.2969,3.3529,3.405,3.4349,3.4652,3.5274,3.5446,0.0,0.0,3.6009,3.6108,3.6489,3.6854,3.7334,3.8079,3.8808,3.9421,3.9796,4.0431,4.1083,4.1633,4.2632,4.3477,4.3948,4.3894,4.3894,4.3998,4.3894,4.3501,4.2624,4.1714,4.0882,4.0146,4.0096,4.0096,4.0096,4.0096,3.9757,3.9005,3.8988,3.8633,3.7905,3.7905,3.8091,3.8447,3.8447,3.865,3.8988,3.8988,3.8988,3.9022,3.9394,3.9554,3.9605,3.996,4.0096,4.0096,4.0096,4.0096,4.0096,3.7527,3.8084,3.8517,3.8855,3.8587,3.8353,3.8353,3.8033,3.7793,3.7793,3.7793,3.7554,3.6926,3.6746,3.6402,3.5744,3.5579,3.5504,3.5504,3.5504,3.5504,3.5504,3.5504,3.5504,3.5504,3.4831,3.4189,3.3499,3.2856,3.23,3.1799,3.1841,3.194,3.2053,3.2384,3.2821,3.3389,3.4376,3.5115,3.5718,3.6245,3.7126,3.8108,3.8108,3.8945,4.0025,3.9497,3.8507,3.7456,3.7334,3.6481,3.5338,3.4546,3.4021,3.3602,3.3181,3.3303,3.3684,3.4176,3.4423,3.4594,3.4851,3.4899,3.4899,0.0,0.0,0.0,3.5678,3.5909,3.6357,3.7566,3.803,3.8394,3.9,3.9713,4.0243,4.0393,4.1375,4.2415,4.3307,4.3273,4.3243,4.3406,4.3198,4.2675,4.1787,4.1266,4.073,4.013,4.0096,4.0096,4.0096,3.996,3.9537,3.8802,3.8633,3.8193,3.7466,3.7466,3.755,3.7702,3.7702,3.777,3.7905,3.7905,3.7905,3.7973,3.87,3.8988,3.9056,3.9808,4.0096,4.0096,4.0096,4.0096,4.0096,3.7831,3.8112,3.8385,3.9196,3.9277,3.9269,3.9269,3.9209,3.9149,3.9149,3.9149,3.8931,3.8242,3.7644,3.7045,3.6432,3.5833,3.5504,3.5504,3.5504,3.5504,3.5504,3.5504,3.5504,3.5504,3.4831,3.4189,3.3499,3.2931,3.2373,3.1828,3.2038,3.2163,3.2221,3.324,3.3746,3.393,3.5496,3.6224,3.6414,3.7692,3.8325,3.8442,3.8442,3.9287,4.042,4.0378,3.984,3.9121,3.8519,3.7844,3.7015,3.5738,3.5053,3.4615,3.4124,3.3911,3.3924,3.4226,3.4472,3.4715,3.4875,3.4899,3.4899,3.4899,0.0,3.4916,3.5015,0.0,3.6059,3.6224,0.0,0.0,3.8328,3.8924,3.9647,4.031,4.0542,4.0906,4.1619,4.1657,4.1674,4.1674,4.1344,4.11,4.111,4.0569,4.0197,4.0096,4.0096,4.0096,4.0096,3.9486,3.8768,3.8041,3.7364,3.6654,3.5853,3.5853,3.6231,3.6931,3.6931,3.728,3.7905,3.7905,3.7905,3.7973,3.87,3.8988,3.9056,3.9808,4.0096,4.0096,4.0096,4.0096,4.0096,3.7481,3.7998,0.0,3.8766,3.9155,3.9388,3.9388,3.9388,3.9388,3.9388,3.9388,3.9155,3.8467,3.8138,3.7569,3.6567,3.6237,3.5908,3.5534,3.5504,3.5504,3.5504,3.5504,3.5504,3.5504,3.4911,3.4299,3.3637,3.3198,3.2705,3.2135,3.2425,3.2819,3.3333,3.4003,3.479,3.5693,3.6478,3.737,3.8258,3.8822,3.9569,4.0277,3.9863,4.0311,4.1122,4.1122,4.0452,3.9467,3.9186,3.8357,3.7278,3.6324,3.5687,3.5236,3.477,3.4316,3.4101,3.4448,3.4618,3.4715,3.4875,3.4899,3.4899,3.4899,3.4899,3.4899,3.4899,0.0,0.0,0.0,0.0,0.0,0.0,3.846,3.8907,3.9663,3.9763,4.0177,4.1276,4.1409,4.1409,4.1409,4.1055,4.0809,4.0879,4.0408,4.0096,4.0096,4.0096,4.0096,4.0096,3.9377,3.865,3.7922,3.7185,3.64,3.56,3.56,3.5769,3.6096,3.6096,3.6282,3.6563,3.6563,3.6563,3.6648,3.7872,3.8362,3.8481,3.9656,4.0096,4.0096,4.0096,4.0096,4.0096,3.7308,0.0,0.0,3.8332,3.8796,3.92,3.9394,3.9388,3.9388,3.9388,3.9388,3.923,3.8721,3.8497,3.8018,3.709,3.6753,3.6349,3.5854,3.5724,3.5619,3.5619,3.5619,3.5619,3.5619,3.5118,3.459,3.4106,3.3825,3.3473,3.3104,3.3259,3.3786,3.4589,3.4957,3.5862,3.7129,3.7644,3.8533,3.9637,4.0044,4.0921,4.1949,4.1373,4.1454,4.1851,4.166,4.0912,4.0005,3.9593,3.8782,3.7841,3.7157,3.6442,3.5748,3.5475,3.4864,3.4325,3.4618,3.4732,3.478,3.4875,3.4899,3.4899,3.4899,3.4899,3.4899,3.4899,3.4899,0.0,0.0,0.0,3.6423,3.7673,0.0,3.846,3.9199,3.9299,3.968,4.0696,4.0829,4.0829,4.0884,4.0665,4.0507,4.0551,4.0264,4.0096,4.0096,4.0096,4.0096,4.0096,3.9174,3.8447,3.7922,3.6941,3.618,3.56,3.56,3.56,3.56,3.56,3.56,3.56,3.56,3.56,3.5718,3.7256,3.7905,3.8058,3.9512,4.0096,4.0096,4.0096,4.0096,4.0096,3.7624,3.7091,0.0,3.8167,3.8407,3.8646,3.932,3.9388,3.9388,3.9388,3.9388,3.9373,3.9394,3.8796,3.8377,3.8332,3.7316,3.6679,3.6664,3.6241,3.5973,3.5973,3.5973,3.5973,3.5973,3.5461,3.5156,3.5171,3.5002,3.4904,3.4826,3.4752,3.5086,3.5769,3.6232,3.6857,3.7682,3.9163,3.9853,4.0017,4.1442,4.2441,4.3003,4.2678,4.2569,4.2457,4.1763,4.1457,4.1245,3.9855,3.9353,3.9237,3.8541,3.741,3.6375,3.6358,3.5569,3.4691,3.4707,3.4787,3.4899,3.4899,3.4899,3.4899,3.4899,3.4899,3.4899,3.4899,3.4899,3.4899,3.4932,3.5512,3.6257,3.7019,3.7748,0.0,0.0,3.9299,3.9315,3.9365,3.9365,3.9435,3.9541,3.9666,3.9789,3.9909,4.0054,4.0096,4.0096,4.0096,4.0096,4.0096,3.8684,3.7922,3.7905,3.6394,3.5616,3.56,3.56,3.56,3.56,3.56,3.56,3.56,3.56,3.56,3.5718,3.7256,3.7905,3.8058,3.9512,4.0096,4.0096,4.0096,4.0096,4.0096,0.0,0.0,3.7946,3.8674,3.9169,3.9546,3.9753,3.9783,3.9783,3.9783,3.9783,3.9783,3.9783,3.9607,3.9289,3.8821,3.8436,3.7883,3.7086,3.7351,3.7357,3.7011,3.6996,3.6996,3.6996,3.6554,3.6119,3.5655,3.5936,3.5874,3.551,3.5685,3.6217,3.7005,3.7236,3.7789,3.8592,3.9588,4.0362,4.1007,4.2492,4.2937,4.2677,4.2316,4.2178,4.2097,4.1398,4.0844,4.0368,3.9879,3.9418,3.8949,3.8721,3.7714,3.6607,3.6711,3.5769,3.4715,3.4804,3.4875,3.4899,3.4899,3.4899,3.4899,3.4899,3.4899,3.4899,3.4899,3.4899,3.4899,3.4899,3.5098,3.5678,3.6903,3.7317,3.7731,0.0,3.8146,3.7831,3.7831,3.8718,3.9325,3.9352,3.9484,3.9415,3.9059,3.9177,3.9058,3.8667,3.9106,3.914,3.865,3.8159,3.7669,3.7161,3.6146,3.56,3.56,3.56,3.56,3.56,3.56,3.56,3.56,3.56,3.56,3.5667,3.6738,3.7449,3.8007,3.8988,3.9673,4.0096,4.0096,4.0096,4.0096,3.9231,3.9313,3.9259,3.9191,3.9734,4.0172,4.0172,4.0172,4.0172,4.0172,4.042,4.0466,4.0202,4.042,4.0283,3.9581,3.9428,3.9041,3.8263,3.8548,3.86,3.8246,3.823,3.823,3.823,3.7793,3.738,3.6985,3.717,3.7102,3.6803,3.6874,3.7312,3.8106,3.7995,3.8381,3.9187,4.015,4.0882,4.1541,4.3002,4.3317,4.2791,4.2071,4.1785,4.1703,4.1029,4.0527,4.0122,3.9858,3.9473,3.9131,3.9131,3.8114,3.6933,3.7009,3.5968,3.4804,3.4875,3.4899,3.4899,3.4899,3.4899,3.4899,3.4899,3.4899,3.4899,3.4899,3.4899,3.4899,3.4899,3.4899,3.5297,3.6522,3.6721,3.697,0.0,3.7417,3.7102,3.7102,3.793,3.8536,3.8536,3.8624,3.8596,3.8238,3.8329,3.8267,3.7915,3.8345,3.8396,3.7922,3.7652,3.728,3.6795,3.6011,3.56,3.56,3.56,3.56,3.56,3.56,3.56,3.56,3.56,3.56,3.565,3.6451,3.7229,3.7973,3.87,3.9445,4.0096,4.0096,4.0096,4.0096,4.107,4.1171,4.0852,3.9833,4.0146,4.0558,4.0558,4.0558,4.0558,4.0558,4.1194,4.1379,4.0682,4.1225,4.1364,4.0666,4.028,4.0091,4.0044,3.9818,3.9707,3.9676,3.966,3.9691,3.9691,3.9116,3.887,3.9019,3.8666,3.852,3.8623,3.8214,3.8397,3.899,3.8481,3.8642,3.9398,4.0796,4.143,4.1612,4.3065,4.3611,4.3413,4.1972,4.1392,4.1276,4.0608,4.0441,4.045,3.9734,3.959,3.9703,3.9703,3.8639,3.7344,3.7311,3.6181,3.4973,3.4939,3.4923,3.4899,3.4899,3.4899,3.4899,3.4899,3.4899,3.4899,3.4899,3.4899,3.4899,3.4899,3.4899,3.5131,3.5876,0.0,3.6241,3.6953,3.7019,3.7003,3.7003,3.7003,3.7036,3.7102,3.7211,3.7327,3.7434,3.7556,3.7677,3.778,3.7821,3.7838,3.7804,3.7127,3.6778,3.6745,3.5994,3.56,3.56,3.56,3.56,3.56,3.56,3.56,3.56,3.56,3.56,3.565,3.6417,3.7161,3.7922,3.865,3.9436,4.0096,4.0096,4.0096,4.0096,4.1653,4.1915,4.2013,4.1821,4.1545,4.1323,4.1323,4.1323,4.1323,4.1323,4.1969,4.2331,4.2158,4.2284,4.2331,4.2158,4.1549,4.1018,4.0626,4.1039,4.1151,4.072,4.0813,4.0844,4.0844,4.0474,4.0021,3.9531,3.9524,3.9317,3.8914,3.8788,3.8912,3.9202,3.9073,3.9133,3.9398,4.0796,4.2026,4.3081,4.3614,4.349,4.2907,4.2088,4.1443,4.0832,4.0034,3.9821,3.9919,3.9718,3.9677,3.9703,3.9703,3.9058,3.8154,3.7627,3.6766,3.5907,3.5349,3.5111,3.5041,3.5041,3.497,3.4899,3.4899,3.4899,3.4899,3.4899,3.4899,3.4899,3.4899,3.4899,3.5131,3.5876,3.6009,3.6075,3.6257,3.581,3.5462,3.5462,3.5462,3.5893,3.7003,3.7127,3.702,3.6707,3.6705,3.6572,3.6208,3.6755,3.6806,3.6208,3.6586,3.6502,3.5904,3.5701,3.56,3.56,3.56,3.56,3.56,3.56,3.56,3.56,3.56,3.56,3.5616,3.5802,3.6366,3.7168,3.7889,3.8954,4.0096,4.0096,4.0096,4.0096,4.227,4.2539,4.284,4.3226,4.2976,4.2575,4.2109,4.2029,4.2141,4.2477,4.3148,4.3596,4.3629,4.3596,4.3484,4.3181,4.2542,4.2045,4.1739,4.2156,4.2299,4.2004,4.2049,4.208,4.208,4.161,4.1056,4.0377,4.0106,3.9693,3.9121,3.9121,3.9175,3.9299,3.9299,3.9299,3.9398,4.0895,4.2373,4.3763,4.391,4.3564,0.0,4.2161,4.1479,4.0778,3.9962,3.972,3.9781,3.9781,3.9833,3.9867,3.9867,3.9328,3.8606,3.8186,3.7289,3.6303,3.5901,3.5479,3.5198,3.5198,3.5111,3.5065,3.5065,3.5018,3.4994,3.4994,3.4947,3.4899,3.4899,3.4899,3.5032,3.5446,3.5512,3.5512,3.5512,3.5164,3.4899,3.4899,3.4899,3.523,3.6059,3.6141,3.6073,3.5937,3.5927,3.582,3.5594,3.6028,3.6079,3.5616,3.6045,3.6062,3.56,3.56,3.56,3.56,3.56,3.56,3.56,3.56,3.56,3.56,3.56,3.56,3.56,3.56,3.6079,3.6914,3.7973,3.8886,3.9673,3.9994,4.0096,4.0096,4.3046,4.3281,4.3635,4.4289,4.4404,4.4097,4.3146,4.3002,4.3182,4.3831,4.4561,4.5016,4.5032,4.5016,4.4724,4.3977,4.3405,4.3028,4.293,4.3037,4.3113,4.3113,4.3143,4.3143,4.3143,4.2583,4.192,4.1231,4.0572,3.993,3.9299,3.9299,3.9299,3.9299,3.9299,3.9348,3.9557,4.1072,4.251,4.3806,4.4035,4.3674,4.2965,4.2244,4.1587,4.0927,4.0196,3.9926,3.9926,3.9926,4.0011,4.0096,4.0096,3.9581,3.8958,3.8857,3.784,3.6719,3.6618,3.6041,3.5465,3.5465,3.5381,3.5291,3.5291,3.5198,3.5128,3.5128,3.5018,3.4923,3.4923,3.4923,3.4899,3.4899,3.4899,3.4899,3.4899,3.4899,3.4899,3.4899,3.4899,0.0,3.4899,3.4899,3.5018,3.5268,3.5291,3.5389,3.56,3.56,3.56,3.56,3.56,3.56,3.56,3.56,3.56,3.56,3.56,3.56,3.56,3.56,3.56,3.56,3.56,3.56,3.56,3.56,3.6079,3.6948,3.8311,3.8903,3.9089,3.9842,4.0096,4.0096,4.4202,4.4741,4.5248,4.5489,4.5506,4.5456,4.5261,4.4993,4.4884,4.5014,4.5669,4.6127,4.6127,4.6127,4.5832,4.5096,4.4377,4.3721,4.3084,4.3082,4.3113,4.3113,4.3281,4.3342,4.3342,4.3347,4.2679,4.1352,4.1236,4.0536,3.9299,3.9299,3.9299,3.9299,3.9299,3.97,4.044,4.1316,4.225,4.3227,4.3989,4.3816,4.3104,4.2456,4.1794,4.1067,4.0333,4.0045,4.0045,4.0045,4.0087,4.0096,4.0096,3.9986,3.9741,3.9132,3.8753,3.8415,3.78,3.7027,3.6384,3.6384,3.5836,3.5291,3.5291,3.5268,3.5268,3.5268,3.5175,3.5065,3.5065,3.497,3.4899,3.4899,3.4899,3.4899,3.4899,3.4899,3.4899,3.4899,3.4899,3.4899,3.4899,3.4899,3.5018,3.5268,3.5291,3.5389,3.56,3.56,3.56,3.56,3.56,3.56,3.56,3.56,3.56,3.56,3.56,3.56,3.56,3.56,3.56,3.56,3.56,3.56,3.56,3.56,3.6079,3.6897,3.7753,3.8464,3.9089,3.9842,4.0096,4.0096,4.516,4.5472,4.5836,4.6295,4.6676,4.7073,4.7454,4.7374,4.7012,4.6237,4.6452,4.6831,4.721,4.6897,4.6534,4.6171,4.5116,4.4325,4.3963,4.357,4.3372,4.3372,4.3462,4.3492,4.3492,4.3568,4.287,4.1409,4.1409,4.068,3.9299,3.9299,3.9299,3.9299,3.9299,3.9767,4.065,4.1476,4.2306,4.3138,4.3642,4.3394,4.2652,4.1989,4.1271,4.0578,4.0231,4.0096,4.0096,4.0096,3.9859,3.9605,3.9977,3.9842,3.9537,3.9571,3.9317,3.892,3.8565,3.7611,3.6702,3.6702,3.6083,3.5458,3.5458,3.5429,3.5383,3.5383,3.5291,3.5175,3.5111,3.4994,3.4899,3.4899,3.4899,3.4899,3.4899,3.4899,3.475,3.4369,3.4667,3.4774,3.4462,3.4778,3.5105,3.5291,3.536,3.5475,3.56,3.56,3.56,3.56,3.56,3.56,3.56,3.56,3.56,3.56,3.56,3.56,3.56,3.56,3.56,3.56,3.56,3.56,3.56,3.56,3.5842,3.6299,3.7466,3.8125,3.8565,3.969,4.0096,4.0096,4.6063,4.6146,4.6493,4.7239,4.7852,4.8431,4.9011,4.911,4.868,4.752,4.7222,4.7355,4.7934,4.7487,4.7073,4.6908,4.5682,4.4854,4.4705,4.4026,4.3598,4.3598,4.3598,4.3598,4.3598,4.3598,4.287,4.1409,4.1409,4.068,3.9299,3.9299,3.9299,3.9299,3.9299,3.9711,4.0471,4.1308,4.2097,4.2789,4.3061,4.2726,4.1999,4.1424,4.073,4.0096,4.0096,4.0096,4.0096,4.0096,3.9622,3.9123,3.9876,3.9605,3.914,3.9893,3.9706,3.9225,3.9225,3.8285,3.7235,3.7083,3.6434,3.5802,3.5633,3.5549,3.5537,3.5537,3.5446,3.5291,3.5128,3.5018,3.4923,3.4899,3.4899,3.4849,3.4684,3.4667,3.4386,3.364,3.4094,3.434,3.4022,3.4551,3.5038,3.5337,3.5446,3.552,3.56,3.56,3.56,3.56,3.56,3.56,3.56,3.56,3.56,3.56,3.56,3.56,3.56,3.56,3.56,3.56,3.56,3.56,3.56,3.56,3.5701,3.5988,3.7364,3.8007,3.8294,3.9622,4.0096,4.0096,4.6924,4.7338,4.8034,4.8779,4.8961,4.9028,4.9094,4.911,4.9061,4.8912,4.8315,4.7918,4.8001,4.7934,4.7636,4.6957,4.6146,4.54,4.4721,4.4026,4.3598,4.3598,4.3598,4.3598,4.3598,4.3598,4.287,4.1409,4.1409,4.068,3.9299,3.9299,3.9299,3.9299,3.9299,3.9491,3.9828,4.0581,4.1093,4.1448,4.2134,4.1965,4.1305,4.1238,4.073,4.0096,4.0096,4.0096,4.0096,4.0096,3.9622,3.9123,3.9876,3.9605,3.914,3.9893,4.0045,3.9994,3.9994,3.9419,3.8616,3.7973,3.7229,3.6485,3.5752,3.56,3.5577,3.5577,3.5543,3.54,3.5152,3.5105,3.5041,3.4923,3.4899,3.4667,3.3988,3.3889,3.3624,3.2901,3.2968,3.3334,3.3945,3.4225,3.4678,3.5418,3.5492,3.552,3.56,3.56,3.56,3.56,3.56,3.56,3.56,3.56,3.56,3.56,3.56,3.56,3.56,3.56,3.56,3.56,3.56,3.56,3.56,3.56,3.6028,3.6778,3.7584,3.8311,3.8988,3.9808,4.0096,4.0096,4.762,4.7802,4.8233,4.8978,4.911,4.926,4.9707,4.9392,4.911,4.911,4.8465,4.8001,4.8001,4.8001,4.7885,4.7587,4.6477,4.5665,4.5367,4.4274,4.3598,4.3598,4.3598,4.3598,4.3598,4.3598,4.287,4.1409,4.1409,4.068,3.9299,3.9299,3.9299,3.9299,3.9379,3.9511,3.9754,4.057,4.1021,4.1238,4.1525,4.1457,4.1153,4.0696,4.0367,4.0096,4.0096,4.0096,4.0096,4.0096,3.9622,3.9123,3.9876,3.9605,3.914,3.9893,4.0096,4.0096,4.0096,3.9571,3.8819,3.8091,3.7347,3.6592,3.5769,3.56,3.56,3.56,3.5543,3.5469,3.5377,3.5268,3.5198,3.5152,3.5152,3.4885,3.4128,3.4028,3.3595,3.2417,3.2672,3.2932,3.2868,3.3732,3.4454,3.4879,3.5318,3.5571,3.56,3.56,3.56,3.56,3.56,3.56,3.56,3.56,3.56,3.56,3.56,3.56,3.56,3.56,3.56,3.56,3.56,3.56,3.5633,3.6129,3.6524,3.6931,3.8091,3.8734,3.9089,3.9842,4.0096,4.0096,4.8001,4.8001,4.8233,4.8978,4.911,4.9293,4.9806,4.9442,4.9028,4.8812,4.8332,4.8001,4.8001,4.8001,4.7918,4.7703,4.6527,4.5698,4.5483,4.4307,4.3598,4.3598,4.3598,4.3598,4.3598,4.3598,4.287,4.1409,4.1409,4.068,3.9299,3.9299,3.9325,3.9352,3.9475,3.959,3.9789,4.0413,4.0736,4.0882,4.0882,4.0882,4.0815,4.0316,4.0096,4.0096,4.0096,4.0096,4.0096,4.0096,3.9757,3.9394,3.9943,3.9605,3.914,3.9893,4.0096,4.0096,4.0096,3.9571,3.8819,3.8091,3.7347,3.6592,3.5769,3.56,3.56,3.56,3.5571,3.552,3.5492,3.5423,3.5354,3.5314,3.5291,3.504,3.4303,3.3996,3.3394,3.2144,3.2249,3.2341,3.2126,3.3258,3.4165,3.4472,3.5182,3.56,3.56,3.56,3.56,3.56,3.56,3.56,3.56,3.56,3.56,3.56,3.56,3.56,3.56,3.56,3.56,3.56,3.56,3.5718,3.6011,3.6575,3.7066,3.7557,3.8582,3.9123,3.9402,3.991,4.0096,4.0096,4.8001,4.8001,4.8233,4.8978,4.911,4.911,4.9127,4.911,4.8845,4.8117,4.8017,4.8001,4.8001,4.8001,4.7703,4.6974,4.6228,4.5483,4.4754,4.4026,4.3598,4.3598,4.3598,4.3598,4.3598,4.3598,4.287,4.1409,4.1409,4.068,3.9299,3.9299,3.9379,3.9501,3.9501,3.9642,3.9901,3.9918,4.0003,4.0113,4.0113,4.0113,4.0113,4.0096,4.0096,4.0096,4.0096,4.0096,4.0096,4.0096,4.0096,4.0096,4.0096,3.9605,3.914,3.9893,4.0096,4.0096,4.0096,3.9571,3.8819,3.8091,3.7347,3.6592,3.5769,3.56,3.56,3.56,3.56,3.5594,3.5514,3.5492,3.5446,3.5314,3.5291,3.504,3.4309,3.3567,3.2847,3.2077,3.1422,3.1298,3.2025,3.2904,3.3711,3.4438,3.5182,3.56,3.56,3.56,3.56,3.56,3.56,3.56,3.56,3.56,3.56,3.56,3.56,3.56,3.56,3.56,3.56,3.56,3.56,3.6062,3.6795,3.6795,3.7675,3.8971,3.8988,3.9453,4.0096,4.0096,4.0096,4.0096,4.8001,4.8001,4.8233,4.8978,4.8696,4.8531,4.9028,4.868,4.8266,4.8034,4.7554,4.7255,4.7255,4.7255,4.7156,4.6924,4.5765,4.4937,4.4735,4.4026,4.3598,4.3598,4.3598,4.3598,4.3598,4.3598,4.3118,4.2142,4.1645,4.0735,3.9448,3.9448,3.9511,3.9625,3.9746,3.9824,3.9901,3.9986,4.0062,4.0096,4.0096,4.0096,4.0096,4.0096,4.0096,4.0096,4.0096,4.0096,4.0096,4.0096,4.0096,4.0096,4.0096,3.9943,3.9808,4.0028,4.0096,3.9994,3.9503,3.9174,3.87,3.7472,3.6981,3.6592,3.5769,3.56,3.56,3.56,3.56,3.56,3.5571,3.5571,3.5549,3.5526,3.5487,3.5256,3.4498,3.4194,3.3587,3.236,3.2009,3.1776,3.1523,3.2658,3.3508,3.3728,3.489,3.56,3.56,3.56,3.56,3.56,3.56,3.56,3.56,3.56,3.56,3.56,3.56,3.5893,3.6417,3.6417,3.6688,3.7155,3.7155,3.7313,3.7584,3.8075,3.8565,3.9039,3.9554,3.9893,4.0096,4.0096,4.0096,4.0096,4.8001,4.8001,4.815,4.8614,4.8315,4.8166,4.863,4.8299,4.8001,4.8001,4.7355,4.6891,4.6891,4.6411,4.6063,4.6063,4.5218,4.4572,4.4307,4.3876,4.3598,4.3598,4.3598,4.3598,4.3598,4.3598,4.3234,4.2489,4.1846,4.0967,3.9917,3.9954,3.991,3.9781,3.9875,3.9926,3.9986,4.0045,4.0096,4.0096,4.0096,3.9943,3.969,3.969,3.969,3.969,3.969,3.9859,4.0096,4.0096,4.0096,4.0096,4.0096,4.0096,4.0096,4.0096,3.991,3.9605,3.9123,3.8582,3.7963,3.7032,3.6552,3.6214,3.5701,3.56,3.56,3.56,3.56,3.56,3.56,3.56,3.56,3.56,3.56,3.543,3.4979,3.4675,3.415,3.3241,3.2649,3.2124,3.1667,3.2696,3.3406,3.3406,3.4771,3.56,3.56,3.56,3.56,3.56,3.56,3.56,3.56,3.56,3.56,3.56,3.591,3.6315,3.6812,3.71,3.7449,3.7905,3.7905,3.8075,3.8345,3.8802,3.9157,3.9469,3.9926,4.0096,4.0096,4.0096,4.0096,4.0096,4.8001,4.8001,4.8001,4.8001,4.8001,4.8001,4.8001,4.8001,4.8001,4.8001,4.7305,4.6825,4.6825,4.55,4.4605,4.4605,4.4605,4.4324,4.3631,4.3598,4.3598,4.3598,4.3598,4.3598,4.3598,4.3598,4.3234,4.2489,4.2026,4.1411,4.0683,4.0779,4.0536,3.9994,3.9943,3.9986,4.0096,4.0096,4.0079,4.0028,4.0028,3.9588,3.892,3.892,3.892,3.892,3.892,3.9343,3.996,4.0011,3.9994,3.996,4.0011,3.9994,3.9977,4.0079,3.9588,3.8988,3.8937,3.7895,3.6795,3.6745,3.6146,3.56,3.56,3.56,3.56,3.56,3.56,3.56,3.56,3.56,3.56,3.56,3.56,3.56,3.56,3.5013,3.4556,3.4506,3.3292,3.2429,3.2378,3.3034,3.3491,3.3491,3.4788,3.56,3.56,3.56,3.56,3.56,3.56,3.56,3.56,3.56,3.5616,3.5684,3.6434,3.6846,3.6981,3.7652,3.8007,3.8058,3.8058,3.8447,3.9073,3.9073,3.9486,4.0096,4.0096,4.0096,4.0096,4.0096,4.0096,4.0096,4.8001,4.8001,4.8001,4.8001,4.8001,4.8001,4.8001,4.8001,4.8001,4.8001,4.6874,4.6063,4.6063,4.4738,4.3876,4.3876,4.3876,4.378,4.3615,4.3598,4.3598,4.3598,4.3598,4.3598,4.3598,4.3598,4.3234,4.2489,4.2542,4.2205,4.1581,4.1157,4.092,4.0865,4.0316,4.0087,4.0096,4.0096,3.9791,3.9242,3.9242,3.8819,3.8159,3.8159,3.8159,3.8159,3.8159,3.8278,3.8514,3.9056,3.8886,3.8514,3.9073,3.887,3.8633,3.9774,3.9588,3.887,3.8311,3.7483,3.666,3.6045,3.5735,3.56,3.56,3.56,3.56,3.56,3.56,3.56,3.56,3.56,3.56,3.56,3.56,3.56,3.56,3.5447,3.5131,3.4556,3.4184,3.3744,3.3186,3.3812,3.4235,3.4235,3.5076,3.56,3.56,3.56,3.56,3.56,3.56,3.56,3.56,3.56,3.591,3.6502,3.6711,3.7405,3.8481,3.865,3.9039,3.9588,3.9588,3.969,3.9842,3.9842,3.9943,4.0096,4.0096,4.0096,4.0096,4.0096,4.0096,4.0096,4.8001,4.8001,4.8001,4.8001,4.8001,4.8001,4.8001,4.8001,4.8001,4.8001,4.6709,4.5798,4.5798,4.4489,4.3598,4.3598,4.3598,4.3598,4.3598,4.3598,4.3598,4.3598,4.3598,4.3598,4.3598,4.3598,4.34,4.2986,4.3194,4.3001,4.239,4.2135,4.1731,4.1187,4.0781,4.0434,4.0096,4.0096,3.9876,3.9462,3.9123,3.8565,3.7872,3.7533,3.7398,3.7398,3.7398,3.7618,3.8024,3.8751,3.8514,3.8041,3.8768,3.8481,3.8075,3.8853,3.8589,3.7905,3.7499,3.684,3.6146,3.5701,3.56,3.56,3.56,3.56,3.5701,3.6079,3.6146,3.6248,3.6603,3.6383,3.6146,3.6146,3.5836,3.56,3.56,3.56,3.5447,3.5064,3.4709,3.4336,3.3947,3.4252,3.4489,3.4489,3.5182,3.5752,3.6129,3.6146,3.5994,3.5616,3.56,3.56,3.56,3.596,3.6366,3.6812,3.7489,3.8234,3.9005,3.9368,3.9723,4.0096,4.0096,4.0096,4.0096,4.0096,4.0096,4.0096,4.0096,4.0096,4.0096,4.0096,4.0096,4.0096,4.8001,4.8001,4.8001,4.8001,4.8001,4.8001,4.8001,4.8001,4.8001,4.8001,4.6709,4.5798,4.5798,4.4489,4.3598,4.3598,4.3598,4.3598,4.3598,4.3598,4.3598,4.3598,4.3598,4.3549,4.3433,4.3416,4.3416,4.3416,4.3743,4.3623,4.3131,4.3183,4.2597,4.1473,4.1279,4.0849,4.0265,4.0146,4.0045,3.9893,3.9242,3.8481,3.7669,3.7049,3.6728,3.6626,3.6626,3.7026,3.7686,3.8531,3.8345,3.7889,3.8717,3.8413,3.7736,3.7736,3.7195,3.666,3.6778,3.6214,3.56,3.56,3.5684,3.5769,3.5769,3.587,3.6146,3.6823,3.6981,3.7144,3.7787,3.7297,3.6795,3.6818,3.6152,3.5644,3.5667,3.5667,3.5667,3.5667,3.5108,3.4752,3.4849,3.4871,3.4922,3.504,3.565,3.631,3.6977,3.7028,3.6706,3.6028,3.6005,3.5983,3.6005,3.657,3.696,3.7197,3.8468,3.9105,3.9216,3.985,4.0138,4.0096,4.0096,4.0096,4.0121,4.0121,4.0121,4.0163,4.0138,4.0121,4.0138,4.0113,4.0096,4.0096,4.8001,4.8001,4.8001,4.8001,4.8001,4.8001,4.8001,4.8001,4.8001,4.8001,4.6709,4.5798,4.5798,4.4489,4.3598,4.3598,4.3598,4.3598,4.3598,4.3598,4.3598,4.3598,4.3598,4.33,4.2671,4.2655,4.2655,4.2655,4.3494,4.3831,4.3756,4.3395,4.3098,4.284,4.1726,4.1136,4.0984,4.0367,3.974,3.9157,3.9039,3.8176,3.6965,3.6846,3.6366,3.5785,3.5785,3.5853,3.6157,3.7601,3.7584,3.7218,3.8565,3.8082,3.6981,3.6981,3.6417,3.5943,3.6626,3.6214,3.56,3.56,3.6113,3.6626,3.6626,3.7094,3.7584,3.7702,3.7736,3.777,3.7889,3.7297,3.6818,3.6876,3.6248,3.5817,3.591,3.5932,3.5932,3.5932,3.5742,3.5841,3.6475,3.6576,3.6865,3.75,3.7763,3.7928,3.8065,3.8065,3.8025,3.7968,3.7797,3.7784,3.7877,3.7325,3.7723,3.8986,3.9225,3.9596,4.011,4.0229,4.0213,4.0096,4.0096,4.0163,4.028,4.028,4.0337,4.0436,4.0313,4.028,4.0255,4.0138,4.0096,4.0096,4.8001,4.8001,4.8001,4.8001,4.8001,4.8001,4.8001,4.8001,4.7868,4.7454,4.646,4.5632,4.5235,4.4257,4.3598,4.3598,4.3598,4.3598,4.3598,4.3598,4.3598,4.3598,4.3598,4.3251,4.2506,4.2092,4.1922,4.1922,4.2742,4.3194,4.3298,4.3492,4.3451,4.3155,4.2142,4.1497,4.1153,4.0417,3.991,3.9571,3.9157,3.8345,3.7347,3.6965,3.6299,3.56,3.56,3.5893,3.6417,3.7533,3.7669,3.7584,3.865,3.8261,3.7313,3.6931,3.6231,3.5769,3.6592,3.6541,3.6332,3.6732,3.7127,3.7381,3.7381,3.7652,3.8024,3.8413,3.8546,3.8713,3.912,3.8292,3.754,3.7609,3.6722,3.6036,3.6101,3.6127,3.6324,3.6758,3.6701,3.6903,3.7638,3.7689,3.786,3.8219,3.8322,3.8557,3.9038,3.9055,3.9319,3.9882,3.8917,3.8397,3.8459,3.8488,3.8866,3.957,3.9928,4.025,4.0502,4.0436,4.0362,4.0337,4.0337,4.0387,4.0527,4.0527,4.0551,4.0583,4.0551,4.0478,4.0387,4.0263,4.0213,4.0188,4.8001,4.8001,4.8001,4.8001,4.8001,4.8001,4.8001,4.7852,4.7537,4.6974,4.6096,4.5317,4.4754,4.4042,4.3598,4.3598,4.3598,4.3598,4.3598,4.3598,4.3598,4.3598,4.3267,4.282,4.2258,4.1558,4.1177,4.1177,4.1877,4.2327,4.2475,4.3115,4.3196,4.2819,4.2091,4.156,4.1101,4.0383,4.0087,4.0045,3.9486,3.8802,3.8091,3.754,3.6823,3.6124,3.6124,3.6535,3.7185,3.7905,3.8159,3.8278,3.9005,3.8751,3.8041,3.7489,3.6755,3.6225,3.6694,3.6931,3.7178,3.777,3.8041,3.8159,3.8159,3.8294,3.8565,3.9189,3.9382,3.9666,4.0277,3.9368,3.8488,3.8385,3.7364,3.6542,3.6395,3.6578,3.6953,3.7577,3.7655,3.7986,3.8705,3.8734,3.878,3.9032,3.9094,3.9399,4.0083,4.0141,4.0532,4.1351,3.9842,3.9128,3.9297,3.9673,3.9967,4.0158,4.0642,4.0864,4.0799,4.068,4.0631,4.0583,4.0583,4.0655,4.0793,4.0817,4.0823,4.0823,4.0823,4.0728,4.0583,4.0436,4.0355,4.0305,4.8001,4.8001,4.8001,4.8001,4.8001,4.8001,4.8001,4.7421,4.6957,4.6908,4.5649,4.4754,4.4718,4.4042,4.3598,4.3598,4.3598,4.3598,4.3598,4.3598,4.3598,4.3598,4.2274,4.1529,4.1491,4.0812,4.0475,4.0475,4.116,4.1491,4.1508,4.1743,4.1844,4.1772,4.1174,4.0939,4.0954,4.0229,3.9986,4.0096,4.0045,3.9588,3.8903,3.8853,3.8379,3.7736,3.7736,3.777,3.7939,3.8667,3.892,3.9039,3.9791,3.952,3.8903,3.8836,3.8311,3.7601,3.6981,3.7297,3.7838,3.7889,3.8413,3.892,3.892,3.9453,3.9985,4.0178,4.022,4.0311,4.0607,4.0027,3.9353,3.892,3.8191,3.7512,3.7016,3.7544,3.798,3.8032,3.8531,3.9151,3.9899,3.9857,4.0111,4.0937,4.1098,4.1246,4.145,4.1472,4.1578,4.1831,4.0883,4.0683,4.1367,4.0753,4.0771,4.1472,4.1368,4.1272,4.1163,4.1099,4.1,4.0871,4.0871,4.0935,4.107,4.1134,4.1163,4.1163,4.1163,4.1041,4.0847,4.0721,4.0502,4.0305,4.8001,4.8001,4.8001,4.8001,4.8001,4.7852,4.7388,4.7073,4.656,4.5649,4.5036,4.4522,4.4075,4.3764,4.3598,4.3598,4.3598,4.3598,4.3598,4.3598,4.3598,4.3598,4.2622,4.186,4.1397,4.0729,4.0194,3.973,4.0415,4.0779,4.0779,4.1282,4.1582,4.1677,4.0971,4.0745,4.0838,4.0178,3.9926,3.9986,4.0062,3.9673,3.8988,3.8988,3.8531,3.7905,3.7905,3.8193,3.8616,3.8903,3.9292,3.974,4.0011,3.991,3.9605,3.9123,3.8802,3.8514,3.8251,3.8362,3.8684,3.914,3.9462,3.969,3.969,3.991,4.0138,4.0263,4.0429,4.0624,4.083,4.0418,3.9991,3.9909,3.9294,3.8804,3.8629,3.8938,3.935,3.9846,4.002,4.0387,4.1095,4.1038,4.1138,4.1547,4.1626,4.1719,4.1892,4.204,4.2127,4.221,4.1943,4.1881,4.2019,4.1774,4.1732,4.1913,4.1784,4.1675,4.1565,4.1358,4.129,4.1335,4.1244,4.1335,4.1533,4.1542,4.1565,4.1565,4.1475,4.134,4.1175,4.0935,4.0769,4.0631,4.8001,4.8001,4.7934,4.7703,4.7653,4.7404,4.6659,4.6361,4.5847,4.4821,4.4489,4.4175,4.3648,4.3598,4.3598,4.3598,4.3598,4.3598,4.3598,4.3598,4.3598,4.3598,4.2886,4.2258,4.1744,4.0862,4.016,3.9647,3.9928,4.0061,4.0061,4.0531,4.0801,4.0912,4.0429,4.0277,4.0361,3.9964,3.9824,3.9901,3.9986,3.9758,3.9368,3.9368,3.9022,3.8582,3.8582,3.8903,3.9368,3.9368,3.969,4.0146,4.0383,4.0468,4.029,3.9571,3.9368,3.9368,3.9368,3.9368,3.9486,3.9977,4.0096,4.0096,4.0096,4.0121,4.0213,4.0404,4.0607,4.0853,4.1157,4.0971,4.0791,4.0711,4.0338,4.0017,3.9852,4.0089,4.0503,4.1056,4.1223,4.1476,4.1924,4.1888,4.1866,4.1995,4.1995,4.2061,4.2249,4.2391,4.2472,4.2512,4.2609,4.2609,4.2492,4.243,4.2348,4.2249,4.2124,4.2019,4.1952,4.1719,4.167,4.1732,4.1644,4.1692,4.1888,4.1888,4.1888,4.1888,4.1784,4.167,4.1493,4.1221,4.1035,4.0894,4.8001,4.8001,4.7769,4.7023,4.6891,4.6643,4.5897,4.5152,4.4688,4.4671,4.4059,4.3598,4.3598,4.3598,4.3598,4.3598,4.3598,4.3598,4.3598,4.3598,4.3598,4.3598,4.2886,4.2489,4.2489,4.1127,4.0426,4.0409,3.9663,3.9315,3.9299,3.9299,3.9299,3.9299,3.9299,3.9379,3.9501,3.9501,3.9642,3.9901,3.9901,4.0003,4.0113,4.0113,4.013,4.013,4.013,4.013,4.013,4.013,4.013,4.0248,4.0984,4.1221,4.1068,4.0333,4.0113,4.0113,4.0113,4.0096,4.0096,4.0096,4.0096,4.0096,4.0096,4.0213,4.0379,4.0648,4.0853,4.1117,4.1538,4.1762,4.1732,4.1194,4.1227,4.1075,4.0399,4.0956,4.1423,4.1423,4.1988,4.2394,4.2412,4.2331,4.2328,4.2412,4.2394,4.2452,4.2589,4.2609,4.2668,4.2802,4.2803,4.2823,4.2901,4.2689,4.2609,4.2609,4.2472,4.2371,4.2308,4.2166,4.2076,4.2005,4.2005,4.2034,4.2103,4.2103,4.2103,4.2103,4.2103,4.1995,4.178,4.1648,4.134,4.0977,4.8001,4.7587,4.7156,4.6941,4.646,4.5864,4.5135,4.4821,4.4506,4.4009,4.3731,4.3598,4.3598,4.3598,4.3598,4.3598,4.3598,4.3598,4.3598,4.3598,4.3598,4.3598,4.3383,4.3019,4.2506,4.2104,4.1392,4.0409,4.0194,3.9812,3.9299,3.9299,3.9299,3.9299,3.9299,3.9325,3.9352,3.9475,3.9554,3.9666,4.0404,4.071,4.0813,4.1414,4.1653,4.1653,4.1653,4.1653,4.1653,4.1653,4.1653,4.1677,4.1897,4.1965,4.1914,4.1721,4.1271,4.0865,4.0865,4.0476,4.0096,4.0096,4.0096,4.0121,4.0213,4.0263,4.0387,4.0769,4.0995,4.1277,4.174,4.2019,4.2177,4.2147,4.2191,4.2178,4.2078,4.224,4.2384,4.2384,4.2562,4.2649,4.2532,4.2512,4.253,4.2532,4.2629,4.2706,4.2745,4.2767,4.2824,4.2862,4.2862,4.2881,4.2901,4.2843,4.2804,4.2745,4.2706,4.2609,4.251,4.2371,4.2351,4.2427,4.2328,4.2348,4.2452,4.2452,4.2452,4.245,4.2308,4.2205,4.21,4.1736,4.1453,4.1226,4.8001,4.7636,4.7156,4.656,4.6096,4.545,4.4423,4.4257,4.4108,4.3648,4.3598,4.3598,4.3598,4.3598,4.3598,4.3598,4.3598,4.3598,4.3598,4.3598,4.3598,4.3598,4.3598,4.3383,4.2936,4.2638,4.1955,4.0796,4.0542,4.0028,3.9299,3.9299,3.9464,3.9746,3.9746,3.9895,4.016,4.0198,4.0313,4.0444,4.1104,4.1405,4.1492,4.2064,4.2286,4.2286,4.2286,4.2286,4.2286,4.2286,4.2489,4.2675,4.2388,4.2489,4.2675,4.2388,4.1982,4.1576,4.1288,4.0865,4.0485,4.018,4.0096,4.0138,4.028,4.0379,4.0558,4.0942,4.1521,4.2075,4.2459,4.2772,4.3014,4.3134,4.2905,4.2765,4.2823,4.2842,4.2842,4.2842,4.2842,4.2804,4.2728,4.2709,4.2709,4.2709,4.2804,4.2842,4.2842,4.2881,4.2901,4.2901,4.2901,4.2901,4.2901,4.2901,4.2881,4.2842,4.2842,4.2785,4.2686,4.2609,4.2571,4.2609,4.2512,4.257,4.2668,4.2629,4.2629,4.2649,4.249,4.2389,4.2325,4.1952,4.1653,4.1426,4.8001,4.7951,4.7454,4.6046,4.5748,4.5235,4.3813,4.3598,4.3598,4.3598,4.3598,4.3598,4.3598,4.3598,4.3598,4.3598,4.3598,4.3598,4.3598,4.3598,4.3598,4.3598,4.3598,4.3598,4.3598,4.2936,4.2191,4.1409,4.0779,4.0094,3.9299,3.9299,3.9696,4.0409,4.0409,4.0763,4.1409,4.1409,4.1498,4.1688,4.1905,4.207,4.2206,4.2419,4.2506,4.2506,4.2506,4.2506,4.2506,4.2506,4.2946,4.3403,4.2709,4.2963,4.3386,4.2692,4.2439,4.2252,4.1593,4.1305,4.1035,4.0383,4.0163,4.0163,4.0288,4.0527,4.0834,4.1227,4.2263,4.3212,4.3554,4.3827,4.4012,4.4012,4.3386,4.2901,4.2901,4.2901,4.2901,4.2901,4.2901,4.2901,4.2901,4.2901,4.2901,4.2901,4.2901,4.2901,4.2901,4.2901,4.2901,4.2901,4.2901,4.2901,4.2901,4.2901,4.2901,4.2901,4.2901,4.2862,4.2803,4.2803,4.2727,4.2629,4.2629,4.2688,4.2803,4.2668,4.2688,4.2803,4.2668,4.2568,4.2483,4.2205,4.1909,4.156,4.8001,4.7537,4.6858,4.5947,4.5317,4.4638,4.3731,4.3598,4.3598,4.3598,4.3598,4.3598,4.3598,4.3598,4.3598,4.3598,4.3598,4.3598,4.3598,4.3598,4.3598,4.3598,4.3598,4.3598,4.3598,4.3433,4.2704,4.1409,4.1259,4.0531,3.9299,3.9299,3.9696,4.0409,4.0409,4.0763,4.1409,4.1409,4.1425,4.1531,4.2395,4.2786,4.2892,4.3776,4.4107,4.4107,4.4107,4.4107,4.4107,4.4107,4.4225,4.4327,4.4158,4.4225,4.4327,4.4158,4.3656,4.3149,4.2953,4.2083,4.117,4.1001,4.0604,4.0288,4.0436,4.0583,4.0995,4.2097,4.2718,4.3393,4.4335,4.4227,4.4014,4.4075,4.3425,4.2901,4.2901,4.2901,4.2901,4.2901,4.2901,4.2901,4.2901,4.2901,4.2901,4.2901,4.2901,4.2901,4.2901,4.2901,4.2901,4.2901,4.2901,4.2901,4.2901,4.2901,4.2901,4.2901,4.2901,4.2882,4.2881,4.2881,4.2862,4.2825,4.2825,4.2862,4.2881,4.2843,4.2862,4.2862,4.2785,4.2686,4.255,4.2348,4.2058,4.167,4.8001,4.7686,4.7073,4.598,4.5467,4.4854,4.3764,4.3598,4.3598,4.3598,4.3598,4.3598,4.3598,4.3598,4.3598,4.3598,4.3598,4.3598,4.3598,4.3598,4.3598,4.3598,4.3598,4.3598,4.3598,4.3598,4.287,4.1409,4.1409,4.068,3.9299,3.9299,3.9862,4.0878,4.0878,4.1458,4.244,4.244,4.244,4.2502,4.323,4.3511,4.3618,4.4333,4.4615,4.4615,4.4615,4.4615,4.4615,4.4615,4.4615,4.4615,4.4615,4.4615,4.4615,4.4615,4.4282,4.3893,4.3494,4.2834,4.2185,4.1813,4.1528,4.1291,4.1083,4.0968,4.1371,4.29,4.3589,4.4107,4.4767,4.4743,4.4507,4.4168,4.3407,4.2901,4.2901,4.2901,4.2901,4.2901,4.2901,4.2901,4.2901,4.2901,4.2901,4.2901,4.2901,4.2901,4.2901,4.2901,4.2901,4.2901,4.2901,4.2901,4.2901,4.2901,4.2901,4.2901,4.2901,4.2901,4.2901,4.2901,4.2901,4.2901,4.2901,4.2901,4.2901,4.2901,4.2901,4.29,4.2862,4.2785,4.2686,4.2432,4.2061,4.1626,4.8001,4.7901,4.7388,4.603,4.5682,4.5152,4.3797,4.3598,4.3598,4.3598,4.3598,4.3598,4.3598,4.3598,4.3598,4.3598,4.3598,4.3598,4.3598,4.3598,4.3598,4.3598,4.3714,4.3714,4.3598,4.3714,4.3052,4.1579,4.1446,4.0746,3.9497,3.9365,4.0034,4.1409,4.1409,4.2208,4.3598,4.3598,4.3598,4.3628,4.3923,4.4085,4.4097,4.4429,4.4542,4.4542,4.4587,4.4615,4.4615,4.4615,4.4615,4.4615,4.4615,4.4615,4.4615,4.4615,4.4615,4.4462,4.3792,4.3494,4.324,4.2642,4.2504,4.244,4.2099,4.1816,4.2085,4.3775,4.4605,4.5057,4.5177,4.5258,4.5037,4.4222,4.3407,4.2901,4.2901,4.2901,4.2901,4.2901,4.2901,4.2901,4.2901,4.2901,4.2901,4.2901,4.2901,4.2901,4.2901,4.2901,4.2901,4.2901,4.2901,4.2901,4.2901,4.2901,4.2901,4.2901,4.2901,4.2901,4.2901,4.2901,4.2901,4.2901,4.2901,4.2901,4.2901,4.2901,4.2901,4.2901,4.2901,4.2861,4.2764,4.2472,4.2082,4.1648,4.8001,4.7487,4.6775,4.5947,4.5251,4.4572,4.3714,4.3598,4.3598,4.3598,4.3598,4.3598,4.3598,4.3598,4.3598,4.3598,4.3598,4.3598,4.3598,4.3598,4.3598,4.3598,4.4208,4.4257,4.3615,4.4224,4.3827,4.234,4.1695,4.1011,4.0243,3.9597,4.0034,4.1409,4.1409,4.2208,4.3598,4.3598,4.3598,4.3628,4.3822,4.3927,4.3956,4.4241,4.4338,4.4367,4.4542,4.4615,4.4615,4.4615,4.4615,4.4615,4.4615,4.4615,4.4615,4.4615,4.4615,4.4581,4.4479,4.3927,4.3375,4.3274,4.2964,4.286,4.3597,4.3462,4.3563,4.4847,4.549,4.5882,4.6004,4.5637,4.5037,4.4222,4.3407,4.2901,4.2901,4.2901,4.2901,4.2901,4.2901,4.2901,4.2901,4.2901,4.2901,4.2901,4.2901,4.2901,4.2901,4.2901,4.2901,4.2901,4.2901,4.2901,4.2901,4.2901,4.2901,4.2901,4.2901,4.2901,4.2901,4.2901,4.2901,4.2901,4.2901,4.2901,4.2901,4.2901,4.2901,4.2901,4.2901,4.2861,4.2764,4.243,4.2187,4.1977,4.8001,4.7404,4.6659,4.5914,4.5185,4.444,4.3698,4.3598,4.3598,4.3598,4.3598,4.3598,4.3598,4.3598,4.3598,4.3598,4.3598,4.3598,4.3598,4.3598,4.3764,4.4208,4.4522,4.4738,4.4837,4.4738,4.4373,4.3727,4.217,4.1061,4.0393,3.9647,3.9862,4.0829,4.0829,4.1409,4.2357,4.2357,4.2357,4.2419,4.304,4.3281,4.3344,4.3975,4.4196,4.4212,4.4384,4.444,4.444,4.457,4.4615,4.4615,4.4615,4.4615,4.4615,4.4615,4.4615,4.4615,4.4615,4.4333,4.4062,4.4062,4.4028,4.4126,4.4689,4.492,4.5207,4.5888,4.606,4.6148,4.6233,4.5732,4.5037,4.4222,4.3407,4.2901,4.2901,4.2901,4.2901,4.2901,4.2901,4.2901,4.2901,4.2901,4.2901,4.2901,4.2901,4.2901,4.2901,4.2901,4.2901,4.2901,4.2901,4.2901,4.2901,4.2901,4.2901,4.2901,4.2901,4.2901,4.2901,4.2901,4.2901,4.2901,4.2901,4.2901,4.2901,4.2901,4.2901,4.2901,4.2901,4.2861,4.2783,4.2627,4.243,4.2184]}]]